[[{"header":{"parameterUnit":"m.s-1","parameterCategory":1,"la1":30.6,"la2":28.766,"lo1":-90.7593,"lo2":-88.6598,"dy":0.0162,"dx":0.0183,"nx":116,"ny":114,"refTime":"2024-04-19T00:00:00:Z","depth":0,"parameterNumber":2,"parameterNumberName":"U-component_of_WINDS"},"data":[0.0,0.0,0.0,0.0,0.0,0.0,0.0,0.0,0.0,0.0,0.0,0.0,0.0,0.0,0.0,0.0,0.0,0.0,0.0,0.0,0.0,0.0,0.0,0.0,0.0,0.0,0.0,0.0,0.0,0.0,0.0,0.0,0.0,0.0,0.0,0.0,0.0,0.0,0.0,0.0,0.0,0.0,0.0,0.0,0.0,0.0,0.0,0.0,0.0,0.0,0.0,0.0,0.0,0.0,0.0,0.0,0.0,0.0,0.0,0.0,0.0,0.0,0.0,0.0,0.0,0.0,0.0,0.0,0.0,0.0,0.0,0.0,0.0,0.0,0.0,0.0,0.0,0.0,0.0,0.0,0.0,0.0,0.0,0.0,0.0,0.0,0.0,0.0,0.0,0.0,0.0,0.0,0.0,0.0,0.0,0.0,0.0,0.0,0.0,0.0,0.0,0.0,0.0,0.0,0.0,0.0,0.0,0.0,0.0,0.0,0.0,0.0,0.0,0.0,0.0,0.0,0.0,0.0,0.0,0.0,0.0,0.0,0.0,0.0,0.0,0.0,0.0,0.0,0.0,0.0,0.0,0.0,0.0,0.0,0.0,0.0,0.0,0.0,0.0,0.0,0.0,0.0,0.0,0.0,0.0,0.0,0.0,0.0,0.0,0.0,0.0,0.0,0.0,0.0,0.0,0.0,0.0,0.0,0.0,0.0,0.0,0.0,0.0,0.0,0.0,0.0,0.0,0.0,0.0,0.0,0.0,0.0,0.0,0.0,0.0,0.0,0.0,0.0,0.0,0.0,0.0,0.0,0.0,0.0,0.0,0.0,0.0,0.0,0.0,0.0,0.0,0.0,0.0,0.0,0.0,0.0,0.0,0.0,0.0,0.0,0.0,0.0,0.0,0.0,0.0,0.0,0.0,0.0,0.0,0.0,0.0,0.0,0.0,0.0,0.0,0.0,0.0,0.0,0.0,0.0,0.0,0.0,0.0,0.0,0.0,0.0,0.0,0.0,0.0,0.0,0.0,0.0,0.0,0.0,0.0,0.0,0.0,0.0,0.0,0.0,0.0,0.0,0.0,0.0,0.0,0.0,0.0,0.0,0.0,0.0,0.0,0.0,0.0,0.0,0.0,0.0,0.0,0.0,0.0,0.0,0.0,0.0,0.0,0.0,0.0,0.0,0.0,0.0,0.0,0.0,0.0,0.0,0.0,0.0,0.0,0.0,0.0,0.0,0.0,0.0,0.0,0.0,0.0,0.0,0.0,0.0,0.0,0.0,0.0,0.0,0.0,0.0,0.0,0.0,0.0,0.0,0.0,0.0,0.0,0.0,0.0,0.0,0.0,0.0,0.0,0.0,0.0,0.0,0.0,0.0,0.0,0.0,0.0,0.0,0.0,0.0,0.0,0.0,0.0,0.0,0.0,0.0,0.0,0.0,0.0,0.0,0.0,0.0,0.0,0.0,0.0,0.0,0.0,0.0,0.0,0.0,0.0,0.0,0.0,0.0,0.0,0.0,0.0,0.0,0.0,0.0,0.0,0.0,0.0,0.0,0.0,0.0,0.0,0.0,0.0,0.0,0.0,0.0,0.0,0.0,0.0,0.0,0.0,0.0,0.0,0.0,0.0,0.0,0.0,0.0,0.0,0.0,0.0,0.0,0.0,0.0,0.0,0.0,0.0,0.0,0.0,0.0,0.0,0.0,0.0,0.0,0.0,0.0,0.0,0.0,0.0,0.0,0.0,0.0,0.0,0.0,0.0,0.0,0.0,0.0,0.0,0.0,0.0,0.0,0.0,0.0,0.0,0.0,0.0,0.0,0.0,0.0,0.0,0.0,0.0,0.0,0.0,0.0,0.0,0.0,0.0,0.0,0.0,0.0,0.0,0.0,0.0,0.0,0.0,0.0,0.0,0.0,0.0,0.0,0.0,0.0,0.0,0.0,0.0,0.0,0.0,0.0,0.0,0.0,0.0,0.0,0.0,0.0,0.0,0.0,0.0,0.0,0.0,0.0,0.0,0.0,0.0,0.0,0.0,0.0,0.0,0.0,0.0,0.0,0.0,0.0,0.0,0.0,0.0,0.0,0.0,0.0,0.0,0.0,0.0,0.0,0.0,0.0,0.0,0.0,0.0,0.0,0.0,0.0,0.0,0.0,0.0,0.0,0.0,0.0,0.0,0.0,0.0,0.0,0.0,0.0,0.0,0.0,0.0,0.0,0.0,0.0,0.0,0.0,0.0,0.0,0.0,0.0,0.0,0.0,0.0,0.0,0.0,0.0,0.0,0.0,0.0,0.0,0.0,0.0,0.0,0.0,0.0,0.0,0.0,0.0,0.0,0.0,0.0,0.0,0.0,0.0,0.0,0.0,0.0,0.0,0.0,0.0,0.0,0.0,0.0,0.0,0.0,0.0,0.0,0.0,0.0,0.0,0.0,0.0,0.0,0.0,0.0,0.0,0.0,0.0,0.0,0.0,0.0,0.0,0.0,0.0,0.0,0.0,0.0,0.0,0.0,0.0,0.0,0.0,0.0,0.0,0.0,0.0,0.0,0.0,0.0,0.0,0.0,0.0,0.0,0.0,0.0,0.0,0.0,0.0,0.0,0.0,0.0,0.0,0.0,0.0,0.0,0.0,0.0,0.0,0.0,0.0,0.0,0.0,0.0,0.0,0.0,0.0,0.0,0.0,0.0,0.0,0.0,0.0,0.0,0.0,0.0,0.0,0.0,0.0,0.0,0.0,0.0,0.0,0.0,0.0,0.0,0.0,0.0,0.0,0.0,0.0,0.0,0.0,0.0,0.0,0.0,0.0,0.0,0.0,0.0,0.0,0.0,0.0,0.0,0.0,0.0,0.0,0.0,0.0,0.0,0.0,0.0,0.0,0.0,0.0,0.0,0.0,0.0,0.0,0.0,0.0,0.0,0.0,0.0,0.0,0.0,0.0,0.0,0.0,0.0,0.0,0.0,0.0,0.0,0.0,0.0,0.0,0.0,0.0,0.0,0.0,0.0,0.0,0.0,0.0,0.0,0.0,0.0,0.0,0.0,0.0,0.0,0.0,0.0,0.0,0.0,0.0,0.0,0.0,0.0,0.0,0.0,0.0,0.0,0.0,0.0,0.0,0.0,0.0,0.0,0.0,0.0,0.0,0.0,0.0,0.0,0.0,0.0,0.0,0.0,0.0,0.0,0.0,0.0,0.0,0.0,0.0,0.0,0.0,0.0,0.0,0.0,0.0,0.0,0.0,0.0,0.0,0.0,0.0,0.0,0.0,0.0,0.0,0.0,0.0,0.0,0.0,0.0,0.0,0.0,0.0,0.0,0.0,0.0,0.0,0.0,0.0,0.0,0.0,0.0,0.0,0.0,0.0,0.0,0.0,0.0,0.0,0.0,0.0,0.0,0.0,0.0,0.0,0.0,0.0,0.0,0.0,0.0,0.0,0.0,0.0,0.0,0.0,0.0,0.0,0.0,0.0,0.0,0.0,0.0,0.0,0.0,0.0,0.0,0.0,0.0,0.0,0.0,0.0,0.0,0.0,0.0,0.0,0.0,0.0,0.0,0.0,0.0,0.0,0.0,0.0,0.0,0.0,0.0,0.0,0.0,0.0,0.0,0.0,0.0,0.0,0.0,0.0,0.0,0.0,0.0,0.0,0.0,0.0,0.0,0.0,0.0,0.0,0.0,0.0,0.0,0.0,0.0,0.0,0.0,0.0,0.0,0.0,0.0,0.0,0.0,0.0,0.0,0.0,0.0,0.0,0.0,0.0,0.0,0.0,0.0,0.0,0.0,0.0,0.0,0.0,0.0,0.0,0.0,0.0,0.0,0.0,0.0,0.0,0.0,0.0,0.0,0.0,0.0,0.0,0.0,0.0,0.0,0.0,0.0,0.0,0.0,0.0,0.0,0.0,0.0,0.0,0.0,0.0,0.0,0.0,0.0,0.0,0.0,0.0,0.0,0.0,0.0,0.0,0.0,0.0,0.0,0.0,0.0,0.0,0.0,0.0,0.0,0.0,0.0,0.0,0.0,0.0,0.0,0.0,0.0,0.0,0.0,0.0,0.0,0.0,0.0,0.0,0.0,0.0,0.0,0.0,0.0,0.0,0.0,0.0,0.0,0.0,0.0,0.0,0.0,0.0,0.0,0.0,0.0,0.0,0.0,0.0,0.0,0.0,0.0,0.0,0.0,0.0,0.0,0.0,0.0,0.0,0.0,0.0,0.0,0.0,0.0,0.0,0.0,0.0,0.0,0.0,0.0,0.0,0.0,0.0,0.0,0.0,0.0,0.0,0.0,0.0,0.0,0.0,0.0,0.0,0.0,0.0,0.0,0.0,0.0,0.0,0.0,0.0,0.0,0.0,0.0,0.0,0.0,0.0,0.0,0.0,0.0,0.0,0.0,0.0,0.0,0.0,0.0,0.0,0.0,0.0,0.0,0.0,0.0,0.0,0.0,0.0,0.0,0.0,0.0,0.0,0.0,0.0,0.0,0.0,0.0,0.0,0.0,0.0,0.0,0.0,0.0,0.0,0.0,0.0,0.0,0.0,0.0,0.0,0.0,0.0,0.0,0.0,0.0,0.0,0.0,0.0,0.0,0.0,0.0,0.0,0.0,0.0,0.0,0.0,0.0,0.0,0.0,0.0,0.0,0.0,0.0,0.0,0.0,0.0,0.0,0.0,0.0,0.0,0.0,0.0,0.0,0.0,0.0,0.0,0.0,0.0,0.0,0.0,0.0,0.0,0.0,0.0,0.0,0.0,0.0,0.0,0.0,0.0,0.0,0.0,0.0,0.0,0.0,0.0,0.0,0.0,0.0,0.0,0.0,0.0,0.0,0.0,0.0,0.0,0.0,0.0,0.0,0.0,0.0,0.0,0.0,0.0,0.0,0.0,0.0,0.0,0.0,0.0,0.0,0.0,0.0,0.0,0.0,0.0,0.0,0.0,0.0,0.0,0.0,0.0,0.0,0.0,0.0,0.0,0.0,0.0,0.0,0.0,0.0,0.0,0.0,0.0,0.0,0.0,0.0,0.0,0.0,0.0,0.0,0.0,0.0,0.0,0.0,0.0,0.0,0.0,0.0,0.0,0.0,0.0,0.0,0.0,0.0,0.0,0.0,0.0,0.0,0.0,0.0,0.0,0.0,0.0,0.0,0.0,0.0,0.0,0.0,0.0,0.0,0.0,0.0,0.0,0.0,0.0,0.0,0.0,0.0,0.0,0.0,0.0,0.0,0.0,0.0,0.0,0.0,0.0,0.0,0.0,0.0,0.0,0.0,0.0,0.0,0.0,0.0,0.0,0.0,0.0,0.0,0.0,0.0,0.0,0.0,0.0,0.0,0.0,0.0,0.0,0.0,0.0,0.0,0.0,0.0,0.0,0.0,0.0,0.0,0.0,0.0,0.0,0.0,0.0,0.0,0.0,0.0,0.0,0.0,0.0,0.0,0.0,0.0,0.0,0.0,0.0,0.0,0.0,0.0,0.0,0.0,0.0,0.0,0.0,0.0,0.0,0.0,0.0,0.0,0.0,0.0,0.0,0.0,0.0,0.0,0.0,0.0,0.0,0.0,0.0,0.0,0.0,0.0,0.0,0.0,0.0,0.0,0.0,0.0,0.0,0.0,0.0,0.0,0.0,0.0,0.0,0.0,0.0,0.0,0.0,0.0,0.0,0.0,0.0,0.0,0.0,0.0,0.0,0.0,0.0,0.0,0.0,0.0,0.0,0.0,0.0,0.0,0.0,0.0,0.0,0.0,0.0,0.0,0.0,0.0,0.0,0.0,0.0,0.0,0.0,0.0,0.0,0.0,0.0,0.0,0.0,0.0,0.0,0.0,0.0,0.0,0.0,0.0,0.0,0.0,0.0,0.0,0.0,0.0,0.0,0.0,0.0,0.0,0.0,0.0,0.0,0.0,0.0,0.0,0.0,0.0,0.0,0.0,0.0,0.0,0.0,0.0,0.0,0.0,0.0,0.0,0.0,0.0,0.0,0.0,0.0,0.0,0.0,0.0,0.0,0.0,0.0,0.0,0.0,0.0,0.0,0.0,0.0,0.0,0.0,0.0,0.0,0.0,0.0,0.0,0.0,0.0,0.0,0.0,0.0,0.0,0.0,-3.1692,0.0,0.0,0.0,0.0,0.0,0.0,0.0,0.0,0.0,0.0,0.0,0.0,0.0,0.0,0.0,0.0,0.0,0.0,0.0,0.0,0.0,0.0,0.0,0.0,-1.9473,-1.9995,-2.0676,-2.0803,-2.0888,-2.1007,0.0,0.0,0.0,0.0,0.0,-2.0685,-2.1034,-2.1366,-2.1676,-2.2758,-2.4027,-2.5475,-2.632,-2.6112,-2.5021,0.0,0.0,0.0,0.0,0.0,0.0,0.0,0.0,0.0,0.0,0.0,0.0,0.0,0.0,0.0,0.0,0.0,0.0,0.0,0.0,0.0,0.0,0.0,0.0,0.0,0.0,0.0,0.0,0.0,0.0,0.0,0.0,0.0,0.0,0.0,0.0,0.0,0.0,0.0,0.0,0.0,0.0,0.0,0.0,0.0,0.0,0.0,0.0,0.0,0.0,0.0,0.0,0.0,0.0,0.0,0.0,0.0,0.0,0.0,0.0,0.0,0.0,0.0,0.0,0.0,0.0,0.0,0.0,0.0,0.0,0.0,-3.1907,0.0,0.0,0.0,0.0,0.0,0.0,0.0,0.0,0.0,0.0,0.0,0.0,0.0,0.0,0.0,0.0,0.0,0.0,0.0,0.0,0.0,-1.8395,-1.9233,-1.9827,-2.0322,-2.0684,-2.0812,-2.0697,-2.0308,-2.0342,-2.0325,-2.0156,-1.9831,-1.9639,-1.9636,-1.9957,-2.0324,-2.0699,-2.2707,-2.4618,-2.6398,-2.7316,-2.6589,-2.4479,0.0,0.0,0.0,0.0,0.0,0.0,0.0,0.0,0.0,0.0,0.0,0.0,0.0,0.0,0.0,0.0,0.0,0.0,0.0,0.0,0.0,0.0,0.0,0.0,0.0,0.0,0.0,0.0,0.0,0.0,0.0,0.0,0.0,0.0,0.0,0.0,0.0,0.0,0.0,0.0,0.0,0.0,0.0,0.0,0.0,0.0,0.0,0.0,0.0,0.0,0.0,0.0,0.0,0.0,0.0,0.0,0.0,0.0,0.0,0.0,0.0,0.0,0.0,0.0,-3.7998,-3.797,-3.7123,-3.7227,-3.7082,-3.6767,-3.6046,-3.4601,-3.2671,0.0,0.0,0.0,0.0,0.0,0.0,0.0,0.0,0.0,0.0,0.0,0.0,0.0,0.0,0.0,0.0,0.0,0.0,0.0,0.0,-1.6916,-1.8462,-1.8515,-1.8856,-1.9949,-1.9743,-1.9507,-1.9391,-1.921,-1.914,-1.9185,-1.8873,-1.8646,-1.8598,-1.8655,-1.9222,-2.0372,-2.3102,-2.4696,-2.5164,-2.6031,-2.611,-2.5564,-2.686,0.0,0.0,0.0,0.0,0.0,0.0,0.0,0.0,0.0,0.0,0.0,0.0,0.0,0.0,0.0,0.0,0.0,0.0,0.0,0.0,0.0,0.0,0.0,0.0,0.0,0.0,0.0,0.0,0.0,0.0,0.0,0.0,0.0,0.0,0.0,0.0,0.0,0.0,0.0,0.0,0.0,0.0,0.0,-3.3632,-3.3846,0.0,0.0,0.0,0.0,0.0,0.0,0.0,0.0,0.0,0.0,0.0,0.0,0.0,-3.9921,-4.0682,-4.1496,-4.1784,-4.1566,-4.2449,-4.2401,-4.1581,-4.2332,-4.1852,-4.0415,-4.0292,0.0,-3.5279,-3.3699,0.0,0.0,0.0,0.0,0.0,0.0,0.0,0.0,0.0,0.0,0.0,0.0,0.0,0.0,0.0,0.0,0.0,0.0,0.0,0.0,0.0,-1.8286,-1.8749,-1.9559,-1.9792,-1.9706,-1.9185,-1.8984,-1.8731,-1.8347,-1.7826,-1.7578,-1.7605,-1.7707,-1.8827,-2.096,-2.2904,-2.4411,-2.55,-2.6844,-2.7463,-2.7404,-2.8268,-2.8038,-2.7052,-2.7046,0.0,0.0,0.0,0.0,0.0,0.0,0.0,0.0,0.0,0.0,0.0,0.0,0.0,0.0,0.0,0.0,0.0,0.0,0.0,0.0,0.0,0.0,0.0,0.0,0.0,0.0,0.0,0.0,0.0,0.0,0.0,0.0,0.0,0.0,0.0,0.0,0.0,0.0,0.0,-3.3287,-3.4549,-3.4836,-3.4931,-3.4839,0.0,0.0,0.0,0.0,0.0,0.0,0.0,0.0,0.0,-4.1253,-4.1318,-4.1715,-4.2597,-4.2948,-4.3121,-4.3139,-4.3518,-4.3492,-4.3121,-4.3029,-4.2546,-4.1793,-4.1312,-4.0231,-3.8653,-3.6444,-3.4467,-3.2675,0.0,0.0,0.0,0.0,-2.8039,-2.8386,0.0,0.0,0.0,0.0,0.0,0.0,0.0,0.0,0.0,0.0,0.0,0.0,-1.7553,-1.8193,-1.8777,-1.9343,-1.9578,-1.9458,-1.8857,-1.8356,-1.7935,-1.7612,-1.6824,-1.6587,-1.7021,-1.7412,-1.8798,-2.1193,-2.2494,-2.3963,-2.5606,-2.7284,-2.8222,-2.8521,-2.9119,-2.8457,-2.6903,-2.7415,-2.7301,0.0,0.0,0.0,0.0,0.0,0.0,0.0,0.0,0.0,0.0,0.0,0.0,0.0,0.0,0.0,0.0,0.0,0.0,0.0,0.0,0.0,0.0,0.0,0.0,0.0,0.0,0.0,0.0,0.0,0.0,0.0,0.0,0.0,0.0,0.0,0.0,0.0,0.0,-3.4538,-3.593,-3.6006,-3.6607,-3.6668,0.0,0.0,0.0,0.0,0.0,0.0,-4.0357,-4.0432,-4.1257,-4.3019,-4.3066,-4.3485,-4.4353,-4.4375,-4.4375,-4.4374,-4.4368,-4.4129,-4.3698,-4.3259,-4.2699,-4.2043,-4.163,-4.1302,-4.0908,-3.8512,-3.6421,-3.4597,-3.3518,-3.2207,-3.0797,-2.9938,-3.0012,-3.0452,0.0,0.0,0.0,0.0,0.0,0.0,0.0,0.0,0.0,0.0,0.0,-1.6341,-1.7484,-1.7921,-1.8455,-1.9244,-1.841,-1.7889,-1.8048,-1.6675,-1.6201,-1.7018,-1.5903,-1.5838,-1.7062,-1.8049,-1.9122,-2.0364,-2.1873,-2.3343,-2.4701,-2.6203,-2.7258,-2.7996,-2.9375,-2.9709,-2.9155,-2.7713,-2.7189,-2.719,0.0,0.0,0.0,0.0,0.0,0.0,0.0,0.0,0.0,0.0,0.0,0.0,0.0,0.0,0.0,0.0,0.0,0.0,0.0,0.0,0.0,0.0,0.0,0.0,0.0,0.0,0.0,0.0,0.0,0.0,0.0,0.0,0.0,0.0,0.0,0.0,0.0,0.0,0.0,-3.7742,-3.9876,0.0,0.0,0.0,0.0,-3.9452,-4.0276,-4.1217,-4.2139,-4.2172,-4.2992,-4.4815,-4.4875,-4.5293,-4.6165,-4.6171,-4.6172,-4.6172,-4.6168,-4.5305,-4.3723,-4.4504,-4.3503,-4.1205,-4.1986,-4.1857,-4.0957,-3.9172,-3.8358,-3.8081,-3.6434,-3.5248,-3.4334,-3.3456,-3.318,-3.3073,0.0,0.0,0.0,0.0,0.0,-1.2883,-1.3216,-1.4074,-1.4898,-1.5475,-1.6021,-1.6617,-1.7318,-1.8017,-1.8539,-1.8814,-1.8966,-1.8903,-1.8549,-1.7923,-1.759,-1.7634,-1.6291,-1.5791,-1.6378,-1.7506,-1.8817,-2.0294,-2.1238,-2.2573,-2.4253,-2.5781,-2.6955,-2.7892,-2.9163,-2.9462,-2.9013,-2.9039,-2.8439,-2.7457,-2.6846,-2.6191,0.0,0.0,0.0,0.0,0.0,0.0,0.0,0.0,0.0,0.0,0.0,0.0,0.0,0.0,0.0,0.0,0.0,0.0,0.0,0.0,0.0,0.0,0.0,0.0,0.0,0.0,0.0,0.0,0.0,0.0,0.0,0.0,0.0,0.0,0.0,0.0,0.0,-3.9366,-4.07,0.0,-4.1022,-4.131,-4.1422,-4.1219,-4.2073,-4.2995,-4.3862,-4.3953,-4.4536,-4.5738,-4.5767,-4.5943,-4.6296,-4.6296,-4.6301,-4.6306,-4.6308,-4.5683,-4.453,-4.4273,-4.3349,-4.1917,-4.1662,-4.1399,-4.1048,-4.0426,-3.9845,-3.9224,-3.8058,-3.7092,-3.6203,-3.4763,-3.4236,-3.4114,0.0,0.0,0.0,0.0,0.0,-1.334,-1.3452,-1.4229,-1.4992,-1.5556,-1.6185,-1.6756,-1.7293,-1.812,-1.8662,-1.8662,-1.9078,-1.9095,-1.8487,-1.8203,-1.7812,-1.7278,-1.6327,-1.6035,-1.6502,-1.739,-1.8581,-2.0055,-2.0757,-2.1855,-2.3382,-2.5262,-2.6532,-2.7216,-2.8878,-2.9306,-2.8826,-2.9298,-2.8783,-2.767,-2.7358,-2.6842,-2.6152,0.0,0.0,0.0,0.0,0.0,0.0,0.0,0.0,0.0,0.0,0.0,0.0,0.0,0.0,0.0,0.0,0.0,0.0,0.0,0.0,0.0,0.0,0.0,0.0,0.0,0.0,0.0,0.0,0.0,0.0,0.0,0.0,0.0,0.0,0.0,-4.0403,-4.0487,-4.1866,-4.2651,-4.2228,-4.2807,-4.3108,-4.2968,-4.3813,-4.4598,-4.5201,-4.5274,-4.5588,-4.6177,-4.6192,-4.6216,-4.6261,-4.628,-4.6306,-4.6296,-4.5993,-4.541,-4.4531,-4.3652,-4.2789,-4.1924,-4.1358,-4.1098,-4.1103,-4.1092,-4.0758,-4.0175,-3.9603,-3.905,-3.8405,-3.6968,-3.6423,-3.6284,0.0,0.0,0.0,0.0,0.0,-1.3983,-1.4168,-1.3879,-1.3996,-1.4985,-1.5928,-1.6726,-1.7347,-1.8225,-1.8771,-1.8798,-1.857,-1.8251,-1.7872,-1.7331,-1.6642,-1.5818,-1.5939,-1.6462,-1.742,-1.7816,-1.8501,-1.9562,-2.043,-2.1268,-2.2043,-2.4646,-2.5844,-2.5985,-2.8452,-2.923,-2.8707,-2.8417,-2.8111,-2.7862,-2.7726,-2.7792,-2.7796,0.0,0.0,0.0,0.0,0.0,0.0,0.0,0.0,0.0,0.0,0.0,0.0,0.0,0.0,0.0,0.0,0.0,0.0,0.0,0.0,0.0,0.0,0.0,0.0,0.0,0.0,0.0,0.0,0.0,0.0,0.0,0.0,0.0,-3.7155,-3.9416,-4.1169,-4.1166,-4.3558,-4.4648,-4.3205,-4.4661,-4.5399,-4.4699,-4.5471,-4.6039,-4.609,-4.6104,-4.6134,-4.6196,-4.6196,-4.6192,-4.6206,-4.6251,-4.628,-4.6241,-4.5397,-4.4526,-4.3631,-4.2791,-4.1914,-4.1092,-4.1092,-4.1108,-4.1099,-4.1093,-4.1104,-4.1094,-4.11,-4.1097,-4.0982,-4.0129,-3.9838,-3.9603,0.0,0.0,0.0,-1.3586,-1.4224,-1.4566,-1.444,-1.4447,-1.4728,-1.5431,-1.6051,-1.6674,-1.7415,-1.7965,-1.8356,-1.8503,-1.8708,-1.8829,-1.8812,-1.8052,-1.6926,-1.5436,-1.6018,-1.6333,-1.629,-1.7269,-1.8188,-1.9031,-1.9791,-2.068,-2.1756,-2.3675,-2.484,-2.5326,-2.7222,-2.7716,-2.7103,-2.7802,-2.7821,-2.738,-2.7309,-2.7742,-2.8381,0.0,0.0,0.0,0.0,0.0,0.0,0.0,0.0,0.0,0.0,0.0,0.0,0.0,0.0,0.0,0.0,0.0,0.0,0.0,0.0,0.0,0.0,0.0,0.0,0.0,0.0,0.0,0.0,0.0,0.0,0.0,0.0,-3.8397,-3.8382,-4.0896,-4.268,-4.2423,-4.4025,-4.5004,-4.47,-4.5216,-4.553,-4.5474,-4.5751,-4.5944,-4.5947,-4.6052,-4.6111,-4.6138,-4.6176,-4.62,-4.6206,-4.6226,-4.5921,-4.5352,-4.5111,-4.4202,-4.2745,-4.2514,-4.191,-4.1092,-4.1093,-4.1094,-4.1092,-4.1102,-4.1093,-4.1106,-4.1095,-4.1095,-4.0999,-4.0176,-3.9472,-3.871,0.0,0.0,0.0,-1.4091,-1.4448,-1.4647,-1.4403,-1.4366,-1.4583,-1.5138,-1.5638,-1.6229,-1.6879,-1.755,-1.7975,-1.8096,-1.8598,-1.8641,-1.7946,-1.6867,-1.6077,-1.5623,-1.5762,-1.5894,-1.5996,-1.7238,-1.812,-1.8654,-1.9965,-2.0886,-2.1468,-2.3532,-2.4604,-2.4793,-2.6736,-2.7263,-2.6688,-2.7384,-2.767,-2.7624,-2.7432,-2.8116,-2.9173,-2.8627,-2.8281,-2.8096,-2.8125,-2.7831,-2.7576,-2.8373,0.0,0.0,0.0,0.0,0.0,0.0,0.0,0.0,0.0,0.0,0.0,0.0,0.0,0.0,0.0,0.0,0.0,0.0,0.0,0.0,0.0,0.0,0.0,0.0,-3.8409,-3.9438,-3.9735,-4.1561,-4.2957,-4.3282,-4.4199,-4.4927,-4.5222,-4.541,-4.5584,-4.5773,-4.5845,-4.588,-4.5905,-4.6002,-4.6075,-4.6102,-4.6142,-4.6173,-4.6209,-4.62,-4.5777,-4.4941,-4.4623,-4.3738,-4.2384,-4.2018,-4.1572,0.0,-4.1109,-4.1092,-4.1093,-4.1092,-4.1105,0.0,0.0,0.0,0.0,0.0,-3.9863,-3.8945,0.0,0.0,0.0,-1.4462,-1.4339,-1.4283,-1.4048,-1.3752,-1.3762,-1.4302,-1.4876,-1.5468,-1.6046,-1.7,-1.7617,-1.7601,-1.8193,-1.7786,-1.6054,-1.4792,-1.4696,-1.5933,-1.535,-1.5437,-1.6395,-1.7623,-1.8381,-1.8718,-2.0663,-2.1501,-2.1397,-2.3835,-2.4723,-2.4394,-2.6582,-2.7276,-2.6837,-2.704,-2.7464,-2.8059,-2.7835,-2.8661,-2.9993,-2.9942,-2.9842,-2.9723,-2.944,-2.8994,-2.8682,-2.943,0.0,0.0,0.0,0.0,0.0,0.0,0.0,0.0,0.0,0.0,0.0,0.0,0.0,0.0,0.0,0.0,0.0,0.0,0.0,0.0,0.0,0.0,0.0,0.0,-3.986,-4.0653,-4.1094,-4.1705,-4.2542,-4.3688,-4.4167,-4.46,-4.5137,-4.5371,-4.5566,-4.5758,-4.5791,-4.5821,-4.5886,0.0,0.0,0.0,0.0,-4.613,-4.6189,-4.6095,-4.5618,-4.4737,-4.3933,-4.3092,-4.2215,-4.136,-4.0959,-4.0949,-4.0969,-4.0952,-4.0974,-4.1054,-4.1093,-4.1105,-4.1095,-4.1095,-4.1097,-4.0991,-4.0508,-3.9765,0.0,0.0,0.0,-1.4232,-1.3716,-1.3317,-1.2957,-1.2457,-1.2454,-1.3408,-1.3968,-1.46,-1.5471,-1.6509,-1.7078,-1.6976,-1.6961,-1.6374,-1.4976,-1.4565,-1.4447,-1.4755,-1.5315,-1.6078,-1.7081,-1.8396,-1.939,-2.001,-2.1099,-2.1781,-2.2196,-2.3582,-2.4255,-2.436,-2.5501,-2.5978,-2.5873,-2.6245,-2.6555,-2.6858,-2.7624,-2.8823,-3.0231,-3.0902,-3.1002,-3.0913,-3.17,-3.147,-3.0837,-3.1333,-3.0968,-3.0221,-2.9801,0.0,0.0,0.0,0.0,0.0,0.0,0.0,0.0,0.0,0.0,0.0,0.0,0.0,0.0,0.0,0.0,0.0,0.0,0.0,0.0,-3.902,-3.9969,-4.0831,-4.1836,-4.2187,-4.2591,-4.3263,-4.3927,-4.4503,-4.4995,-4.527,-4.5466,-4.562,-4.5684,-4.5754,-4.5817,-4.588,-4.5929,-4.5935,-4.6032,-4.611,-4.6119,-4.5417,-4.4659,-4.3837,0.0,0.0,-4.1323,-4.0444,-4.0044,-4.0047,-4.0101,-4.0126,-4.0187,-4.0837,-4.1094,-4.1106,-4.1091,-4.11,-4.1014,-4.0368,-4.0037,-3.9668,0.0,0.0,0.0,-1.4305,-1.3647,-1.3194,-1.2861,-1.2384,-1.2187,-1.2598,-1.3157,-1.3729,-1.4145,-1.5262,-1.5949,-1.5942,-1.5211,-1.4771,-1.4802,-1.398,-1.3792,-1.4452,-1.5352,-1.6202,-1.7068,-1.8577,-1.9711,-2.0404,-2.1789,-2.267,-2.3133,-2.4096,-2.4683,-2.4986,-2.5496,-2.5793,-2.5945,-2.6408,-2.6705,-2.6905,-2.763,-2.8669,-2.9909,-3.0517,-3.0848,-3.1044,-3.1613,-3.1532,-3.1199,-3.1803,-3.1639,-3.1169,-3.1132,-3.0485,-2.9613,0.0,0.0,0.0,0.0,0.0,0.0,0.0,0.0,0.0,0.0,0.0,0.0,0.0,0.0,-3.4218,-3.5609,0.0,-3.8162,-4.0005,-4.0618,-4.1156,-4.2035,-4.2254,-4.2541,-4.3212,-4.3822,-4.4387,-4.4907,-4.5194,-4.541,-4.5586,-4.5637,-4.5687,-4.575,-4.5812,-4.5841,-4.5861,-4.596,-4.6025,-4.606,-4.5653,-4.4816,-4.354,-4.3144,-4.2273,-4.1045,-4.0638,-4.0454,-4.0459,-4.0491,-4.0496,-4.0498,-4.046,-4.0468,-4.0503,-4.0494,-4.0752,-4.1053,-4.0654,-3.9976,-3.9121,0.0,0.0,0.0,-1.4331,-1.3716,-1.326,-1.2933,-1.2406,-1.1999,-1.1902,-1.2389,-1.2713,-1.2695,-1.3793,-1.4527,-1.4476,-1.3461,-1.3252,-1.4292,-1.3275,-1.318,-1.4506,-1.5478,-1.636,-1.7241,-1.8805,-1.9991,-2.0781,-2.2506,-2.3548,-2.3945,-2.4779,-2.5324,-2.5688,-2.5875,-2.6084,-2.6339,-2.6807,-2.7134,-2.7436,-2.7723,-2.8464,-2.9403,-2.9698,-3.0244,-3.0892,-3.1197,-3.1111,-3.1059,-3.1943,-3.1916,-3.1608,-3.2088,-3.1886,-3.125,-3.0066,-2.9238,0.0,0.0,0.0,0.0,0.0,0.0,0.0,0.0,0.0,-3.1788,-3.2468,-3.3423,-3.4771,-3.6648,-3.7628,-3.8778,-4.0706,-4.11,-4.1373,-4.1984,-4.2236,-4.2619,-4.3389,-4.3831,-4.428,-4.4821,-4.5114,-4.535,-4.5523,-4.555,-4.5575,-4.5632,-4.5727,-4.5765,-4.5757,-4.5841,-4.5918,-4.5968,-4.57,-4.4871,-4.3476,-4.3229,-4.2362,-4.0997,-4.0886,-4.0844,-4.0833,-4.0662,-4.0781,-4.1037,-4.0158,-3.9939,-4.0136,-4.013,-4.0439,-4.089,-4.1035,-4.0146,-3.8807,0.0,0.0,0.0,0.0,0.0,-1.3047,-1.2531,-1.1471,-1.0913,-1.1484,-1.1468,-1.1456,-1.1575,-1.2575,-1.2949,-1.2304,-1.2183,-1.2117,-1.2158,-1.2459,-1.3135,-1.4374,-1.5828,-1.7234,-1.8559,-1.9775,-2.0964,-2.2168,-2.311,-2.3875,-2.4445,-2.5016,-2.55,-2.5875,-2.6097,-2.6327,-2.6658,-2.6918,-2.7276,-2.7756,-2.7908,-2.8327,-2.8899,-2.9099,-2.9998,-3.1165,-3.2048,-3.1896,-3.1512,-3.2673,-3.2244,-3.1442,-3.2687,-3.1946,-3.0481,-2.9756,0.0,-2.8263,-2.7047,-2.6878,-2.7426,-2.8977,-2.9901,-3.0754,0.0,0.0,-3.3309,-3.301,-3.4514,-3.6148,-3.6853,-3.7959,-3.9076,-4.0153,-4.0707,-4.1253,-4.1913,-4.2541,-4.3123,-4.3703,-4.3902,-4.4198,-4.468,-4.5014,-4.5254,-4.5338,-4.539,-4.5429,-4.5438,-4.5549,-4.562,-4.562,-4.5743,-4.5805,-4.5821,-4.4414,-4.3602,-4.3396,-4.198,-4.1189,-4.098,-4.0273,-3.9944,-3.9908,-3.9136,-3.9672,-4.1037,-4.0168,-4.0262,-4.0974,-4.0976,-4.058,-4.0124,-4.0839,-4.0486,-3.955,0.0,0.0,0.0,0.0,0.0,-1.2729,-1.2139,-1.1949,-1.1731,-1.1282,-1.1875,-1.2093,-1.135,-1.1412,-1.1467,-1.1384,-1.0841,-1.0887,-1.1809,-1.2484,-1.3413,-1.4695,-1.6519,-1.7842,-1.85,-2.0064,-2.1293,-2.2113,-2.324,-2.4105,-2.4778,-2.5135,-2.5594,-2.606,-2.6141,-2.6474,-2.7007,-2.741,-2.7894,-2.8417,-2.8771,-2.9107,-2.9404,-2.9605,-3.0086,-3.0665,-3.1008,-3.1113,0.0,0.0,-3.1707,-3.1468,-3.2328,-3.2209,-3.1585,-3.0785,-3.0266,0.0,-2.8318,-2.8774,0.0,0.0,-3.1407,-3.2482,-3.3393,-3.3898,-3.4233,-3.4511,-3.5595,-3.6676,-3.7284,-3.816,-3.9071,0.0,-4.0521,-4.1202,-4.2098,-4.2599,-4.3105,-4.3719,-4.35,-4.3658,-4.4549,-4.487,-4.5091,-4.5224,-4.5339,-4.539,-4.54,-4.5495,-4.5568,-4.5594,-4.5695,-4.5507,-4.4993,-4.4395,-4.3607,-4.2637,-4.2,-4.1431,-4.0926,-4.063,-4.022,-3.9714,-3.9361,-3.9068,-3.8792,-3.8443,-3.88,-3.9582,-3.9628,-3.9725,-3.9873,-4.0228,-3.9507,-3.8286,0.0,0.0,0.0,0.0,0.0,-1.3135,-1.2669,-1.2592,-1.2293,-1.1441,-1.2242,-1.2485,-1.1387,-1.0474,-1.0112,-1.0503,-0.9843,-1.0026,-1.154,-1.2674,-1.3834,-1.5085,-1.7104,-1.8444,-1.8914,-2.041,-2.1495,-2.216,-2.3209,-2.4142,-2.4873,-2.5223,-2.5726,-2.6336,-2.6405,-2.6803,-2.7464,-2.7894,-2.8449,-2.9058,-2.967,-3.0009,-3.0192,-3.0328,-3.0273,-3.0128,-3.0021,-3.0224,0.0,0.0,-3.1155,-3.1199,-3.1967,-3.2271,-3.2166,-3.1252,-3.0882,-3.0555,-2.9422,0.0,0.0,-3.168,-3.274,-3.3878,-3.4483,-3.4741,-3.5003,-3.5548,-3.6195,-3.6846,-3.7449,-3.816,-3.8925,-3.9645,-4.0407,-4.1185,-4.2074,-4.2617,-4.3105,-4.3652,-4.3127,-4.3096,-4.4041,-4.4366,-4.4661,-4.5061,-4.5224,-4.5319,-4.5341,-4.541,-4.5486,-4.5531,-4.561,-4.5236,-4.4403,-4.4283,-4.3486,-4.206,-4.19,-4.1495,-4.0898,-4.0714,-4.0307,-3.9669,-3.9206,-3.8465,-3.7539,-3.73,-3.7704,-3.8499,-3.8549,-3.8789,-3.9116,-3.9101,-3.8474,-3.7581,0.0,0.0,0.0,0.0,0.0,-1.4696,-1.461,-1.3025,-1.1922,-1.2125,-1.2156,-1.1939,-1.1443,-0.9885,-0.8989,-0.932,-0.938,-0.9837,-1.0855,-1.2837,-1.4429,-1.5459,-1.741,-1.9116,-2.0414,-2.0861,-2.1666,-2.2752,-2.3203,-2.379,-2.4542,-2.5243,-2.598,-2.6679,-2.6875,-2.7335,-2.8006,-2.8189,-2.8785,-2.9634,-3.0375,-3.0852,-3.1131,-3.1014,-3.0499,-2.9812,-2.9668,0.0,0.0,0.0,-3.0827,-3.0479,-3.1857,-3.2041,0.0,-3.0446,-3.0188,-3.0148,0.0,0.0,-3.2159,-3.2558,-3.3526,-3.4499,-3.5049,-3.5415,-3.564,-3.5522,-3.6035,-3.6662,-3.7134,-3.7873,-3.86,-3.9125,-4.0258,-4.1241,-4.1648,-4.2557,-4.3268,-4.3479,-4.2914,-4.2625,0.0,-4.3321,-4.3914,-4.4739,-4.501,-4.5136,-4.5203,-4.5275,-4.5339,-4.541,-4.5457,-4.5145,-4.441,-4.3639,-4.282,-4.199,-4.1205,-4.0862,-4.0868,-4.0086,-3.9731,-3.961,-3.7983,-3.7721,-3.84,-3.7559,-3.77,-3.8508,-3.8498,-3.8044,-3.7383,-3.7378,-3.7831,-3.835,0.0,0.0,0.0,0.0,0.0,0.0,-1.6024,-1.487,-1.3611,-1.277,-1.2759,0.0,0.0,0.0,0.0,0.0,-1.0107,-1.0191,-1.1288,-1.3146,-1.4639,-1.5671,-1.829,-1.9792,-2.0037,-2.1352,-2.216,-2.2401,-2.3081,-2.3642,-2.418,-2.4521,-2.5048,-2.5773,-2.5838,-2.6582,-2.7836,-2.8201,-2.9245,-3.0704,-3.1275,-3.1734,-3.1998,-3.1222,-3.06,-2.9965,0.0,0.0,0.0,-2.9372,-2.9803,-3.0173,-3.0842,-3.125,-3.1503,-3.1485,-3.1637,-3.1827,-3.1975,0.0,-3.4465,-3.4328,-3.5042,-3.5723,-3.5523,-3.5937,-3.626,-3.5967,-3.6236,-3.6695,-3.7109,-3.7752,-3.8335,-3.8735,-4.0179,-4.1348,-4.1666,-4.2534,-4.3233,-4.3529,-4.2929,0.0,0.0,0.0,0.0,-4.3888,-4.458,-4.5045,-4.5192,-4.5256,-4.535,-4.5448,-4.5495,-4.4876,-4.3554,-4.3277,-4.2454,-4.1126,-4.0918,-4.053,-4.0034,-3.9762,-3.9023,-3.7937,-3.7378,-3.7008,-3.6748,-3.6463,-3.6846,-3.7648,-3.7645,-3.7509,-3.7304,-3.7304,-3.7101,-3.6794,0.0,0.0,0.0,0.0,0.0,0.0,0.0,0.0,0.0,0.0,0.0,0.0,0.0,0.0,0.0,0.0,0.0,-1.1055,-1.2362,-1.3939,-1.5263,-1.6286,-1.8778,-2.0186,-2.0311,-2.1492,-2.2154,-2.212,-2.2846,-2.3527,-2.4073,-2.4482,-2.5306,-2.6432,-2.6384,-2.7149,-2.8536,-2.9028,-2.9913,-3.1091,-3.1816,-3.1995,-3.1737,-3.1133,-3.0316,0.0,0.0,0.0,0.0,-2.8622,-2.9452,-3.0206,-3.0831,-3.1517,-3.2176,-3.2635,-3.3205,-3.3714,-3.3933,-3.5101,-3.6158,-3.5628,-3.6155,-3.666,-3.5929,-3.6191,-3.6405,-3.5878,-3.608,-3.6462,-3.6777,-3.7537,-3.8242,-3.8631,-4.0161,-4.1383,-4.1731,-4.2456,-4.3068,-4.3409,-4.2881,-4.2717,0.0,0.0,0.0,-4.3809,-4.4178,-4.4616,-4.5129,-4.4936,-4.4869,-4.5025,-4.5035,-4.4264,-4.2645,-4.266,-4.2013,-4.07,-4.0739,-4.0347,-3.9543,-3.9267,-3.8394,-3.7072,-3.6774,-3.6355,-3.5901,-3.5908,-3.6234,-3.6742,-3.6752,-3.6797,-3.6833,-3.6835,-3.6484,-3.6008,0.0,0.0,0.0,0.0,0.0,0.0,0.0,0.0,0.0,0.0,0.0,0.0,0.0,0.0,0.0,0.0,0.0,0.0,-1.3972,-1.5221,-1.6345,-1.7324,-1.8956,-2.0259,-2.1212,-2.142,-2.1707,-2.205,-2.2648,-2.3378,-2.4189,-2.5108,-2.655,-2.8302,-2.8205,-2.8756,-2.9852,-3.0327,-3.0543,-3.0714,-3.1888,-3.1638,-3.058,-3.074,0.0,0.0,0.0,0.0,0.0,-2.8621,-2.9743,-3.0535,-3.1903,-3.2816,-3.346,-3.3862,-3.4781,-3.566,-3.5566,-3.6436,-3.7189,-3.6495,-3.6866,-3.7164,-3.634,-3.6224,-3.6105,-3.5366,-3.5584,-3.5964,0.0,0.0,-3.8252,-3.8771,-4.0167,-4.1351,-4.1817,-4.2374,-4.2843,0.0,0.0,0.0,0.0,0.0,0.0,-4.4416,0.0,-4.4001,-4.5042,-4.4349,-4.4039,-4.425,-4.4231,-4.3452,-4.1885,-4.1836,-4.1453,-4.0694,-4.0694,-4.0287,-3.9489,-3.8665,-3.786,-3.705,-3.6176,-3.5838,-3.5901,-3.5898,-3.5906,-3.5912,-3.5979,-3.6007,-3.6009,-3.6005,-3.5993,-3.5995,0.0,0.0,0.0,0.0,0.0,0.0,0.0,0.0,0.0,0.0,0.0,0.0,0.0,0.0,0.0,0.0,0.0,0.0,-1.4946,-1.6284,-1.7428,-1.8231,-1.9592,-2.0704,-2.1561,-2.1927,-2.2368,-2.2882,-2.3294,-2.3627,-2.3908,-2.4486,-2.5153,-2.5839,-2.6056,-2.6608,-2.7412,-2.7829,-2.8628,-2.9641,0.0,-3.0248,-3.0107,0.0,0.0,0.0,0.0,0.0,0.0,0.0,-2.9565,-3.1914,-3.3588,-3.4378,-3.4859,-3.5943,-3.6397,-3.6682,-3.714,-3.7741,-3.8223,-3.7979,-3.7581,-3.7173,-3.6835,-3.6635,-3.6366,-3.5782,-3.5815,-3.6017,0.0,0.0,0.0,-3.8135,-3.9763,0.0,-4.1543,-4.253,0.0,-4.3269,0.0,-4.395,-4.3573,-4.3582,0.0,0.0,-4.42,-4.4312,-4.4858,-4.473,-4.4756,-4.5013,-4.4499,-4.3721,-4.2699,-4.1512,-4.0822,-4.0628,-4.0681,-4.0294,-3.955,-3.8694,-3.7851,-3.7053,-3.6187,-3.5846,-3.5901,-3.5905,-3.5922,-3.5979,-3.5946,-3.5964,-3.5991,-3.5949,-3.5956,-3.6007,0.0,0.0,0.0,0.0,0.0,0.0,0.0,0.0,0.0,0.0,0.0,0.0,0.0,0.0,0.0,0.0,0.0,0.0,0.0,-1.8123,-1.8835,-1.9441,-2.0211,-2.1079,-2.2077,-2.2294,-2.2807,-2.3632,-2.397,-2.4305,-2.4629,-2.4978,-2.5568,-2.6324,-2.6433,-2.6869,-2.7533,-2.7975,0.0,0.0,0.0,0.0,0.0,0.0,0.0,0.0,0.0,0.0,0.0,0.0,0.0,-3.3404,-3.4872,-3.5717,-3.6332,-3.7228,0.0,-3.8041,-3.8474,-3.8629,-3.8678,-3.8634,-3.7997,-3.7291,-3.699,-3.6636,-3.6224,-3.5612,-3.5601,0.0,-3.5735,0.0,0.0,0.0,0.0,0.0,-4.1796,-4.2504,-4.3021,0.0,-4.3741,0.0,-4.3872,-4.3883,-4.3976,0.0,-4.3901,-4.4032,-4.4713,-4.4474,-4.4463,-4.4713,-4.4384,-4.3645,-4.2486,-4.1574,-4.0954,-4.0595,-4.0647,-4.0269,-3.9544,-3.9076,-3.8423,-3.7573,0.0,-3.6616,-3.6933,-3.621,-3.6142,-3.6484,-3.6104,-3.5964,-3.6004,-3.5958,-3.5731,-3.5433,0.0,0.0,0.0,0.0,0.0,0.0,0.0,0.0,0.0,0.0,-2.0101,-2.084,0.0,0.0,0.0,0.0,0.0,0.0,0.0,0.0,0.0,-2.0782,-2.0894,-2.1518,-2.2748,-2.272,-2.3236,-2.4409,-2.4761,-2.5217,0.0,0.0,0.0,0.0,0.0,0.0,0.0,0.0,0.0,0.0,0.0,0.0,0.0,0.0,0.0,0.0,0.0,0.0,0.0,0.0,-3.2691,-3.4723,-3.5739,-3.6783,-3.7693,-3.8058,-3.8652,-3.9245,-3.9379,-3.9148,-3.8832,-3.8898,-3.8257,-3.7512,-3.7118,-3.643,-3.5752,-3.5275,0.0,-3.522,-3.5321,-3.6812,-3.8151,-3.852,0.0,-4.1481,-4.2148,-4.2399,-4.2699,-4.3142,-4.3359,-4.3537,-4.3771,-4.3851,-4.3913,-4.3989,-4.3491,-4.3601,-4.4608,-4.4071,-4.3821,-4.4006,-4.402,-4.3317,-4.1808,-4.17,-4.1278,-4.0595,-4.0595,-4.0262,-3.9663,-3.9627,-3.9194,-3.8437,-3.7638,0.0,-3.8116,-3.6673,-3.6443,-3.6962,-3.6267,-3.5992,-3.5986,-3.5988,-3.5513,-3.4868,0.0,0.0,0.0,0.0,0.0,0.0,0.0,0.0,0.0,0.0,-2.1288,-2.2037,0.0,0.0,0.0,0.0,0.0,0.0,0.0,0.0,0.0,0.0,-2.1728,-2.2294,-2.3737,-2.3687,-2.4278,0.0,0.0,0.0,0.0,0.0,0.0,0.0,0.0,0.0,0.0,0.0,0.0,0.0,0.0,0.0,0.0,0.0,0.0,0.0,0.0,0.0,0.0,0.0,-3.3428,-3.509,-3.6107,-3.7254,-3.8337,-3.8912,-3.8903,-3.8782,-3.9013,-3.9023,-3.905,-3.9391,-3.8606,-3.7829,-3.8074,-3.6395,0.0,0.0,-3.5043,-3.4829,-3.5453,-3.6666,-3.7782,-3.8344,0.0,0.0,0.0,0.0,-4.3151,0.0,0.0,0.0,0.0,0.0,0.0,0.0,0.0,-4.4121,-4.444,-4.4447,-4.4328,-4.4086,-4.3465,-4.2694,-4.1808,-4.1085,-4.0688,-4.0595,-4.0595,-4.0585,-4.0549,-3.989,-3.9553,-3.9407,-3.8544,0.0,-3.7315,-3.707,-3.6646,-3.6102,-3.5967,-3.5916,-3.5916,-3.5921,-3.5862,-3.5674,0.0,0.0,0.0,0.0,0.0,0.0,0.0,-1.9912,-2.094,-2.2512,-2.3219,-2.3374,-2.2927,-2.2662,-2.2488,0.0,0.0,0.0,0.0,0.0,0.0,0.0,0.0,0.0,0.0,0.0,0.0,0.0,0.0,0.0,0.0,0.0,0.0,0.0,0.0,0.0,0.0,0.0,0.0,0.0,0.0,0.0,0.0,0.0,0.0,0.0,0.0,0.0,0.0,0.0,-3.364,-3.5325,-3.661,-3.7476,-3.8193,-3.8924,-3.9148,-3.9202,-3.9319,-3.9415,-3.942,-3.9149,-3.8495,-3.7807,-3.7488,0.0,0.0,0.0,-3.5467,-3.5331,-3.582,-3.6783,0.0,-3.8114,0.0,0.0,0.0,0.0,0.0,0.0,0.0,0.0,0.0,0.0,0.0,0.0,0.0,-4.4162,-4.4344,-4.4619,-4.4718,-4.4675,-4.3963,-4.3203,-4.2428,-4.1639,-4.1019,-4.0595,-4.0647,-4.07,-4.0787,-4.04,-4.0257,-4.0286,-3.9446,0.0,-3.8388,-3.7543,-3.6958,-3.6523,-3.6114,-3.5948,-3.5958,-3.5958,-3.5403,-3.4597,0.0,0.0,0.0,0.0,0.0,0.0,-2.0347,-2.0767,-2.1725,-2.3955,-2.4527,-2.4402,-2.3513,-2.3687,-2.3829,0.0,0.0,0.0,0.0,0.0,0.0,0.0,0.0,0.0,0.0,0.0,0.0,0.0,0.0,0.0,0.0,0.0,0.0,0.0,0.0,0.0,0.0,0.0,0.0,0.0,0.0,0.0,0.0,0.0,0.0,0.0,0.0,0.0,0.0,0.0,-3.3464,-3.5222,-3.6386,-3.7278,-3.7992,-3.8718,-3.9282,-3.9651,-3.9677,-3.9807,-3.9741,-3.8925,-3.8413,-3.7887,-3.6937,-3.6134,0.0,-3.5788,-3.5617,-3.5544,-3.5869,0.0,-3.7519,0.0,-3.8681,0.0,0.0,0.0,0.0,0.0,0.0,0.0,0.0,0.0,0.0,0.0,0.0,0.0,-4.4314,-4.4653,-4.4943,-4.5148,-4.4344,-4.3589,-4.2972,-4.2066,-4.127,-4.0595,-4.0654,-4.0726,-4.0796,-4.0807,-4.0833,-4.0864,-4.0057,0.0,0.0,-3.7803,-3.7097,-3.6866,-3.6224,-3.5981,-3.6005,-3.5994,-3.5124,-3.3901,0.0,0.0,0.0,0.0,0.0,0.0,-2.0024,-2.1357,-2.2432,-2.2744,-2.4003,-2.459,-2.3833,-2.4582,-2.4829,0.0,0.0,0.0,0.0,0.0,0.0,0.0,0.0,0.0,0.0,0.0,0.0,0.0,0.0,0.0,0.0,0.0,0.0,0.0,0.0,0.0,0.0,0.0,0.0,0.0,0.0,0.0,0.0,0.0,0.0,0.0,0.0,0.0,0.0,0.0,0.0,-3.4387,-3.442,-3.626,-3.848,-3.8673,0.0,0.0,-3.9651,-3.9884,-3.9926,-3.9238,-3.88,-3.8365,-3.7655,0.0,-3.4315,-3.5105,-3.4726,-3.443,-3.5002,-3.6171,-3.7261,0.0,0.0,-3.9283,0.0,0.0,0.0,0.0,0.0,0.0,0.0,0.0,0.0,0.0,0.0,0.0,-4.4383,-4.4605,-4.4808,-4.5003,-4.3658,-4.2929,-4.2899,-4.1387,-4.0612,-4.0595,-4.0614,-4.0668,-4.08,-4.0796,-4.0842,-4.0854,-4.0049,0.0,0.0,-3.755,-3.6727,-3.6006,-3.5931,-3.5946,-3.6005,-3.6005,-3.5907,-3.5534,0.0,0.0,0.0,0.0,0.0,0.0,-2.1549,-2.2224,-2.317,-2.4581,-2.5408,-2.5918,-2.6063,-2.6577,-2.6178,-2.4347,0.0,0.0,0.0,0.0,0.0,0.0,0.0,0.0,0.0,0.0,-2.8175,-2.857,-2.8651,0.0,0.0,0.0,0.0,0.0,0.0,0.0,0.0,0.0,0.0,0.0,0.0,0.0,0.0,0.0,0.0,0.0,0.0,0.0,0.0,0.0,0.0,0.0,-3.4375,-3.5949,0.0,0.0,-3.8268,-3.9169,-3.9294,-3.951,-3.9486,-3.869,-3.822,-3.7693,-3.6831,0.0,-3.4679,-3.5155,-3.4599,-3.4187,-3.4679,-3.5205,-3.5868,0.0,0.0,0.0,0.0,0.0,0.0,0.0,0.0,0.0,0.0,0.0,0.0,0.0,0.0,0.0,-4.4289,-4.4468,-4.4446,-4.417,-4.3152,-4.2436,-4.2068,-4.0989,-4.0465,-4.0542,-4.0607,-4.0694,-4.0738,-4.0784,-4.0842,-4.0868,-4.0049,0.0,0.0,-3.753,-3.6688,-3.5892,-3.5899,-3.5931,-3.6005,-3.5992,-3.5341,-3.4338,0.0,0.0,0.0,0.0,0.0,-2.2301,-2.3134,-2.3511,-2.4348,-2.6176,-2.6738,-2.7064,-2.7313,-2.7735,-2.7194,-2.5199,-2.569,0.0,0.0,0.0,0.0,0.0,0.0,0.0,0.0,0.0,-2.8737,-2.8922,-2.8917,-2.8917,0.0,0.0,0.0,0.0,0.0,0.0,0.0,0.0,0.0,0.0,0.0,0.0,0.0,0.0,0.0,0.0,0.0,0.0,0.0,0.0,0.0,0.0,0.0,0.0,0.0,0.0,-3.7589,-3.8771,-3.9112,-3.9163,-3.8961,-3.8384,-3.7693,-3.6896,0.0,0.0,-3.441,-3.455,-3.4138,-3.3854,-3.4119,-3.4477,-3.5064,0.0,0.0,-3.7041,-3.8743,0.0,0.0,0.0,0.0,0.0,0.0,0.0,0.0,0.0,0.0,0.0,-4.3811,-4.3712,-4.3613,-4.3504,-4.2605,-4.189,-4.1426,-4.069,-4.0381,-4.0473,-4.0617,-4.0674,-4.07,-4.0779,-4.0837,-4.0839,-4.0049,0.0,0.0,-3.753,-3.6688,-3.5892,-3.5904,-3.578,-3.5656,-3.5898,-3.4892,-3.3396,0.0,0.0,0.0,0.0,0.0,-2.3344,-2.4429,-2.5252,-2.6047,-2.6795,-2.7585,-2.7739,-2.68,-2.7481,-2.7662,-2.6847,-2.6954,0.0,0.0,0.0,0.0,0.0,0.0,0.0,0.0,0.0,-2.9056,-2.9189,-2.8998,-2.901,-2.9207,-2.9734,-2.9631,-2.9017,0.0,0.0,0.0,0.0,0.0,0.0,0.0,0.0,0.0,0.0,0.0,0.0,0.0,0.0,0.0,0.0,0.0,0.0,0.0,-3.4991,-3.6478,0.0,-3.7207,-3.8384,-3.9277,-3.8957,-3.8431,-3.8572,-3.7439,-3.609,0.0,-3.3965,-3.2902,-3.2842,-3.3035,-3.3204,-3.3204,-3.418,-3.5261,-3.6061,0.0,0.0,0.0,0.0,0.0,0.0,0.0,0.0,0.0,0.0,0.0,0.0,0.0,0.0,-4.2917,-4.2168,-4.2212,-4.3275,-4.193,-4.1203,-4.1193,-4.0529,-4.026,-4.0406,-4.055,-4.0651,-4.07,-4.0767,-4.0807,0.0,0.0,0.0,0.0,-3.753,-3.6688,-3.5892,-3.5904,-3.5409,-3.4817,-3.5685,-3.4892,-3.3395,0.0,0.0,0.0,0.0,0.0,0.0,-2.5032,-2.5603,-2.6334,-2.7448,-2.7956,-2.8274,-2.84,-2.9144,-2.954,-2.9281,-2.8471,0.0,0.0,0.0,0.0,0.0,0.0,0.0,0.0,-2.965,-2.9979,-3.016,-2.9964,-3.024,-3.0976,-3.1057,-3.0991,-3.0787,-3.1045,0.0,0.0,0.0,0.0,0.0,0.0,0.0,0.0,0.0,0.0,0.0,0.0,0.0,0.0,0.0,0.0,0.0,0.0,0.0,0.0,-3.5742,-3.6654,-3.7875,-3.8243,-3.7942,-3.7574,-3.7845,-3.7016,-3.5921,-3.5308,-3.4421,-3.3578,-3.3101,-3.2712,-3.251,-3.2739,-3.3173,-3.3979,-3.5484,-3.5869,0.0,0.0,0.0,0.0,0.0,0.0,0.0,0.0,0.0,0.0,0.0,0.0,0.0,-4.2043,-4.1344,-4.1151,-4.1586,-4.1155,-4.0736,-4.0331,-4.0191,-4.0177,-4.0279,-4.0441,-4.0246,-3.9776,-4.043,-4.0142,0.0,0.0,0.0,0.0,-3.6638,-3.6153,-3.5892,-3.5904,-3.576,-3.5559,-3.5236,-3.4399,-3.3305,0.0,0.0,0.0,0.0,0.0,0.0,-2.5495,-2.6074,-2.6844,-2.8006,-2.8539,-2.9033,-2.9686,-2.993,-3.0276,-3.0838,-2.9905,0.0,0.0,0.0,0.0,0.0,0.0,0.0,-2.9792,-3.0513,-3.0802,-3.0553,-3.0761,-3.1179,-3.1812,-3.1987,-3.1934,-3.1698,-3.2036,-3.2119,0.0,0.0,0.0,0.0,0.0,0.0,-3.3198,0.0,0.0,0.0,0.0,0.0,0.0,0.0,0.0,0.0,0.0,0.0,0.0,0.0,-3.6346,-3.7328,-3.7644,-3.7353,-3.7047,-3.7452,-3.6418,-3.5211,-3.4765,0.0,-3.3133,-3.2631,-3.2575,-3.2617,-3.2558,-3.2987,-3.3702,-3.4848,-3.5441,0.0,0.0,0.0,0.0,0.0,0.0,0.0,0.0,0.0,0.0,0.0,0.0,0.0,-4.1119,-4.0388,-4.0066,-4.0181,-4.0271,-4.0133,-3.9781,-3.9943,-4.0068,-4.0206,-4.0349,-4.0188,-3.9757,-4.0075,-3.9688,0.0,0.0,0.0,0.0,-3.6593,-3.6209,-3.5892,-3.5929,-3.5767,-3.5486,-3.5261,-3.4422,-3.3326,0.0,0.0,0.0,0.0,0.0,0.0,0.0,-2.667,-2.7476,-2.8453,-2.9174,-2.9887,-3.0633,-3.009,-3.0242,-3.1677,-3.1272,0.0,0.0,0.0,0.0,0.0,0.0,0.0,-3.0696,-3.1547,-3.1545,-3.0683,-3.1511,-3.1924,-3.1979,-3.2683,-3.2634,-3.199,-3.2606,-3.284,0.0,0.0,0.0,0.0,-3.3549,-3.3747,0.0,0.0,0.0,0.0,0.0,0.0,0.0,0.0,0.0,0.0,0.0,0.0,0.0,0.0,0.0,0.0,0.0,-3.7102,-3.6797,-3.7318,-3.5887,-3.4259,-3.3911,0.0,0.0,-3.169,-3.2628,-3.3319,-3.2701,-3.35,-3.4298,-3.4377,-3.5237,0.0,0.0,0.0,0.0,0.0,0.0,0.0,0.0,0.0,0.0,0.0,0.0,0.0,-4.0145,-3.94,-3.9064,-3.9183,-3.9376,-3.9526,-3.9587,-3.9736,-3.991,-4.0091,-4.0119,-4.0147,-4.02,-3.9588,-3.9271,0.0,0.0,0.0,0.0,-3.7072,-3.6628,-3.5883,-3.5951,-3.5498,-3.4866,-3.5555,-3.4776,-3.3371,0.0,0.0,0.0,0.0,0.0,0.0,0.0,0.0,0.0,0.0,-2.9211,-2.9974,-3.0762,-3.1148,-3.17,0.0,0.0,0.0,0.0,0.0,0.0,0.0,0.0,0.0,-3.0647,-3.202,-3.2653,-3.2489,-3.2687,-3.3108,-3.3722,-3.3885,-3.3819,-3.3568,-3.3716,-3.3734,0.0,0.0,0.0,0.0,-3.3643,-3.3553,0.0,0.0,0.0,0.0,-3.4649,-3.4831,0.0,0.0,0.0,0.0,0.0,0.0,0.0,0.0,-3.6247,-3.6696,-3.6609,0.0,-3.6599,-3.6876,-3.6388,-3.5535,0.0,-3.4033,0.0,0.0,0.0,0.0,0.0,-3.43,-3.5038,-3.5269,-3.61,-3.681,0.0,0.0,0.0,0.0,0.0,0.0,0.0,0.0,0.0,0.0,0.0,-3.9964,-3.9239,-3.9075,-3.9007,-3.905,-3.9197,-3.935,-3.9526,-3.9112,-3.8961,-3.9055,-3.8546,-3.8021,-3.7455,-3.807,-3.7647,0.0,0.0,0.0,-3.5955,-3.6082,-3.599,-3.5749,-3.5827,-3.5723,-3.5408,-3.4333,-3.3643,-3.3067,0.0,0.0,0.0,0.0,0.0,0.0,0.0,0.0,0.0,0.0,-2.9701,-3.0629,-3.1909,-3.1655,-3.2005,0.0,0.0,0.0,0.0,0.0,0.0,0.0,0.0,-3.2222,-3.1719,-3.2927,-3.3396,-3.3093,-3.3466,-3.4093,-3.4936,-3.4785,-3.4667,-3.4598,-3.4151,-3.3934,-3.3908,-3.4036,-3.4049,-3.3985,-3.3908,0.0,0.0,0.0,0.0,0.0,-3.4178,-3.4327,0.0,-3.4985,-3.5504,-3.5714,0.0,0.0,0.0,0.0,-3.5932,-3.6272,-3.6156,-3.6426,-3.6748,-3.6788,-3.6409,-3.5838,-3.514,0.0,0.0,0.0,0.0,0.0,0.0,0.0,0.0,-3.554,-3.6387,0.0,0.0,0.0,0.0,0.0,0.0,0.0,0.0,0.0,0.0,0.0,0.0,-3.9642,-3.8888,-3.8896,-3.8921,-3.895,-3.9073,-3.9245,-3.9452,-3.8797,-3.8538,-3.869,-3.7927,-3.7374,-3.7067,-3.7228,-3.686,0.0,0.0,0.0,-3.5649,-3.5722,-3.575,-3.5743,-3.5799,-3.5799,-3.5654,-3.438,-3.3878,-3.3608,0.0,0.0,0.0,0.0,0.0,0.0,0.0,0.0,0.0,0.0,0.0,0.0,0.0,0.0,0.0,0.0,0.0,0.0,0.0,0.0,0.0,0.0,-3.3483,-3.3013,-3.3025,-3.3942,-3.4052,-3.3302,-3.4253,-3.506,-3.5705,-3.5534,-3.5373,-3.5167,-3.4325,-3.393,-3.3895,-3.4099,-3.4161,-3.4124,-3.4173,0.0,0.0,0.0,0.0,0.0,0.0,0.0,0.0,-3.4112,-3.472,-3.5194,-3.5156,0.0,0.0,0.0,0.0,0.0,-3.5902,-3.6388,-3.6871,-3.6849,-3.6339,-3.5832,-3.5747,0.0,0.0,0.0,0.0,0.0,0.0,-3.5077,0.0,0.0,0.0,0.0,0.0,0.0,0.0,0.0,0.0,0.0,0.0,0.0,0.0,0.0,0.0,-3.9386,-3.8799,-3.8777,-3.8822,-3.8877,-3.8877,-3.8984,-3.9182,-3.8477,-3.8161,-3.8239,-3.7389,-3.71,-3.7257,-3.6597,-3.6388,-3.6528,0.0,0.0,-3.5639,-3.5654,-3.5699,-3.5722,-3.576,-3.5752,-3.5671,-3.4858,-3.4568,-3.4324,0.0,0.0,0.0,0.0,0.0,0.0,0.0,0.0,0.0,0.0,0.0,0.0,0.0,0.0,0.0,0.0,0.0,0.0,0.0,0.0,0.0,-3.4623,-3.3631,-3.3105,-3.3179,-3.4614,-3.5011,-3.4285,-3.5832,-3.6318,-3.5794,-3.636,-3.6116,-3.5174,-3.4806,-3.4352,-3.3815,-3.4036,-3.4148,-3.4185,-3.4197,0.0,0.0,0.0,0.0,0.0,0.0,0.0,0.0,-3.4896,-3.5255,-3.528,-3.5707,0.0,0.0,0.0,0.0,0.0,-3.5954,-3.6195,-3.6489,-3.6888,-3.6801,-3.6479,-3.5912,0.0,0.0,0.0,0.0,0.0,0.0,-3.6358,0.0,0.0,0.0,0.0,0.0,0.0,0.0,0.0,0.0,0.0,0.0,0.0,0.0,0.0,0.0,-3.8608,-3.8541,-3.8655,-3.875,-3.8822,-3.8231,-3.7988,-3.8133,-3.7579,-3.6941,-3.6235,-3.5536,-3.5249,-3.5325,-3.5328,-3.5381,-3.5523,0.0,-3.5455,-3.5369,-3.5476,-3.5464,-3.539,-3.5495,-3.5587,-3.5521,-3.4659,-3.4376,-3.4206,0.0,0.0,0.0,0.0,0.0,0.0,0.0,0.0,0.0,0.0,0.0,0.0,0.0,0.0,0.0,0.0,0.0,0.0,0.0,0.0,-3.4708,-3.4758,-3.4256,-3.3963,-3.39,-3.5044,-3.5504,-3.5207,-3.6363,-3.6999,-3.7098,-3.6851,-3.6364,-3.5661,-3.515,-3.4784,-3.4589,-3.5161,-3.5255,-3.503,0.0,0.0,0.0,0.0,0.0,0.0,0.0,0.0,0.0,0.0,-3.4027,-3.4591,-3.4888,0.0,0.0,0.0,0.0,0.0,-3.591,-3.5975,-3.6067,-3.6687,-3.6786,-3.662,-3.6177,-3.5856,0.0,0.0,0.0,0.0,0.0,0.0,0.0,0.0,0.0,0.0,0.0,0.0,0.0,0.0,0.0,0.0,0.0,0.0,0.0,0.0,0.0,0.0,-3.8446,-3.8496,-3.8376,-3.7995,-3.7735,-3.7215,-3.644,-3.6279,-3.6029,-3.5747,-3.5023,-3.4742,-3.4851,-3.4945,-3.5089,-3.5261,0.0,-3.5361,-3.5296,-3.5369,-3.5355,-3.5258,-3.4896,-3.4815,-3.4729,-3.3479,-3.303,-3.2879,0.0,0.0,0.0,0.0,0.0,0.0,0.0,0.0,0.0,0.0,0.0,0.0,0.0,0.0,0.0,0.0,0.0,0.0,0.0,-3.4829,-3.481,-3.481,-3.4759,-3.4781,-3.4854,-3.5615,-3.6054,-3.6133,-3.7254,-3.8141,-3.874,-3.7469,-3.6736,-3.6439,-3.543,-3.5179,-3.5531,-3.5997,-3.6096,-3.5936,0.0,0.0,0.0,0.0,0.0,0.0,0.0,0.0,0.0,0.0,0.0,0.0,0.0,0.0,0.0,-3.5773,-3.5408,-3.5171,-3.5749,-3.562,-3.5535,-3.6343,-3.662,-3.6623,-3.6322,-3.6017,0.0,0.0,0.0,0.0,0.0,0.0,0.0,0.0,0.0,0.0,0.0,0.0,0.0,0.0,0.0,0.0,0.0,0.0,0.0,0.0,0.0,0.0,-3.8302,-3.8302,-3.8077,-3.7554,-3.7293,-3.6611,-3.5437,-3.518,-3.5151,-3.5343,-3.4795,-3.4615,-3.4762,-3.4812,-3.4955,-3.5115,-3.5209,-3.5135,-3.4932,-3.4983,-3.4983,-3.4891,-3.4308,-3.4159,-3.4133,-3.2904,-3.2212,-3.1788,0.0,0.0,0.0,0.0,0.0,0.0,0.0,0.0,0.0,0.0,0.0,0.0,0.0,0.0,0.0,0.0,0.0,0.0,0.0,-3.4888,-3.4898,-3.4898,-3.4888,-3.5198,-3.5883,-3.6611,-3.7028,-3.7103,-3.9395,-4.0495,-4.0395,-3.8576,-3.7669,-3.7515,-3.5758,-3.5528,-3.6348,-3.561,-3.5763,-3.6469,-3.5705,0.0,0.0,0.0,0.0,0.0,0.0,0.0,0.0,0.0,0.0,0.0,0.0,0.0,-3.5932,-3.5689,-3.4992,-3.4471,-3.5391,-3.5115,-3.4808,-3.5805,-3.6377,0.0,-3.6199,-3.6416,0.0,-3.6113,0.0,0.0,0.0,0.0,0.0,0.0,0.0,0.0,0.0,0.0,0.0,0.0,0.0,0.0,0.0,0.0,0.0,0.0,0.0,0.0,-3.8018,-3.8035,-3.8085,-3.8232,-3.6915,-3.6175,-3.6138,-3.4714,-3.4116,-3.4314,-3.433,-3.442,-3.4623,-3.4687,-3.4751,-3.4832,-3.5035,-3.4624,-3.384,-3.4023,-3.4031,-3.39,-3.399,-3.4096,-3.4205,-3.4152,-3.3142,-3.1811,0.0,0.0,0.0,0.0,0.0,0.0,0.0,0.0,0.0,0.0,0.0,0.0,0.0,0.0,0.0,0.0,0.0,0.0,0.0,-3.5429,-3.5496,-3.4974,-3.537,-3.5991,-3.6845,-3.7098,-3.7457,-3.7954,-3.932,-3.9944,-3.9821,-3.8446,-3.7498,-3.6934,-3.6669,-3.6507,-3.6477,-3.7159,-3.7156,-3.6731,-3.6851,-3.6233,0.0,0.0,0.0,0.0,0.0,0.0,0.0,0.0,-3.2883,-3.3188,-3.3304,-3.3815,-3.4359,-3.4209,-3.3941,-3.3874,-3.4687,-3.4582,-3.4531,-3.5722,-3.6062,0.0,0.0,-3.592,-3.6028,-3.5583,-3.5677,0.0,0.0,0.0,0.0,0.0,0.0,0.0,0.0,0.0,0.0,0.0,0.0,0.0,0.0,0.0,0.0,0.0,0.0,0.0,-3.7739,-3.7792,-3.7681,-3.7382,-3.6372,-3.5709,-3.5392,-3.4316,-3.3868,-3.4074,-3.4185,-3.434,-3.452,-3.4087,-3.4249,-3.4803,-3.3799,-3.3458,-3.3601,-3.3125,-3.2945,-3.2905,-3.2562,-3.2488,-3.2468,-3.2036,-3.1841,-3.1724,0.0,0.0,0.0,0.0,0.0,0.0,0.0,0.0,0.0,0.0,0.0,0.0,0.0,0.0,0.0,0.0,0.0,0.0,-3.5447,-3.6188,-3.616,-3.5021,-3.5654,-3.6453,-3.7348,-3.7322,-3.7804,-3.882,-3.9246,-3.9444,-3.9386,-3.8297,-3.7475,-3.692,-3.708,-3.7147,-3.7208,-3.8041,-3.8014,-3.7391,-3.7428,-3.6615,0.0,0.0,0.0,0.0,0.0,0.0,0.0,0.0,-3.2414,-3.265,-3.2357,-3.2739,-3.33,-3.3237,-3.3047,-3.3064,-3.4078,-3.4035,-3.4024,-3.5324,0.0,0.0,-3.5287,-3.5538,-3.565,-3.5071,-3.5218,0.0,0.0,0.0,0.0,0.0,0.0,0.0,0.0,0.0,0.0,0.0,0.0,0.0,0.0,0.0,0.0,0.0,0.0,0.0,0.0,-3.7522,-3.7274,-3.6625,-3.6,-3.5398,-3.4812,-3.4077,-3.3652,-3.3565,-3.3685,-3.4003,-3.4401,-3.3682,-3.3723,-3.4328,-3.3185,-3.2694,-3.2704,-3.2128,-3.1938,-3.2019,-3.1851,-3.1671,-3.1435,-3.0925,-3.1008,-3.1278,0.0,0.0,0.0,0.0,0.0,0.0,0.0,0.0,-3.3823,-3.4694,-3.4858,0.0,0.0,0.0,0.0,0.0,0.0,0.0,-3.6291,-3.7165,-3.6862,-3.4974,-3.5674,-3.6474,-3.7279,-3.7289,-3.8098,-3.9693,-3.9489,-3.9386,-3.9386,-3.8297,-3.7803,-3.7757,-3.6842,-3.7301,-3.8733,-3.7871,-3.7988,-3.8557,-3.7104,-3.699,-3.7428,0.0,0.0,0.0,0.0,0.0,0.0,0.0,-3.2341,-3.2771,-3.2188,-3.2483,-3.3091,-3.3091,-3.2367,-3.1945,-3.3544,-3.3456,-3.3223,0.0,0.0,0.0,-3.493,-3.5356,-3.5566,-3.4859,0.0,0.0,0.0,0.0,0.0,0.0,0.0,0.0,0.0,0.0,0.0,0.0,0.0,0.0,0.0,0.0,0.0,0.0,0.0,0.0,0.0,-3.7182,-3.6945,-3.6221,-3.58,-3.5257,-3.4591,-3.3974,-3.3304,-3.2583,-3.2723,-3.3315,-3.4267,-3.3523,-3.3223,-3.3315,-3.3404,-3.2495,-3.0894,-3.0959,-3.1078,-3.1267,-3.2064,-3.1999,-3.1465,-3.1465,-3.0996,-3.0378,0.0,0.0,0.0,0.0,0.0,0.0,0.0,0.0,-3.432,-3.4689,-3.4788,0.0,0.0,0.0,0.0,0.0,0.0,0.0,-3.5568,-3.6833,-3.6824,-3.504,-3.6282,-3.6818,-3.6381,-3.69,-3.7981,-3.9696,-3.8883,-3.8807,-3.9386,-3.8248,-3.772,-3.7761,-3.8519,-3.8496,-3.7945,-3.8875,-3.8788,-3.8024,-3.7586,-3.6957,-3.6211,0.0,0.0,0.0,0.0,0.0,0.0,0.0,0.0,0.0,-3.1461,-3.1385,-3.1404,-3.1404,-3.122,-3.1237,-3.219,-3.2542,0.0,-3.3889,0.0,0.0,0.0,-3.4835,0.0,0.0,0.0,0.0,0.0,0.0,0.0,0.0,0.0,0.0,0.0,0.0,0.0,0.0,0.0,0.0,0.0,0.0,0.0,0.0,0.0,0.0,0.0,-3.6143,-3.5926,-3.5243,-3.4174,-3.3602,-3.3553,-3.2347,-3.1728,-3.1682,-3.1256,-3.1866,-3.3341,-3.2039,-3.2104,-3.313,-3.1432,-3.0722,-3.0722,-3.0265,-3.0104,-3.0131,-2.9849,-2.9652,-2.9462,-2.8947,-2.867,-2.8679,0.0,0.0,0.0,0.0,0.0,0.0,0.0,0.0,-3.4539,-3.4645,-3.4727,-3.5452,0.0,0.0,0.0,0.0,0.0,0.0,0.0,-3.7908,-3.7737,-3.5599,-3.7051,-3.7451,-3.6448,-3.7148,-3.7887,-3.8628,-3.7959,-3.7742,-3.7935,-3.7843,-3.7776,-3.7831,-3.8984,-3.9145,-3.8574,-3.9206,-3.8976,-3.8143,-3.7896,-3.7291,-3.646,0.0,0.0,0.0,0.0,0.0,0.0,0.0,0.0,0.0,-3.1225,-3.0861,-3.0589,-3.0609,-3.0535,-3.0659,-3.1442,-3.2012,0.0,-3.3236,-3.3787,-3.4126,-3.4101,0.0,0.0,0.0,0.0,0.0,0.0,0.0,0.0,0.0,0.0,0.0,0.0,0.0,0.0,0.0,0.0,0.0,0.0,0.0,0.0,0.0,0.0,0.0,0.0,-3.5205,-3.5014,-3.4689,-3.367,-3.2931,-3.254,-3.1664,-3.1042,-3.0701,-3.0326,-3.0759,-3.1913,-3.1385,-3.1539,-3.2158,-3.0326,-2.9605,-2.9689,-2.926,-2.8961,-2.8693,-2.8228,-2.8118,-2.8169,-2.7721,-2.7657,-2.7831,0.0,0.0,-3.1893,-3.2741,0.0,0.0,0.0,0.0,-3.4544,-3.4674,-3.4712,-3.5401,0.0,0.0,0.0,0.0,0.0,-3.8899,-3.8804,-3.9652,-3.9061,-3.652,-3.7801,-3.8137,-3.7234,-3.7727,-3.7634,-3.6885,-3.6894,-3.6559,-3.5943,-3.7259,-3.7973,-3.8126,-3.8728,-3.9394,-4.0025,-3.9246,-3.8836,-3.8664,-3.819,-3.7887,-3.7558,-3.6273,0.0,0.0,0.0,0.0,0.0,0.0,0.0,0.0,-3.1363,-3.0828,-3.0464,-3.0506,-3.0274,-3.0185,-3.1079,-3.1739,0.0,-3.2627,-3.3269,0.0,-3.3503,-3.3555,-3.3668,-3.3822,0.0,0.0,0.0,0.0,0.0,0.0,0.0,0.0,0.0,0.0,0.0,0.0,0.0,0.0,0.0,0.0,0.0,0.0,0.0,0.0,0.0,-3.428,-3.4119,-3.4254,-3.3687,-3.2769,-3.1553,-3.1492,-3.0837,-2.9641,-2.9727,-2.9905,-3.0171,-3.1135,-3.1246,-3.0616,-2.9867,-2.9025,-2.8184,-2.8193,-2.7866,-2.7388,-2.7249,-2.7312,-2.7486,-2.7402,-2.7399,-2.7497,0.0,0.0,-3.2533,-3.2852,0.0,0.0,0.0,0.0,0.0,-3.5299,0.0,0.0,0.0,0.0,0.0,0.0,-3.9584,-3.9347,-3.8031,-3.8793,-3.8688,-3.7376,-3.7494,-3.7761,-3.8112,-3.699,-3.626,-3.5979,-3.6541,-3.7056,-3.751,-3.7718,-3.8474,-3.9619,-3.9718,-3.9826,-3.9982,-4.0396,-3.9895,-3.8814,-3.9319,-3.8496,-3.6907,-3.6601,-3.5733,0.0,0.0,0.0,0.0,0.0,0.0,0.0,-3.1826,-3.1266,-3.0771,-3.0675,-3.0338,-3.0092,-3.0493,-3.1318,0.0,0.0,-3.2732,-3.3346,-3.3096,-3.3058,-3.3176,0.0,0.0,0.0,0.0,0.0,0.0,0.0,0.0,0.0,0.0,0.0,0.0,0.0,0.0,0.0,0.0,0.0,0.0,0.0,0.0,0.0,-3.3073,-3.3071,-3.2884,-3.2393,-3.1917,-3.123,-3.0378,-2.9946,-2.9279,0.0,-2.8661,-2.886,-2.8985,-2.9576,-2.9755,-2.9595,-2.9222,-2.8709,-2.8125,-2.8116,-2.8119,-2.8015,-2.7378,-2.7244,-2.7339,-2.6658,-2.6115,-2.5822,0.0,0.0,0.0,0.0,0.0,0.0,0.0,0.0,0.0,0.0,0.0,0.0,0.0,0.0,0.0,0.0,-3.983,-3.9776,-3.8899,-3.9328,-3.9385,-3.8813,-3.8273,-3.8093,-3.8352,-3.7021,-3.6284,-3.6187,-3.652,-3.6744,-3.6863,-3.7506,-3.8442,-3.9564,-3.9463,-3.9623,-3.9945,-3.9953,-3.9494,-3.8802,-3.9267,-3.8559,-3.7155,-3.6853,-3.6025,-3.5033,-3.5067,0.0,0.0,0.0,0.0,0.0,0.0,0.0,-3.0925,-3.0834,-3.0237,-2.973,-3.0276,0.0,0.0,-3.151,0.0,-3.2473,-3.1987,-3.1793,-3.1767,0.0,0.0,0.0,0.0,0.0,0.0,0.0,0.0,0.0,0.0,0.0,0.0,0.0,0.0,0.0,0.0,0.0,0.0,0.0,0.0,-3.2742,-3.2184,-3.2012,-3.2025,-3.2185,-3.1702,-3.1116,-3.045,-2.9809,-2.916,-2.8485,-2.8307,-2.8357,-2.8614,-2.9055,-2.9403,-2.9662,-2.9263,-2.8508,-2.7529,-2.7538,-2.7149,-2.6529,-2.608,-2.5995,-2.6049,-2.5676,-2.5358,-2.5177,0.0,0.0,0.0,0.0,0.0,0.0,0.0,0.0,0.0,0.0,0.0,0.0,0.0,0.0,-3.7824,0.0,0.0,0.0,-4.0108,-4.0234,-4.0234,-4.0067,-3.9317,-3.8757,-3.8488,-3.753,-3.6894,-3.6673,-3.6769,-3.6461,-3.5826,-3.732,-3.8423,-3.9153,-3.8907,-3.9234,-3.9921,-3.9215,-3.8802,-3.8692,-3.8984,-3.8541,-3.7632,-3.7034,-3.6286,-3.554,-3.4997,-3.4551,-3.424,-3.4382,0.0,0.0,0.0,0.0,-3.0881,-3.0603,-2.9879,-2.9288,-2.9844,0.0,-3.0138,-3.1102,-3.1483,0.0,-3.0881,-3.0567,0.0,0.0,0.0,0.0,0.0,0.0,0.0,0.0,0.0,0.0,0.0,0.0,0.0,0.0,0.0,0.0,0.0,0.0,0.0,0.0,0.0,-3.1523,-3.1527,-3.1152,-3.1365,-3.2295,-3.196,-3.1457,-3.0855,-3.0142,-2.9475,-2.891,-2.8203,-2.8097,-2.85,-2.8875,-2.9274,-2.9661,-2.9204,-2.8182,-2.6877,-2.6878,-2.619,-2.5088,-2.5037,-2.5059,-2.5128,-2.511,-2.5144,-2.5225,0.0,0.0,0.0,0.0,0.0,0.0,0.0,0.0,0.0,0.0,-3.5829,-3.5428,0.0,-3.6915,-3.7109,-3.9681,-3.9277,-3.9266,-4.0119,0.0,0.0,-3.9933,-3.9754,-3.9531,-3.9264,-3.832,-3.7432,-3.6607,-3.7303,-3.727,-3.6601,-3.8127,-3.9217,-3.9838,-3.912,-3.9176,-3.9823,-3.9758,-3.9282,-3.8596,-3.9559,-3.9039,-3.7632,-3.6962,-3.6254,-3.5596,-3.5634,-3.5053,-3.4405,-3.5165,-3.4229,0.0,0.0,0.0,-3.0506,-2.9345,-2.9003,-2.8923,-2.8452,0.0,-2.9809,0.0,-3.0995,-3.0839,0.0,0.0,0.0,0.0,0.0,0.0,0.0,0.0,0.0,0.0,0.0,0.0,0.0,0.0,0.0,0.0,0.0,0.0,0.0,0.0,0.0,0.0,-3.1671,-3.154,-3.0466,-3.0618,-3.0885,-3.119,-3.1438,-3.1256,-3.0645,-2.9971,-2.9277,-2.8564,-2.8012,-2.7847,-2.8081,-2.8255,-2.8218,-2.8015,-2.7883,-2.7409,-2.6723,-2.6791,-2.6757,-2.6692,-2.6674,-2.6755,-2.6773,-2.611,-2.594,-2.6058,0.0,0.0,0.0,0.0,0.0,0.0,0.0,0.0,0.0,0.0,0.0,-3.6084,0.0,-3.6697,-3.7081,-3.8337,-3.8601,-3.8903,-3.9376,-3.9014,-3.8947,-3.9266,-3.915,-3.9203,-3.9514,-3.8488,-3.7726,-3.7261,-3.7173,-3.7173,-3.7289,-3.8413,-3.9124,-3.9412,-3.886,-3.8841,-3.9177,-3.914,-3.892,-3.8676,-3.9205,-3.8726,-3.7687,-3.745,-3.662,-3.5613,-3.5677,-3.4813,-3.3735,-3.4037,-3.313,-3.1738,-3.1043,0.0,0.0,0.0,-2.8673,-2.8241,-2.8096,-2.8783,-2.964,0.0,-3.0129,-3.0111,-2.963,0.0,0.0,0.0,0.0,0.0,0.0,0.0,0.0,0.0,0.0,0.0,0.0,0.0,0.0,0.0,0.0,0.0,0.0,0.0,0.0,0.0,-3.0516,-3.0354,-2.9935,-3.0167,-3.038,-3.0547,-3.0995,-3.0876,-3.0168,-2.9711,-2.8953,-2.7875,-2.8101,-2.8092,-2.7893,-2.8109,-2.7975,-2.759,-2.7565,-2.7218,-2.6703,-2.6811,-2.6897,-2.6944,-2.7028,-2.7092,-2.7117,-2.6818,-2.6777,-2.6756,0.0,0.0,0.0,0.0,0.0,0.0,0.0,0.0,0.0,0.0,0.0,0.0,0.0,0.0,0.0,0.0,-3.7713,-3.813,-3.8431,-3.7889,-3.7918,-3.8736,-3.8612,-3.8848,-3.9556,-3.8661,-3.7964,-3.7429,-3.7202,-3.7193,-3.7386,-3.8339,-3.8862,-3.8968,-3.8869,-3.8873,-3.8905,-3.8617,-3.8672,-3.8936,-3.888,-3.8512,-3.7973,-3.7905,-3.7028,-3.5802,-3.5669,-3.4692,-3.3444,-3.3364,-3.2458,0.0,0.0,0.0,0.0,0.0,0.0,0.0,0.0,0.0,-2.8865,-2.8799,-2.891,-2.892,0.0,0.0,0.0,0.0,0.0,0.0,0.0,0.0,0.0,0.0,0.0,0.0,0.0,0.0,0.0,0.0,0.0,0.0,0.0,0.0,0.0,0.0,-2.969,-2.9617,-2.9366,-2.9687,-2.9848,-2.9783,-3.0249,-3.0279,-2.9744,-2.9422,-2.8596,-2.728,-2.7976,-2.8095,-2.7745,-2.7965,-2.783,-2.7393,-2.7282,-2.6896,-2.6397,-2.6728,-2.6869,-2.6916,-2.7233,-2.7373,-2.7391,-2.7291,-2.7395,-2.7525,0.0,0.0,0.0,0.0,0.0,0.0,0.0,0.0,0.0,0.0,0.0,0.0,-3.6836,-3.6351,-3.6295,-3.7134,-3.6497,-3.6438,-3.7404,-3.7428,-3.78,-3.8662,-3.8626,0.0,-3.9495,-3.9195,-3.8188,-3.6477,-3.7774,-3.7738,-3.65,-3.7869,-3.8649,-3.8914,-3.9481,-3.9668,-3.9511,-3.8807,0.0,0.0,0.0,0.0,0.0,0.0,0.0,0.0,0.0,0.0,0.0,0.0,0.0,0.0,0.0,0.0,0.0,0.0,0.0,0.0,0.0,-2.7038,0.0,-2.7248,-2.7194,0.0,0.0,0.0,0.0,0.0,0.0,0.0,0.0,0.0,0.0,0.0,0.0,0.0,0.0,0.0,0.0,0.0,0.0,0.0,0.0,0.0,0.0,0.0,-2.9816,-3.017,-2.8462,-2.9097,-2.9277,-2.8694,-2.9016,-2.9325,-2.9612,-2.9166,-2.825,-2.6926,-2.7299,-2.7515,-2.7617,-2.7686,-2.7511,-2.71,-2.6644,-2.6085,-2.5541,-2.6446,-2.682,-2.6894,-2.7723,-2.8127,-2.8138,-2.7391,-2.7668,-2.8445,0.0,0.0,0.0,0.0,0.0,0.0,0.0,0.0,0.0,0.0,0.0,0.0,0.0,-3.5501,-3.564,-3.548,-3.5257,-3.5509,-3.6381,-3.5981,-3.6056,-3.6804,-3.6817,-3.7133,-3.7828,-3.8154,-3.7433,-3.5634,-3.6636,-3.6622,-3.5602,-3.7147,-3.7915,-3.8026,-3.8682,-3.8951,-3.8864,-3.8574,0.0,0.0,0.0,0.0,0.0,0.0,0.0,0.0,0.0,0.0,0.0,0.0,0.0,0.0,0.0,0.0,0.0,0.0,0.0,0.0,0.0,0.0,0.0,-2.7302,-2.7137,-2.6851,0.0,0.0,0.0,0.0,0.0,0.0,0.0,0.0,0.0,0.0,0.0,0.0,0.0,0.0,0.0,0.0,0.0,0.0,0.0,0.0,0.0,0.0,0.0,-2.879,-2.8396,-2.8598,-2.8536,-2.8151,-2.8382,-2.8329,-2.7929,-2.7892,-2.7475,-2.6725,-2.7486,-2.7713,-2.7481,-2.7539,-2.7016,-2.6083,-2.6435,-2.6339,-2.5943,-2.6326,-2.6854,-2.7493,-2.7924,-2.85,-2.9035,-2.8802,-2.8942,-2.9209,0.0,0.0,0.0,-3.475,0.0,-3.5687,-3.5924,-3.605,-3.5878,-3.5207,0.0,0.0,0.0,0.0,-3.5601,-3.4577,-3.455,-3.4859,-3.5469,-3.4977,-3.5012,-3.5769,-3.5751,-3.6094,-3.6839,-3.7238,-3.6675,-3.5133,-3.5862,-3.5805,-3.5007,-3.6633,-3.7433,-3.7529,-3.8208,-3.8624,0.0,0.0,0.0,-3.8862,0.0,0.0,-3.925,0.0,0.0,0.0,0.0,0.0,0.0,0.0,0.0,0.0,0.0,0.0,0.0,0.0,0.0,0.0,-2.7352,0.0,0.0,0.0,0.0,-2.6293,0.0,0.0,0.0,0.0,0.0,0.0,0.0,0.0,0.0,0.0,0.0,0.0,0.0,0.0,0.0,0.0,0.0,0.0,0.0,0.0,0.0,0.0,0.0,0.0,-2.7548,-2.7896,-2.7919,-2.7436,-2.7677,-2.7358,-2.6472,-2.6925,-2.6937,-2.6538,-2.7352,-2.7568,-2.7293,-2.745,-2.6856,-2.5809,-2.6595,-2.6446,-2.5713,-2.6372,-2.7043,-2.7709,-2.8132,-2.8746,-2.9373,-2.9443,-2.9551,-2.9607,-3.3712,-3.4946,-3.5695,-3.4727,-3.5999,-3.6828,-3.5838,-3.5893,-3.5787,-3.5123,0.0,0.0,0.0,0.0,0.0,-3.4708,-3.4495,-3.4521,-3.4714,-3.4525,-3.4798,-3.5709,-3.5663,-3.5961,-3.6739,-3.6589,-3.6012,-3.4995,-3.5589,-3.5451,-3.4702,-3.6364,-3.7238,-3.7477,-3.8156,-3.8853,-3.9398,0.0,-3.8793,-3.9495,0.0,-3.9077,-3.9875,0.0,0.0,0.0,-3.8058,-3.6785,0.0,-3.5485,0.0,0.0,0.0,0.0,0.0,0.0,0.0,0.0,0.0,0.0,0.0,0.0,0.0,0.0,-2.4578,0.0,0.0,0.0,0.0,0.0,0.0,0.0,0.0,0.0,0.0,0.0,0.0,0.0,0.0,0.0,0.0,0.0,0.0,0.0,0.0,0.0,-2.7545,-2.7591,-2.593,-2.7036,-2.7361,-2.6507,-2.6767,-2.6429,-2.5394,-2.6346,-2.6704,-2.6383,-2.6792,-2.7006,-2.7085,-2.7355,-2.7046,-2.6333,-2.7072,-2.6349,-2.4777,-2.6554,-2.7326,-2.7477,-2.833,-2.8832,-2.9115,-2.9158,-2.9372,-2.9607,-3.3563,-3.3913,-3.412,-3.3788,-3.509,-3.61,-3.5877,-3.6381,-3.6534,0.0,0.0,0.0,-3.5239,-3.6086,-3.6589,-3.6205,-3.5663,-3.535,-3.535,-3.4659,-3.435,-3.4561,-3.5089,-3.5502,-3.5716,-3.6223,-3.6016,-3.5004,-3.5067,-3.4685,-3.3923,-3.4973,-3.5775,-3.6383,-3.7241,-3.7997,-3.8634,-3.8398,0.0,-3.8631,-3.8445,-3.8645,0.0,0.0,0.0,0.0,0.0,-3.7096,-3.62,0.0,-3.4797,-3.354,0.0,0.0,0.0,0.0,0.0,0.0,-2.7348,0.0,0.0,0.0,0.0,0.0,-2.344,-2.3472,-2.3559,0.0,0.0,0.0,0.0,0.0,0.0,0.0,0.0,0.0,0.0,0.0,0.0,0.0,0.0,0.0,0.0,0.0,0.0,0.0,-2.6605,-2.6761,-2.6463,-2.6234,-2.6062,-2.5925,-2.5493,-2.5163,-2.4982,-2.5532,-2.5894,-2.6028,-2.64,-2.6624,-2.6759,-2.6975,-2.666,-2.5971,-2.6807,-2.6647,-2.5813,-2.6515,-2.6925,-2.7156,-2.7591,-2.8274,-2.9041,-2.9155,-2.9291,-2.9311,-3.3481,-3.3724,-3.3915,-3.3764,-3.5081,-3.6177,-3.6192,-3.6926,-3.7209,0.0,0.0,0.0,-3.6091,-3.6667,-3.6997,-3.6742,-3.6354,-3.5951,-3.5584,-3.5051,-3.4532,-3.408,-3.4824,-3.5066,-3.4641,-3.5386,-3.5334,-3.4369,-3.424,-3.3916,-3.3499,-3.4324,-3.5154,-3.5973,-3.6866,-3.7656,-3.8307,0.0,0.0,0.0,-3.8305,0.0,0.0,-3.8656,-3.856,0.0,0.0,0.0,-3.6498,-3.6083,-3.4952,0.0,0.0,0.0,0.0,0.0,0.0,0.0,0.0,0.0,0.0,0.0,0.0,0.0,-2.3933,-2.3892,-2.382,0.0,0.0,0.0,0.0,0.0,0.0,0.0,0.0,0.0,0.0,0.0,0.0,0.0,0.0,0.0,0.0,-2.5495,-2.5785,-2.5825,-2.6043,-2.6131,-2.615,-2.5619,-2.5216,-2.5073,-2.4902,-2.4782,-2.4722,-2.5166,-2.5584,-2.5899,-2.6312,-2.6555,-2.664,-2.6809,-2.65,-2.5883,-2.6682,-2.6673,-2.6154,-2.6661,-2.7031,-2.7315,-2.7562,-2.8103,-2.8773,-2.8996,-2.9134,-2.9188,0.0,-3.3942,-3.4339,-3.4101,-3.5443,-3.65,-3.6449,-3.7306,-3.7695,0.0,-3.7609,-3.799,-3.7567,-3.7691,-3.7562,-3.6911,-3.683,-3.6456,-3.5665,-3.5516,-3.5019,-3.4022,-3.4723,-3.4724,-3.3831,-3.4422,-3.4386,-3.359,-3.3388,-3.3277,-3.3295,-3.4178,-3.5078,-3.5985,-3.6817,-3.759,-3.8256,0.0,0.0,-3.835,-3.8289,-3.884,0.0,0.0,-3.8957,-3.9681,-3.894,-3.7735,-3.6464,-3.6453,-3.4847,0.0,0.0,0.0,0.0,0.0,-2.8767,0.0,0.0,0.0,0.0,0.0,0.0,0.0,-2.4855,-2.4578,-2.4182,-2.3104,0.0,0.0,0.0,0.0,0.0,0.0,0.0,0.0,0.0,0.0,0.0,0.0,0.0,0.0,-2.5003,-2.5257,-2.5467,-2.5467,-2.5716,-2.5707,-2.5362,-2.5098,-2.4736,-2.4225,-2.4701,-2.4839,-2.4605,-2.5107,-2.5546,-2.5862,-2.6329,-2.6589,-2.6674,-2.6809,-2.6517,-2.5917,-2.6602,-2.6548,-2.6055,-2.6873,-2.7384,-2.7701,-2.7791,-2.8008,-2.8283,-2.8628,-2.8815,-2.8967,-3.3196,-3.3245,-3.3275,-3.3164,-3.4452,-3.5488,-3.5471,-3.6772,-3.747,-3.668,-3.6972,-3.7509,-3.8141,-3.8386,-3.8471,-3.8376,-3.7839,-3.7161,-3.6347,-3.5647,-3.4828,-3.3884,-3.4513,-3.4761,-3.4495,-3.4489,-3.438,-3.422,-3.3502,-3.315,-3.3168,0.0,0.0,-3.564,-3.6726,-3.754,-3.8136,0.0,0.0,-3.8153,-3.802,0.0,-3.8419,-3.8223,-3.7992,-3.7836,-3.8361,-3.7561,-3.6195,-3.572,-3.3988,-3.2001,0.0,0.0,0.0,-2.9035,0.0,0.0,0.0,0.0,0.0,0.0,0.0,0.0,-2.2297,-2.2304,-2.2397,0.0,0.0,0.0,0.0,0.0,0.0,0.0,0.0,0.0,0.0,0.0,0.0,0.0,0.0,0.0,-2.4706,-2.5033,-2.5272,-2.5272,-2.5564,-2.5545,-2.5087,-2.4808,-2.453,-2.4202,-2.4096,-2.4194,-2.4518,-2.4886,-2.5262,-2.5661,-2.6081,-2.633,-2.647,-2.6641,-2.6368,-2.5785,-2.6569,-2.6516,-2.5978,-2.6794,-2.7324,-2.7562,-2.7069,-2.7044,-2.7302,-2.7647,-2.7823,-2.7845,-3.3026,-3.2948,-3.287,-3.2753,-3.4052,-3.5101,-3.5101,-3.6185,-3.7006,-3.7041,-3.7355,-3.7734,-3.8198,-3.8433,-3.8413,0.0,-3.8077,-3.7456,-3.5943,-3.5763,-3.5124,-3.3808,-3.4424,-3.4517,-3.3927,-3.4212,-3.4103,-3.36,-3.3158,-3.2948,0.0,0.0,0.0,0.0,-3.6533,-3.7379,-3.8002,0.0,-3.8069,-3.7984,-3.7934,0.0,-3.8101,-3.8051,-3.7949,-3.7854,-3.8255,-3.7439,-3.5984,-3.4876,-3.3742,0.0,0.0,-3.0949,-3.0092,0.0,-2.8657,-2.8471,0.0,0.0,0.0,-2.5811,0.0,0.0,0.0,-2.272,-2.2496,-2.1588,0.0,0.0,0.0,0.0,0.0,0.0,0.0,0.0,0.0,0.0,0.0,0.0,0.0,0.0,-2.445,-2.4778,-2.5061,-2.5202,-2.537,-2.5134,-2.4443,-2.4475,-2.4206,-2.3572,-2.3709,-2.3988,-2.44,-2.4831,-2.5243,-2.5605,-2.6046,-2.6347,-2.6521,-2.6708,-2.6588,-2.6232,-2.6771,-2.6563,-2.588,-2.6289,-2.6437,-2.6463,-2.6492,-2.6388,-2.6246,-2.6694,-2.6881,-2.6947,-3.282,-3.2773,-3.2674,-3.2539,-3.3705,-3.4641,-3.4641,-3.5385,-3.6291,-3.7201,-3.7576,0.0,0.0,0.0,0.0,0.0,0.0,0.0,0.0,-3.5866,-3.541,-3.373,-3.4207,-3.4072,-3.3104,-3.3649,-3.3557,-3.2707,-3.285,0.0,0.0,0.0,0.0,0.0,0.0,0.0,0.0,0.0,0.0,-3.7846,0.0,-3.7915,-3.8068,-3.7984,-3.8103,-3.83,-3.8074,-3.7139,-3.5802,-3.4373,-3.3748,-3.3321,-3.2007,-3.1358,0.0,0.0,0.0,0.0,0.0,0.0,0.0,0.0,0.0,-2.5564,0.0,0.0,0.0,0.0,0.0,0.0,0.0,0.0,0.0,0.0,0.0,0.0,0.0,0.0,0.0,0.0,0.0,0.0,0.0,-2.4288,-2.4623,-2.4996,-2.5038,-2.4668,-2.3802,-2.4129,-2.3975,-2.3107,-2.3517,-2.3909,-2.4261,-2.4811,-2.5243,-2.5565,-2.6028,-2.6348,-2.6572,-2.6776,-2.6724,-2.6555,-2.6905,-2.6594,-2.583,-2.5833,-2.5586,-2.5275,-2.5714,-2.5621,-2.5293,-2.5775,-2.6014,-2.6137,-3.2506,-3.249,-3.2405,-3.2266,-3.2895,-3.3399,-3.3399,-3.4156,-3.5077,0.0,0.0,0.0,0.0,0.0,0.0,0.0,0.0,0.0,-3.6021,0.0,-3.5283,-3.3593,-3.3484,-3.3337,-3.3028,-3.2811,-3.2629,-3.2457,-3.2985,-3.3246,0.0,0.0,0.0,0.0,-3.704,0.0,0.0,0.0,-3.7685,0.0,-3.7503,-3.7667,0.0,-3.781,-3.7862,-3.7945,-3.7225,-3.6425,-3.5634,0.0,-3.3719,-3.2605,0.0,-3.1329,-3.0167,-2.9859,0.0,0.0,0.0,0.0,0.0,0.0,-2.5676,0.0,0.0,0.0,-2.225,-2.1646,0.0,0.0,0.0,0.0,0.0,0.0,0.0,0.0,0.0,0.0,0.0,0.0,0.0,0.0,0.0,-2.3232,-2.3662,-2.4341,-2.4409,-2.4162,-2.3644,-2.3988,-2.4052,-2.3699,-2.3652,-2.3788,-2.412,-2.471,-2.5123,-2.5352,-2.5826,-2.6171,-2.6418,-2.6555,-2.6403,-2.6018,-2.6652,-2.6564,-2.5971,-2.5913,-2.5545,-2.4965,-2.4273,-2.4299,-2.4722,-2.4962,-2.516,-2.5366,-3.2232,-3.2179,-3.2073,-3.1983,-3.2625,-3.3128,-3.3036,-3.3848,-3.4646,0.0,0.0,0.0,0.0,0.0,0.0,0.0,0.0,-3.7764,0.0,0.0,0.0,-3.418,-3.3481,-3.3011,-3.277,-3.259,-3.237,-3.2108,-3.2784,-3.3111,0.0,0.0,0.0,0.0,-3.6717,0.0,-3.7522,0.0,-3.7559,0.0,0.0,0.0,0.0,-3.7595,-3.7631,-3.7667,-3.686,-3.6122,-3.5415,0.0,-3.3704,0.0,0.0,0.0,0.0,0.0,0.0,0.0,0.0,0.0,0.0,0.0,0.0,0.0,-2.3736,0.0,-2.2296,0.0,0.0,0.0,0.0,0.0,0.0,0.0,-1.9759,0.0,0.0,0.0,0.0,0.0,0.0,0.0,0.0,0.0,0.0,0.0,-2.3999,-2.3737,-2.3618,-2.39,-2.3812,-2.3172,-2.3656,-2.3977,-2.403,-2.4528,-2.4946,-2.5314,-2.5661,-2.6012,-2.6348,-2.652,-2.6489,-2.6335,-2.6853,-2.6402,-2.5305,-2.5322,-2.4732,-2.3805,-2.3348,-2.3358,-2.3656,-2.4003,-2.4216,-2.4377,-3.173,-3.1785,-3.1802,-3.1726,-3.2211,-3.2555,-3.2479,-3.3116,-3.3845,0.0,0.0,0.0,-3.7211,-3.7577,0.0,0.0,-3.8096,-3.7892,0.0,0.0,-3.5515,0.0,0.0,0.0,0.0,-3.2439,-3.2197,-3.1821,-3.2524,-3.2846,0.0,0.0,0.0,0.0,0.0,-3.6913,-3.7298,0.0,-3.7318,-3.7576,-3.7336,-3.7299,-3.7411,-3.7392,-3.7392,-3.7358,-3.679,-3.6007,-3.515,-3.4613,-3.3786,0.0,-3.2031,0.0,0.0,0.0,0.0,0.0,-2.8379,0.0,0.0,0.0,0.0,0.0,0.0,0.0,0.0,0.0,0.0,0.0,0.0,0.0,0.0,0.0,0.0,0.0,0.0,0.0,0.0,0.0,0.0,0.0,0.0,0.0,0.0,0.0,0.0,-2.3242,-2.3395,-2.3649,-2.355,-2.2974,-2.3662,-2.3993,-2.394,-2.4385,-2.4791,-2.5178,-2.5511,-2.5848,-2.6189,-2.6417,-2.6572,-2.664,-2.6784,-2.6191,-2.5129,-2.4758,-2.4102,-2.3279,-2.2946,-2.2876,-2.2977,-2.345,-2.3682,-2.3788,-3.0865,-3.1257,0.0,-3.1517,-3.1423,-3.1349,-3.1349,-3.1479,0.0,0.0,0.0,0.0,0.0,0.0,0.0,0.0,0.0,-3.8205,-3.6628,0.0,-3.5875,0.0,0.0,-3.264,0.0,0.0,-3.1947,-3.1617,-3.2215,0.0,0.0,0.0,0.0,0.0,0.0,-3.6402,-3.6564,-3.6871,-3.693,-3.6831,-3.6811,-3.6768,-3.6766,0.0,-3.7182,-3.7029,-3.7054,0.0,0.0,-3.5013,-3.4034,0.0,0.0,0.0,0.0,0.0,0.0,0.0,0.0,0.0,0.0,-2.7289,0.0,0.0,0.0,0.0,-2.4433,0.0,0.0,0.0,0.0,0.0,0.0,0.0,0.0,0.0,0.0,0.0,0.0,0.0,0.0,0.0,0.0,0.0,0.0,0.0,0.0,0.0,-2.2905,-2.3192,-2.3444,-2.3659,-2.3561,-2.3611,-2.3797,-2.4328,-2.4666,-2.4822,-2.5352,-2.5712,-2.5917,-2.6189,-2.6452,-2.6674,-2.6159,-2.5992,-2.5939,-2.4527,-2.3983,-2.399,-2.3197,-2.2944,-2.3052,-2.3518,-2.3785,-2.3927,-3.0518,-3.0597,-3.0736,0.0,0.0,0.0,0.0,-3.1718,0.0,0.0,0.0,0.0,0.0,-3.7171,-3.7263,0.0,0.0,-3.8504,-3.8042,-3.7451,0.0,0.0,0.0,-3.3952,0.0,0.0,0.0,0.0,0.0,0.0,0.0,0.0,0.0,0.0,0.0,-3.5958,0.0,0.0,0.0,0.0,0.0,-3.6527,-3.6464,0.0,0.0,-3.6806,-3.6826,-3.5871,0.0,-3.4689,-3.3688,-3.2384,-3.2122,-3.1539,-3.081,-3.0017,-2.9286,0.0,0.0,0.0,-2.8014,-2.7816,0.0,0.0,0.0,0.0,0.0,0.0,0.0,0.0,0.0,0.0,0.0,0.0,0.0,0.0,0.0,0.0,0.0,0.0,0.0,0.0,0.0,0.0,0.0,0.0,0.0,0.0,0.0,-2.2569,-2.279,-2.2976,-2.3518,-2.377,-2.3596,-2.4051,-2.439,-2.4666,-2.5068,-2.5435,-2.5791,-2.601,-2.6011,-2.5865,-2.6267,-2.5729,-2.4577,-2.4662,-2.4143,-2.331,-2.3195,-2.3205,-2.3289,-2.3486,-2.3624,-2.3828,-3.0342,-3.0098,0.0,0.0,0.0,0.0,0.0,0.0,0.0,0.0,-3.5364,0.0,-3.7404,0.0,-3.7344,0.0,-3.8134,-3.8311,-3.8428,-3.7627,0.0,-3.5996,-3.5073,0.0,0.0,0.0,0.0,0.0,0.0,-3.249,0.0,0.0,0.0,0.0,0.0,-3.5492,-3.5954,0.0,-3.5958,0.0,0.0,-3.617,0.0,0.0,-3.6416,-3.6423,0.0,-3.5292,-3.4185,-3.4001,-3.3082,-3.2003,-3.1724,-3.115,-3.0504,-2.9997,-2.9171,-2.8388,-2.8282,-2.8065,0.0,-2.794,-2.7565,0.0,-2.7272,0.0,0.0,0.0,0.0,0.0,0.0,0.0,0.0,0.0,0.0,0.0,0.0,-2.1142,0.0,0.0,0.0,0.0,0.0,0.0,0.0,0.0,0.0,0.0,0.0,0.0,-2.2158,-2.2226,-2.3202,-2.3665,-2.3487,-2.3888,-2.4245,-2.4564,-2.489,-2.5282,-2.5663,-2.5864,-2.5756,-2.5429,-2.5763,-2.5105,-2.3777,-2.4147,-2.3744,-2.2932,-2.3119,-2.343,-2.3738,-2.3611,-2.3642,-2.3904,-3.0338,-2.9867,0.0,0.0,-3.1028,0.0,0.0,0.0,-3.3628,0.0,-3.5905,-3.6405,-3.7413,-3.7573,-3.7577,-3.7464,-3.756,-3.7671,-3.7773,-3.7119,0.0,0.0,-3.4814,-3.4123,-3.3803,0.0,0.0,0.0,0.0,0.0,0.0,0.0,0.0,0.0,-3.4133,0.0,-3.5201,-3.5333,-3.5447,-3.5577,-3.5689,-3.5684,-3.5577,-3.5706,-3.5839,-3.5851,-3.521,-3.4415,-3.3601,-3.3048,-3.2309,-3.1478,-3.0831,-3.0092,-2.9489,-2.9557,-2.8535,-2.756,-2.838,-2.8113,-2.7585,-2.7657,0.0,0.0,0.0,0.0,-2.6839,0.0,0.0,0.0,0.0,0.0,0.0,0.0,0.0,0.0,0.0,0.0,0.0,0.0,0.0,0.0,0.0,0.0,0.0,0.0,0.0,0.0,0.0,0.0,-2.1561,-2.1647,-2.2673,-2.3304,-2.3487,-2.3858,-2.4178,-2.4451,-2.4846,-2.5188,-2.5556,-2.5791,-2.5687,-2.5295,-2.4769,-2.4209,-2.3601,-2.3066,-2.2894,-2.2958,-2.3035,-2.3633,-2.4408,-2.3929,-2.3857,-2.4115,-3.0227,-2.9879,-2.9942,0.0,-3.1098,-3.1358,0.0,0.0,0.0,0.0,-3.5836,-3.6778,-3.7698,-3.7871,-3.7952,-3.8122,-3.8155,0.0,0.0,0.0,0.0,-3.6115,-3.5773,-3.5403,-3.4964,-3.4297,0.0,-3.34,0.0,0.0,-3.1975,0.0,0.0,0.0,0.0,0.0,-3.3813,-3.4658,-3.5048,-3.5071,-3.5135,-3.5111,0.0,0.0,-3.5251,-3.5134,-3.4759,-3.4122,-3.3371,-3.2689,-3.1941,-3.1257,-3.1108,-3.0139,-2.9086,-2.9193,-2.8152,-2.704,-2.7406,-2.7368,-2.7277,-2.745,-2.7509,-2.7554,0.0,0.0,0.0,0.0,0.0,0.0,0.0,0.0,0.0,0.0,0.0,0.0,0.0,0.0,0.0,-2.1246,0.0,0.0,0.0,0.0,0.0,0.0,0.0,0.0,0.0,0.0,0.0,-2.2425,-2.2111,-2.2353,-2.3326,-2.3314,-2.3422,-2.3699,-2.4634,-2.4974,-2.4808,-2.5706,-2.5543,-2.4526,-2.5089,-2.4364,-2.285,-2.3343,-2.3607,-2.3732,-2.3902,-2.4544,-2.5306,-2.4724,-2.4306,-2.4052,-3.0596,-3.0008,0.0,-3.0045,0.0,0.0,-3.1612,-3.2901,0.0,-3.4906,-3.5951,0.0,-3.7442,-3.7891,-3.8173,-3.8263,-3.7743,0.0,-3.7438,0.0,0.0,-3.5778,-3.5761,-3.5583,-3.5188,-3.4701,0.0,-3.3819,0.0,0.0,-3.1932,0.0,0.0,0.0,0.0,-3.2579,0.0,-3.4015,-3.4292,-3.4055,-3.4463,0.0,0.0,-3.4691,-3.4667,-3.4463,-3.369,-3.3267,-3.2923,-3.1867,-3.123,-3.0845,-3.0563,-2.9621,-2.8667,-2.8812,-2.8023,-2.7147,-2.7318,-2.7368,-2.7366,-2.7156,-2.7119,-2.7182,-2.731,-2.7448,-2.7328,0.0,0.0,0.0,0.0,0.0,0.0,0.0,0.0,0.0,0.0,0.0,0.0,0.0,-2.123,0.0,0.0,0.0,0.0,0.0,0.0,0.0,0.0,0.0,0.0,-2.1499,-2.1986,-2.2309,-2.2471,-2.2821,-2.3202,-2.3577,-2.4321,-2.4882,-2.5258,-2.5899,-2.5661,-2.4727,-2.4908,-2.4392,-2.3417,-2.363,-2.4026,-2.4538,-2.5178,-2.5538,-2.5712,-2.5883,-2.5301,-2.4452,-3.1009,-3.0155,0.0,0.0,0.0,0.0,0.0,-3.3083,0.0,-3.4945,0.0,-3.6455,-3.6702,-3.7542,-3.8032,-3.7892,0.0,-3.6405,-3.7202,-3.5878,-3.5121,-3.5265,-3.5255,-3.5138,-3.4936,-3.4813,-3.4497,0.0,0.0,0.0,0.0,0.0,0.0,0.0,0.0,0.0,0.0,-3.3269,-3.3299,-3.2876,-3.3759,-3.4075,-3.4,-3.4151,-3.4126,-3.3822,-3.2515,-3.2294,-3.2375,-3.0901,-3.0405,-3.0285,-2.9696,-2.892,-2.8229,-2.8326,-2.7888,-2.7379,-2.7441,-2.7562,-2.7516,-2.6775,-2.6624,-2.6674,-2.6876,-2.7039,-2.6976,-2.6413,-2.5816,-2.5208,0.0,0.0,0.0,0.0,0.0,0.0,0.0,0.0,0.0,0.0,0.0,0.0,0.0,0.0,0.0,0.0,0.0,0.0,0.0,0.0,0.0,-2.009,-2.1852,-2.2404,-2.1602,0.0,-2.3137,-2.3872,-2.406,-2.4822,-2.6074,-2.6209,-2.588,-2.5195,-2.4542,-2.4301,-2.4367,-2.3809,-2.4236,-2.5343,-2.6527,-2.6513,-2.5948,-2.6957,-2.6344,-2.5023,-3.0499,0.0,0.0,0.0,0.0,-3.1224,-3.1443,-3.2345,-3.3049,-3.3212,-3.4292,-3.511,-3.5341,-3.6225,-3.6823,-3.6771,-3.6027,0.0,0.0,0.0,0.0,-3.5588,-3.5101,-3.4898,-3.5054,-3.4316,-3.3761,0.0,0.0,0.0,0.0,0.0,0.0,0.0,0.0,0.0,-3.192,-3.1993,0.0,-3.2297,-3.2977,-3.3314,-3.345,-3.3581,-3.3555,-3.3339,-3.259,-3.224,-3.1885,-3.0406,-2.9853,-2.975,-2.962,-2.8704,-2.7636,-2.7656,-2.725,-2.6645,-2.6173,-2.6527,-2.6895,-2.6208,-2.6207,-2.6383,-2.6418,-2.6607,-2.6791,-2.6788,-2.5783,-2.4913,-2.4875,0.0,0.0,0.0,0.0,0.0,0.0,0.0,0.0,0.0,0.0,-2.145,0.0,0.0,0.0,0.0,0.0,0.0,0.0,0.0,0.0,0.0,-2.0397,0.0,0.0,0.0,-2.2372,-2.4214,-2.4374,-2.4762,-2.5396,-2.6219,-2.5782,-2.4345,-2.4464,-2.4107,-2.3446,-2.3488,-2.4472,-2.6033,-2.7081,-2.7052,-2.6486,-2.6841,-2.6116,-2.4949,0.0,0.0,0.0,0.0,0.0,0.0,0.0,-3.1204,0.0,-3.2185,-3.316,-3.3912,-3.4136,-3.5011,-3.5589,-3.566,-3.5102,-3.4765,-3.4818,-3.4201,-3.3935,-3.4188,-3.412,0.0,-3.4011,-3.3724,-3.3408,-3.3049,0.0,0.0,0.0,0.0,0.0,0.0,0.0,-3.0369,0.0,0.0,0.0,-3.1535,-3.2365,-3.2753,-3.285,-3.2888,-3.2904,-3.271,-3.1701,-3.1275,-3.1058,-3.0234,-2.9628,-2.9187,-2.8837,-2.8265,-2.7545,-2.683,-2.6748,-2.6683,-2.567,-2.5989,-2.6419,-2.571,-2.5682,-2.5848,-2.5921,-2.6137,-2.6166,-2.5563,-2.4982,-2.4417,-2.3807,-2.3086,0.0,0.0,0.0,0.0,0.0,0.0,0.0,0.0,0.0,0.0,0.0,0.0,0.0,0.0,0.0,-1.9992,0.0,0.0,0.0,0.0,0.0,0.0,0.0,0.0,0.0,-2.4253,-2.4538,-2.5104,-2.595,-2.6387,-2.6135,-2.533,-2.4995,-2.4828,-2.4795,-2.4694,-2.5212,-2.6079,-2.631,-2.6212,-2.5967,-2.6312,-2.5763,-2.4886,0.0,-2.867,0.0,0.0,-2.884,0.0,-2.9986,-3.016,-3.0509,-3.1349,-3.2103,-3.2638,-3.2869,-3.3571,-3.4052,-3.4125,-3.3827,-3.3626,-3.3626,-3.31,-3.2839,-3.2924,-3.3112,-3.3139,-3.3022,-3.3101,-3.2942,0.0,0.0,0.0,0.0,0.0,0.0,0.0,0.0,0.0,0.0,0.0,-3.0757,-3.083,-3.1789,-3.216,-3.2216,-3.2216,-3.2139,-3.1879,-3.0823,-3.0256,-2.9997,-2.9844,-2.9326,-2.8662,-2.8124,-2.7859,-2.7508,-2.6374,-2.6594,-2.6861,-2.5474,-2.5681,-2.608,-2.5223,-2.513,-2.5262,-2.5397,-2.5494,-2.5322,-2.4529,-2.4313,-2.3832,-2.2561,-2.2293,0.0,0.0,0.0,0.0,0.0,0.0,0.0,0.0,0.0,0.0,-2.1119,0.0,0.0,0.0,0.0,-1.9951,-1.9811,-2.005,-2.0055,0.0,0.0,-2.1149,-2.1158,0.0,-2.2959,-2.448,-2.4728,-2.5459,-2.6589,-2.6554,-2.6401,-2.6114,-2.5428,-2.546,-2.5977,-2.5746,-2.5751,-2.5857,-2.5374,-2.5115,-2.5061,-2.5511,-2.5195,-2.4599,0.0,0.0,0.0,0.0,0.0,0.0,-2.962,-2.9775,-3.0054,-3.0628,-3.0866,-3.1043,-3.1205,-3.1571,-3.1746,-3.1557,-3.1887,-3.2112,-3.2112,-3.2148,-3.2545,-3.3314,-3.2619,-3.2532,-3.3161,-3.2311,-3.1838,0.0,0.0,-3.0618,0.0,0.0,0.0,0.0,0.0,0.0,0.0,-2.9605,-3.0084,-3.0428,-3.1126,-3.1481,-3.1566,-3.1566,-3.1249,-3.0739,-3.0618,-2.9793,-2.8767,-2.8744,-2.8521,-2.8244,-2.8183,-2.7714,-2.7123,-2.6853,-2.6947,-2.6803,-2.5463,-2.5674,-2.5984,-2.4709,-2.4528,-2.471,-2.4835,-2.4467,-2.4321,-2.5099,-2.4414,-2.3293,-2.2002,-2.1769,-2.1492,0.0,0.0,0.0,0.0,0.0,0.0,0.0,0.0,0.0,0.0,-2.0941,0.0,0.0,-2.061,-2.0473,-2.1336,-2.0632,-2.0445,-2.1,0.0,-2.1035,-2.2581,-2.1935,-2.2862,-2.5371,-2.5096,-2.5561,-2.6589,-2.6589,-2.6032,-2.5058,-2.5162,-2.5128,-2.5056,-2.538,-2.5544,-2.5493,-2.5026,-2.4511,-2.407,-2.4433,-2.4183,-2.3757,0.0,0.0,0.0,0.0,0.0,0.0,0.0,-2.9471,-2.9771,-2.9885,-3.0018,-3.0273,-3.0754,-3.0605,-3.0494,-3.0524,-3.0763,-3.0955,-3.0955,-3.1262,-3.1555,-3.1824,-3.1716,-3.1686,-3.1883,-3.1469,-3.1234,0.0,0.0,0.0,0.0,0.0,0.0,0.0,0.0,-2.8312,-2.8397,-2.9218,-2.9857,-3.0323,-3.0734,-3.0925,-3.097,-3.097,-3.0572,-2.9954,-2.9587,-2.8851,-2.7998,-2.7589,-2.7594,-2.7715,-2.7715,-2.746,-2.7046,-2.6554,-2.6445,-2.6234,-2.5017,-2.492,-2.4957,-2.4094,-2.3994,-2.412,-2.4183,-2.3844,-2.3608,-2.4049,-2.361,-2.2887,-2.2037,-2.1876,-2.1633,0.0,0.0,0.0,0.0,0.0,0.0,0.0,0.0,0.0,0.0,0.0,0.0,0.0,0.0,-2.0706,-2.0983,-2.0961,-2.0817,-2.0606,0.0,-2.1173,-2.2792,-2.2259,-2.2942,-2.4847,-2.4907,-2.5297,-2.5941,-2.5941,-2.574,-2.5355,-2.5034,-2.4852,-2.4734,-2.4116,-2.3946,-2.394,-2.3352,-2.3124,-2.316,-2.3367,-2.3439,-2.3435,-2.9598,0.0,-2.8658,0.0,-2.8549,-2.8403,-2.8698,-2.9233,-2.9612,-2.9617,-2.9522,-2.9776,-3.0583,-3.0175,-2.9904,-3.006,-3.0278,-3.033,-3.0174,-3.0448,-3.073,-3.0949,-3.0879,0.0,-3.1085,-3.079,-3.0628,-3.0598,-3.0434,0.0,0.0,0.0,0.0,0.0,-2.7651,-2.7963,-2.8307,-2.9051,-2.9654,-3.016,-3.0266,-3.0296,-3.0296,-3.0296,-2.9893,-2.9231,-2.8627,-2.7994,-2.7347,-2.6673,-2.6683,-2.7,-2.7141,-2.7089,-2.6883,-2.6323,-2.6141,-2.5883,-2.4887,-2.4473,-2.4227,-2.3725,-2.3548,-2.3501,-2.3588,-2.3227,-2.2849,-2.2772,-2.2586,-2.2337,-2.1994,-2.1638,-2.131,-2.0959,0.0,0.0,0.0,0.0,0.0,0.0,-2.0392,-2.0392,-2.0289,-2.0256,0.0,0.0,0.0,0.0,-2.0719,-2.1048,0.0,0.0,0.0,0.0,0.0,-2.2215,-2.2732,-2.4354,-2.45,-2.4891,-2.5465,-2.5424,-2.5516,-2.5652,-2.4822,-2.4513,-2.4523,-2.321,-2.2749,-2.2807,-2.2197,-2.2158,-2.248,-2.2668,-2.2914,-2.318,-2.8951,-2.8915,-2.877,-2.8374,-2.8795,-2.9048,-2.8657,-2.9052,-2.9574,-3.0032,-2.9588,-2.9561,-3.0508,-3.0256,-2.9997,-2.9997,-3.0423,-3.0428,-2.9851,-2.9808,-3.0261,0.0,0.0,-3.0275,-3.1277,-3.0335,-2.9901,-3.0099,0.0,0.0,-2.8589,0.0,-2.7291,-2.8647,-2.7716,-2.7891,-2.8916,-2.9187,-2.9484,-2.9777,-2.9651,-2.9602,-2.9602,-2.9602,-2.9209,-2.8533,-2.7945,-2.7326,-2.6722,-2.6104,-2.5921,-2.6002,-2.6551,-2.6616,-2.6484,-2.6336,-2.619,-2.5955,-2.5277,-2.4654,-2.4106,-2.3712,-2.3161,-2.2777,-2.3061,-2.2586,-2.1984,-2.1512,-2.1525,-2.164,-2.1782,-2.0834,-2.0218,-2.0807,0.0,0.0,0.0,0.0,0.0,0.0,-1.9806,-1.9785,-1.9711,-1.9708,0.0,0.0,0.0,0.0,0.0,0.0,0.0,-2.1773,-2.1153,0.0,-2.309,-2.165,-2.206,-2.4302,-2.3955,-2.4376,-2.5387,-2.5208,-2.5323,-2.5633,-2.4435,-2.4108,-2.4305,-2.2959,-2.2492,-2.2555,-2.2002,-2.1943,-2.2153,-2.2473,-2.2694,-2.2825,-2.8922,-2.897,-2.8926,-2.8556,-2.8763,-2.8935,-2.8824,-2.9171,-2.9452,-2.9484,-2.9319,-2.9566,-3.0569,-2.994,-2.9552,0.0,-3.0086,-3.0193,0.0,-3.0479,-3.0825,-3.1134,-3.0853,-3.0643,-3.0562,-3.0532,-3.0174,-2.9432,0.0,0.0,0.0,-2.7424,-2.7216,-2.7412,-2.751,-2.781,-2.8249,-2.8872,-2.9243,-2.9306,-2.9135,-2.9071,-2.904,-2.8958,-2.8492,-2.7862,-2.7289,-2.6744,-2.6225,-2.5632,-2.5425,-2.5439,-2.5633,-2.5797,-2.5961,-2.5907,-2.5688,-2.537,-2.4842,-2.4257,-2.3671,-2.3108,-2.26,-2.2263,-2.2333,-2.2315,-2.2136,-2.1542,-2.1823,-2.2113,-2.1784,-2.148,-2.1057,-2.0401,-2.018,0.0,0.0,0.0,0.0,-1.931,-1.9616,-1.9685,-1.9395,-1.9972,0.0,0.0,0.0,0.0,0.0,0.0,0.0,0.0,-2.1679,0.0,-2.3098,-2.2277,-2.2444,-2.361,-2.3145,-2.3339,-2.4142,-2.4748,-2.5127,-2.5253,-2.4561,-2.3948,-2.3387,-2.2698,-2.2135,-2.1696,-2.1531,-2.169,-2.2039,-2.2139,-2.2392,-2.2664,-2.8742,-2.8871,-2.8862,-2.8399,-2.8673,-2.8933,-2.8804,-2.9174,-2.9416,-2.929,-2.9341,-2.9644,-3.0279,-2.969,0.0,-3.01,-3.0187,-3.0186,-3.0089,-3.0371,-3.061,-3.0725,-3.0692,-3.0561,-3.0276,-3.028,0.0,-2.9154,-2.916,-2.8736,-2.7863,-2.7426,-2.7251,-2.735,-2.7449,-2.7751,-2.8188,-2.8552,-2.8734,-2.8798,-2.8605,-2.8527,-2.85,-2.8201,-2.7813,-2.7337,-2.656,-2.6094,-2.5747,-2.518,-2.4977,-2.4977,-2.4977,-2.5118,-2.5314,-2.5342,-2.5174,-2.4895,-2.4516,-2.3974,-2.3378,-2.2821,-2.2285,-2.1827,-2.1667,-2.1793,-2.1838,-2.1403,-2.1592,-2.1786,-2.1676,-2.1379,-2.0855,-2.0012,-1.9809,-1.9478,-1.8715,0.0,0.0,0.0,0.0,0.0,0.0,-1.9836,-2.0203,0.0,0.0,0.0,0.0,0.0,0.0,-2.1154,-2.1298,0.0,-2.2497,-2.167,-2.1755,-2.2819,-2.2937,-2.3309,-2.3935,-2.4543,-2.4985,-2.525,-2.4617,-2.404,-2.349,-2.2698,-2.2118,-2.1713,-2.1422,-2.1494,-2.1794,-2.1853,-2.2058,-2.2271,-2.8431,-2.8618,-2.8567,0.0,-2.8553,0.0,-2.8659,-2.9057,-2.9328,-2.933,-2.9548,-2.974,-2.9703,-2.9548,-2.9745,-3.0566,0.0,0.0,0.0,-2.9764,-2.9891,-3.0086,-3.0052,-3.0081,-3.0262,-2.9558,-2.9188,-2.9147,-2.8199,-2.7756,-2.7776,-2.717,-2.7358,-2.8195,-2.7525,-2.7702,-2.849,-2.8177,-2.8131,-2.8222,-2.8099,-2.8046,-2.798,-2.7421,-2.7195,-2.7017,-2.5857,-2.5402,-2.5283,-2.4758,-2.456,-2.4534,-2.4563,-2.4534,-2.4563,-2.4721,-2.4677,-2.452,-2.4334,-2.3813,-2.3206,-2.2682,-2.2049,-2.1469,-2.1014,-2.1031,-2.1131,-2.1131,-2.088,-2.0829,-2.1411,-2.0653,-1.9874,-1.9659,-1.9265,-1.8693,-1.7862,0.0,0.0,0.0,0.0,0.0,0.0,-1.9418,-1.9505,0.0,0.0,0.0,0.0,0.0,-2.0111,-2.0414,-2.0348,-2.0679,-2.1435,-2.0274,-2.0448,-2.2004,-2.321,-2.4048,-2.45,-2.4513,-2.4922,-2.5511,-2.4652,-2.4349,-2.4349,-2.2989,-2.2474,-2.2443,-2.1665,-2.1405,-2.1499,-2.1619,-2.1679,-2.1724,0.0,0.0,-2.8115,-2.8132,-2.8414,-2.8661,-2.8751,-2.8876,-2.8802,-2.8399,-2.8743,-2.8932,-2.868,-2.9285,-2.9781,-2.991,-3.0049,-3.0162,-3.0221,-3.0518,-3.0506,-3.0118,-3.0069,-2.9697,-2.8871,-2.9148,-2.9061,-2.8591,-2.7663,-2.731,-2.7556,-2.7025,-2.7092,-2.7676,-2.7392,-2.7439,-2.7769,-2.7669,-2.7656,-2.7689,-2.7536,-2.7503,-2.7456,-2.7159,-2.6961,-2.6724,-2.6031,-2.5493,-2.5031,-2.4601,-2.4184,-2.3865,-2.4024,-2.3953,-2.391,-2.4305,-2.4319,-2.42,-2.4024,-2.3438,-2.2716,-2.208,-2.1155,-2.0361,-2.0245,-2.0334,-2.0435,-2.0435,-2.0369,-2.0367,-2.051,-2.0401,-1.9978,-1.9078,-1.8929,-1.8535,-1.7476,-1.7755,0.0,0.0,-1.8937,-1.9365,-1.888,-1.9782,-2.0173,0.0,0.0,0.0,0.0,-1.973,-2.001,-2.053,-2.1107,-2.1259,-2.0978,-2.1244,-2.1575,-2.1859,-2.3081,-2.3574,-2.3477,-2.4456,-2.5005,-2.5224,-2.5102,-2.4662,-2.4026,-2.3945,-2.3476,-2.2756,-2.226,-2.2086,-2.2102,-2.1582,-2.1496,-2.1635,-2.7249,-2.7342,-2.7476,-2.7574,-2.7857,-2.8087,-2.8195,-2.8407,-2.8418,-2.8129,-2.8503,-2.8694,-2.8414,-2.8893,-2.9182,-2.9145,-2.9638,-2.9908,-2.9934,-3.0254,-3.0085,-2.9237,-2.9529,-2.9202,-2.8053,-2.8267,-2.8068,-2.7503,-2.7232,-2.7045,-2.6973,-2.6782,-2.6816,-2.7007,-2.7019,-2.7019,-2.7007,-2.7087,-2.7121,-2.7121,-2.718,-2.7146,-2.7108,-2.6662,-2.6413,-2.6236,-2.5489,-2.487,-2.4387,-2.4117,-2.3682,-2.33,-2.348,-2.345,-2.3407,-2.3603,-2.3704,-2.37,-2.339,-2.3001,-2.2414,-2.1443,-2.0531,-1.9784,-1.9497,-1.9552,-1.9642,-1.9642,-1.9708,-1.9734,-1.9734,-1.9837,-1.9611,-1.8596,-1.8364,-1.7968,-1.7055,-1.7305,0.0,-1.7608,-1.8644,-1.9133,-1.8617,-1.9484,-1.9876,-1.9437,-1.9582,0.0,-1.9388,-1.9374,-1.9664,-2.0258,-2.0637,-2.0722,-2.0468,-2.1111,-2.1295,-2.1082,-2.2491,-2.3141,-2.3182,-2.4158,-2.4731,-2.4989,-2.5224,-2.509,-2.4668,-2.448,-2.4126,-2.362,-2.2612,-2.2278,-2.2263,-2.1536,-2.1309,-2.1435,-2.6674,-2.6768,-2.6768,-2.6768,-2.7085,-2.736,-2.736,-2.7725,-2.7983,-2.794,-2.8319,-2.8502,-2.8191,-2.8271,-2.8271,-2.8191,-2.8829,-2.9243,-2.925,-2.9495,-2.9163,-2.805,-2.8635,-2.8469,-2.7379,-2.7231,-2.6901,-2.6332,-2.677,-2.6673,-2.6139,-2.6358,-2.6324,-2.6139,-2.6427,-2.6427,-2.6255,-2.644,-2.6508,-2.6508,-2.6705,-2.6773,-2.6688,-2.6059,-2.5803,-2.564,-2.4744,-2.4059,-2.3587,-2.3563,-2.3188,-2.2757,-2.2896,-2.2957,-2.2884,-2.2757,-2.2909,-2.303,-2.2684,-2.2457,-2.2055,-2.0823,-2.0044,-1.944,-1.8932,-1.8883,-1.8944,-1.8988,-1.9036,-1.9083,-1.9083,-1.9103,-1.8859,-1.8023,-1.7672,-1.7255,-1.6598,0.0,-1.7348,-1.7324,-1.8362,-1.8847,-1.8298,-1.8879,-1.912,-1.8744,-1.8656,-1.8707,-1.8946,-1.8971,-1.9219,-1.9781,-1.9794,-1.9915,-2.0165,-2.0357,-2.0434,-2.0398,-2.1775,-2.269,-2.3172,-2.3794,-2.4328,-2.4715,-2.5127,-2.5355,-2.5381,-2.4659,-2.4507,-2.4567,-2.2789,-2.2224,-2.2308,-2.144,-2.1151,-2.1167,-2.5748,-2.603,-2.6249,-2.6063,-2.6373,-2.6652,-2.6652,-2.691,-2.7018,-2.6731,-2.7283,-2.7469,-2.6799,-2.7069,-2.7199,-2.6855,-2.671,-2.7216,-2.8557,-2.8855,-2.8562,-2.7644,-2.7557,-2.7091,-2.6186,-2.6392,-2.6408,-2.6154,-2.5899,-2.5503,-2.4957,-2.5182,-2.5146,-2.4992,-2.5523,-2.5664,-2.5476,-2.5676,-2.5676,-2.5523,-2.5746,-2.5711,-2.5546,-2.5426,-2.5285,-2.5085,-2.4778,-2.3988,-2.313,-2.3219,-2.2645,-2.1944,-2.2235,-2.2223,-2.2075,-2.1932,-2.1808,-2.1827,-2.2285,-2.1806,-2.1,-2.035,-1.9603,-1.8994,-1.8978,-1.8799,-1.8743,-1.8967,-1.8747,-1.8521,-1.8521,-1.8225,-1.7727,-1.7028,-1.6976,-1.6777,-1.6101,0.0,-1.7087,-1.6998,-1.7828,-1.8298,-1.7985,-1.8421,-1.8632,-1.8404,-1.851,-1.8655,-1.8811,-1.8826,-1.8972,-1.9312,-1.9838,-2.0243,-2.0529,-1.9747,-1.9976,-2.121,-2.1515,-2.2087,-2.2891,-2.373,-2.4141,-2.423,-2.469,-2.4802,-2.4639,-2.4341,-2.4518,-2.4757,-2.2861,-2.2429,-2.2725,-2.1301,-2.0859,-2.0958,-2.52,-2.5359,-2.5485,-2.538,-2.5622,-2.5821,-2.5821,-2.6135,-2.6307,-2.6155,-2.6517,-2.6685,-2.6325,-2.6506,-2.6558,-2.6355,-2.6012,-2.6109,-2.6829,-2.7191,-2.7004,-2.6292,-2.6207,-2.5813,-2.4992,-2.5418,-2.5474,-2.5094,-2.4946,-2.4622,-2.4118,-2.4047,-2.4059,-2.4118,-2.4468,-2.4659,-2.4718,-2.4921,-2.4957,-2.4874,-2.5052,-2.5052,-2.4969,-2.4909,-2.4802,-2.4695,-2.4371,-2.3593,-2.2685,-2.2741,-2.2029,-2.1146,-2.1411,-2.1443,-2.1356,-2.1273,-2.121,-2.121,-2.1494,-2.1206,-2.062,-1.9881,-1.9449,-1.9033,-1.8514,-1.8311,-1.8254,-1.8369,-1.8251,-1.8084,-1.7882,-1.7683,-1.7379,-1.6829,-1.6445,0.0,0.0,-1.617,-1.631,-1.6348,-1.7076,-1.7512,-1.7329,-1.7623,-1.7843,-1.787,-1.7963,-1.81,-1.829,-1.8317,-1.8398,-1.8614,-1.9422,-1.9699,-1.9359,-1.9283,-1.9567,-2.0167,-2.0602,-2.1278,-2.2189,-2.2838,-2.3348,-2.3745,-2.4224,-2.4549,-2.4771,-2.4699,-2.4786,-2.4827,-2.352,-2.3096,-2.3105,-2.2048,-2.1489,-2.123,-2.4647,-2.4647,-2.4647,-2.4647,-2.4818,-2.4988,-2.4988,-2.5253,-2.5517,-2.5549,-2.5737,-2.5852,-2.581,-2.5742,-2.5677,-2.5646,-2.5199,-2.4916,-2.4916,-2.5178,-2.5238,-2.501,-2.4994,-2.4736,-2.4214,-2.4628,-2.4602,-2.4104,-2.4142,-2.3849,-2.3261,-2.3143,-2.3117,-2.3187,-2.3486,-2.3706,-2.3861,-2.4129,-2.419,-2.4154,-2.4324,-2.436,-2.4276,-2.419,-2.4154,-2.4082,-2.374,-2.3068,-2.2306,-2.2159,-2.1442,-2.0586,-2.0701,-2.07,-2.0679,-2.0679,-2.0614,-2.0539,-2.0646,-2.0561,-2.0246,-1.9511,-1.9253,-1.8976,-1.8207,-1.7968,-1.7895,-1.7967,-1.7781,-1.7554,-1.7263,-1.7054,-1.6805,-1.6472,0.0,0.0,0.0,-1.5676,-1.5603,-1.5725,-1.6294,-1.6606,-1.6485,-1.674,-1.6955,-1.7134,-1.7162,-1.7318,-1.7634,-1.7634,-1.7744,-1.8002,-1.8895,-1.9105,-1.8567,-1.8978,-1.922,-1.9326,-1.9819,-2.0532,-2.1434,-2.2072,-2.2563,-2.2981,-2.3791,-2.4199,-2.4316,-2.4556,-2.4622,-2.4465,-2.3631,-2.3324,-2.3238,-2.2593,-2.2059,-2.1701,-2.3841,-2.3884,-2.3884,-2.3884,-2.411,-2.4282,-2.4282,-2.4282,-2.4401,-2.4594,-2.485,-2.4893,-2.4669,-2.4399,-2.4199,-2.3981,-2.3556,-2.3286,-2.3286,-2.3087,-2.3397,-2.4408,-2.4155,-2.4098,-2.428,-2.4325,-2.4174,-2.382,-2.3662,-2.309,-2.2214,-2.259,-2.244,-2.1959,-2.274,-2.2964,-2.2852,-2.3224,-2.3298,-2.315,-2.3324,-2.3287,-2.3113,-2.3113,-2.3113,-2.3075,-2.2852,-2.2442,-2.197,-2.1523,-2.098,-2.0462,-2.0238,-2.0085,-1.9966,-1.9966,-1.9704,-1.9506,-1.9868,-1.9835,-1.9594,-1.9233,-1.8788,-1.8451,-1.8468,-1.8127,-1.7913,-1.8225,-1.7484,-1.6774,-1.6776,-1.6077,-1.5508,-1.5323,0.0,0.0,-1.5099,-1.5255,-1.5361,-1.5274,-1.5516,-1.5642,-1.5526,-1.5787,-1.5989,-1.6017,-1.6132,-1.64,-1.6874,-1.6864,-1.7145,-1.7711,-1.8344,-1.8871,-1.9297,-1.8818,-1.902,-1.9927,-1.974,-2.0061,-2.0894,-2.1988,-2.2144,-2.1646,-2.3489,-2.3493,-2.2274,-2.3031,-2.3396,-2.3409,-2.2297,-2.2364,-2.3015,-2.2167,-2.2026,-2.2228,-2.3144,-2.3188,-2.3188,-2.3188,-2.3363,-2.3537,-2.3537,-2.3754,-2.3927,-2.3874,-2.409,-2.4133,-2.3917,-2.3884,-2.3878,-2.3803,-2.3397,-2.3143,-2.3143,-2.2798,-2.2764,-2.3145,-2.3025,-2.3003,-2.3102,-2.3113,-2.3075,-2.2934,-2.2363,-2.1896,-2.154,-2.1146,-2.0982,-2.1069,-2.1367,-2.1672,-2.1959,-2.2101,-2.2214,-2.2252,-2.2327,-2.2327,-2.2252,-2.2252,-2.2252,-2.2252,-2.2176,-2.1844,-2.1413,-2.1245,-2.0617,-1.9865,-1.9745,-1.9494,-1.9208,-1.9208,-1.9108,-1.9008,-1.9008,-1.9175,-1.9208,-1.8808,-1.8519,-1.8272,-1.8051,-1.7803,-1.76,-1.7619,-1.7287,-1.6916,-1.6618,-1.6228,-1.5873,-1.561,0.0,-1.5058,-1.5177,-1.5098,-1.5055,-1.5078,-1.5348,-1.5426,-1.5195,-1.542,-1.5555,-1.5459,-1.572,-1.598,-1.6228,-1.6513,-1.6853,-1.7245,-1.7617,-1.7978,-1.8353,-1.8238,-1.8505,-1.9145,-1.9207,-1.9632,-2.0472,-2.1299,-2.1631,-2.1597,-2.2781,-2.3038,-2.2672,-2.3143,-2.3327,-2.329,-2.2909,-2.2906,-2.3099,-2.2951,-2.2731,-2.2526,-2.2574,-2.2583,-2.2583,-2.2662,-2.2794,-2.2882,-2.2882,-2.3135,-2.3309,-2.3188,-2.3276,-2.3319,-2.3188,-2.3276,-2.3353,-2.3353,-2.3183,-2.3057,-2.3057,-2.2767,-2.2494,-2.2314,-2.226,-2.2138,-2.2035,-2.2138,-2.2101,-2.1939,-2.1413,-2.1064,-2.0896,-2.035,-2.0144,-2.0216,-2.0411,-2.0683,-2.0992,-2.1233,-2.1377,-2.153,-2.153,-2.153,-2.1492,-2.1454,-2.1415,-2.1415,-2.1415,-2.1212,-2.0927,-2.0785,-2.0228,-1.9596,-1.9455,-1.9103,-1.872,-1.8502,-1.8462,-1.8438,-1.8245,-1.8371,-1.8573,-1.8381,-1.8134,-1.7886,-1.7604,-1.7373,-1.7141,-1.6968,-1.6789,-1.6547,-1.6163,-1.5893,-1.5698,-1.5467,-1.5037,-1.476,-1.4831,-1.4787,-1.4702,-1.4552,-1.4897,-1.501,-1.4712,-1.4902,-1.504,-1.4971,-1.5216,-1.5488,-1.5729,-1.6132,-1.6513,-1.6797,-1.7043,-1.7285,-1.7573,-1.7886,-1.8225,-1.86,-1.8918,-1.9459,-2.022,-2.0981,-2.1311,-2.1335,-2.2289,-2.2472,-2.2134,-2.2723,-2.2863,-2.2702,-2.2936,-2.2979,-2.2971,-2.3268,-2.3139,-2.2852,-2.2052,-2.2097,-2.2141,-2.2353,-2.2397,-2.2388,-2.2388,-2.2388,-2.2388,-2.2388,-2.2388,-2.2388,-2.2388,-2.2397,-2.2397,-2.2397,-2.2618,-2.2803,-2.2803,-2.2787,-2.2567,-2.2127,-2.1891,-2.1617,-2.1205,-2.1578,-2.1492,-2.0905,-2.1026,-2.0788,-2.0313,-2.0438,-2.004,-1.9341,-1.9981,-2.0147,-1.9942,-2.0595,-2.0905,-2.0905,-2.0905,-2.0905,-2.0867,-2.0673,-2.0605,-2.0605,-2.0605,-2.0605,-2.0537,-2.0068,-1.9874,-1.9796,-1.9321,-1.8893,-1.8475,-1.7865,-1.7706,-1.7681,-1.7529,-1.7505,-1.7564,-1.7906,-1.7588,-1.7201,-1.7201,-1.689,-1.6542,-1.6342,-1.5868,-1.5436,-1.5257,-1.4881,-1.4609,-1.4609,-1.4609,-1.4408,-1.3891,-1.4265,-1.432,-1.3574,-1.3986,-1.4227,-1.4024,-1.4169,-1.4348,-1.4469,-1.4617,-1.4913,-1.5381,-1.5729,-1.6056,-1.6384,-1.6648,-1.6959,-1.7306,-1.7822,-1.8275,-1.8587,-1.9001,-1.9566,-2.0232,-2.1161,-2.1209,-2.0666,-2.2082,-2.1695,-2.0207,-2.1467,-2.1713,-2.1352,-2.1954,-2.237,-2.2623,-2.2822,-2.3083,-2.3319,-2.132,-2.132,-2.1365,-2.1401,-2.1553,-2.1741,-2.1874,-2.1909,-2.1909,-2.1909,-2.1909,-2.1909,-2.1909,-2.2097,-2.2264,-2.2397,-2.2485,-2.253,-2.253,-2.227,-2.2053,-2.1878,-2.1699,-2.1478,-2.1215,-2.0876,-2.0673,-2.0683,-2.0134,-1.9818,-1.9805,-1.9549,-1.9381,-1.9301,-1.9499,-1.9627,-1.9715,-1.9912,-2.0059,-2.0216,-2.0216,-2.0098,-1.999,-2.0098,-2.002,-1.9912,-2.0059,-2.002,-1.9893,-1.9916,-1.944,-1.8712,-1.8038,-1.7726,-1.7568,-1.7411,-1.7235,-1.7176,-1.7279,-1.7063,-1.6994,-1.7529,-1.7323,-1.7003,-1.7003,-1.6621,-1.6202,-1.6,-1.5703,-1.5407,-1.5056,-1.4903,-1.4759,-1.4611,-1.4401,-1.4232,-1.4228,-1.4377,-1.4371,-1.4077,-1.4321,-1.4373,-1.4089,-1.4087,-1.407,-1.4001,-1.4359,-1.4775,-1.5225,-1.5585,-1.5894,-1.6181,-1.6495,-1.6797,-1.7078,-1.7562,-1.7947,-1.8247,-1.8706,-1.9066,-1.9396,-2.0232,-2.0343,-1.9951,-2.0948,-2.1021,-2.0487,-2.1067,-2.1373,-2.1531,-2.1819,-2.2091,-2.2347,-2.2601,-2.2768,-2.2912,-2.0871,-2.0952,-2.0997,-2.0997,-2.1141,-2.1284,-2.141,-2.141,-2.141,-2.141,-2.141,-2.141,-2.141,-2.1553,-2.1667,-2.1634,-2.1599,-2.1658,-2.2001,-2.1829,-2.1654,-2.1654,-2.1459,-2.1161,-2.0692,-2.0302,-2.005,-1.9981,-1.9533,-1.9282,-1.9103,-1.8993,-1.8853,-1.8785,-1.8904,-1.9112,-1.9369,-1.9439,-1.9548,-1.9666,-1.9745,-1.9597,-1.9359,-1.9518,-1.9439,-1.925,-1.9359,-1.9359,-1.925,-1.9399,-1.8928,-1.8154,-1.7505,-1.7221,-1.7066,-1.6901,-1.676,-1.6691,-1.683,-1.6682,-1.6551,-1.6874,-1.67,-1.6456,-1.6456,-1.6096,-1.5674,-1.5478,-1.5363,-1.515,-1.4828,-1.4756,-1.4649,-1.4533,-1.4281,-1.41,-1.4036,-1.4244,-1.4287,-1.3956,-1.4255,-1.4371,-1.4028,-1.4036,-1.3996,-1.3907,-1.4219,-1.4577,-1.4961,-1.5264,-1.5614,-1.6009,-1.6257,-1.6655,-1.7179,-1.7357,-1.7617,-1.7959,-1.8329,-1.8732,-1.9107,-1.9734,-1.9927,-1.9708,-2.0295,-2.0446,-2.0308,-2.0511,-2.0835,-2.1215,-2.141,-2.1664,-2.1926,-2.2254,-2.2426,-2.2549,-2.0609,-2.0736,-2.0862,-2.0862,-2.0862,-2.0862,-2.0907,-2.0907,-2.0907,-2.0952,-2.0952,-2.0952,-2.0952,-2.0952,-2.0864,-2.0571,-2.0334,-2.0568,-2.1293,-2.1392,-2.1376,-2.1299,-2.116,-2.0683,-1.9889,-1.9836,-1.9545,-1.8962,-1.9167,-1.8941,-1.8331,-1.8625,-1.8498,-1.804,-1.8282,-1.8603,-1.8962,-1.9143,-1.9222,-1.9262,-1.9439,-1.928,-1.8962,-1.8962,-1.8851,-1.87,-1.87,-1.87,-1.8652,-1.8616,-1.8372,-1.7982,-1.7552,-1.7146,-1.6731,-1.6387,-1.6228,-1.6202,-1.6202,-1.6202,-1.6167,-1.6061,-1.5859,-1.5726,-1.5761,-1.547,-1.5133,-1.4935,-1.4872,-1.4792,-1.4605,-1.4425,-1.4325,-1.4317,-1.4173,-1.3922,-1.359,-1.3981,-1.4092,-1.3437,-1.395,-1.4229,-1.3856,-1.3971,-1.4032,-1.3946,-1.4204,-1.4444,-1.4686,-1.5037,-1.5449,-1.6003,-1.6255,-1.6722,-1.7534,-1.7288,-1.735,-1.7728,-1.7975,-1.8452,-1.9133,-1.9514,-1.9708,-1.9721,-1.9991,-1.9965,-1.9773,-1.9901,-2.0195,-2.0585,-2.086,-2.1106,-2.1423,-2.1793,-2.2044,-2.2194,-1.9853,-1.9853,-1.9899,-1.9899,-1.9899,-1.9936,-2.011,-2.0155,-2.0192,-2.0419,-2.0464,-2.051,-2.0736,-2.0789,-2.0791,-2.0882,-2.0615,-2.0381,-2.0276,-2.0521,-2.07,-2.0709,-2.0604,-2.0297,-1.9774,-1.9314,-1.8903,-1.8514,-1.8357,-1.8145,-1.7861,-1.808,-1.8235,-1.8322,-1.8152,-1.8322,-1.8772,-1.8643,-1.8683,-1.8812,-1.89,-1.8772,-1.8563,-1.8692,-1.8652,-1.8482,-1.8652,-1.8612,-1.8439,-1.8101,-1.7819,-1.7552,-1.7171,-1.6566,-1.6031,-1.6056,-1.576,-1.5453,-1.5638,-1.5568,-1.5417,-1.5417,-1.5248,-1.5185,-1.5505,-1.539,-1.5133,-1.4935,-1.4685,-1.4469,-1.4238,-1.4072,-1.3899,-1.371,-1.3674,-1.3651,-1.3729,-1.3854,-1.3911,-1.3938,-1.4061,-1.4119,-1.404,-1.3925,-1.3797,-1.3627,-1.4193,-1.4565,-1.4695,-1.5984,-1.681,-1.6988,-1.7898,-1.8225,-1.79,-1.8185,-1.822,-1.7995,-1.7952,-1.8073,-1.8356,-1.8682,-1.8934,-1.9025,-1.9198,-1.9356,-1.9486,-1.9642,-1.9914,-2.0296,-2.0472,-2.0761,-2.1106,-2.1423,-2.1616,-2.1793,-1.9587,-1.9587,-1.9587,-1.9587,-1.9587,-1.9633,-1.9762,-1.9762,-1.9845,-2.0065,-2.011,-2.0155,-2.0292,-2.0428,-2.0461,-2.0298,-1.9668,-1.9377,-1.9611,-1.9731,-2.0014,-2.0473,-2.0202,-1.9886,-1.9577,-1.916,-1.8701,-1.8141,-1.7936,-1.7672,-1.7416,-1.7688,-1.7794,-1.7789,-1.7716,-1.7959,-1.8371,-1.8241,-1.8322,-1.8571,-1.8652,-1.8491,-1.8233,-1.8491,-1.8402,-1.8241,-1.8331,-1.8282,-1.8167,-1.7977,-1.7527,-1.7058,-1.7056,-1.6446,-1.5772,-1.5846,-1.5654,-1.5427,-1.5361,-1.5275,-1.5169,-1.507,-1.5034,-1.507,-1.5185,-1.4999,-1.4784,-1.4685,-1.4469,-1.4209,-1.4129,-1.3928,-1.3717,-1.3535,-1.3419,-1.3346,-1.3382,-1.3382,-1.3455,-1.3666,-1.3841,-1.4026,-1.4202,-1.448,-1.4582,-1.4452,-1.5199,-1.5787,-1.6065,-1.6971,-1.7656,-1.7997,-1.8354,-1.8556,-1.8658,-1.8436,-1.8425,-1.8572,-1.8452,-1.8368,-1.8395,-1.87,-1.8881,-1.8952,-1.8854,-1.896,-1.921,-1.9277,-1.9578,-2.0016,-2.0156,-2.0447,-2.0847,-2.1106,-2.1423,-2.1694,-1.9442,-1.945,-1.9404,-1.9404,-1.935,-1.9358,-1.9404,-1.945,-1.9533,-1.9745,-1.9837,-1.9845,-1.9845,-2.0005,-1.996,-1.9436,-1.8629,-1.8387,-1.8988,-1.8972,-1.9261,-2.0043,-1.9781,-1.9445,-1.924,-1.8973,-1.8488,-1.7726,-1.7634,-1.7364,-1.6943,-1.7274,-1.7341,-1.7098,-1.7188,-1.7514,-1.7951,-1.787,-1.7991,-1.8322,-1.8491,-1.8331,-1.7951,-1.8193,-1.8152,-1.7951,-1.7951,-1.7951,-1.7991,-1.7951,-1.733,-1.6665,-1.7013,-1.6425,-1.5565,-1.5585,-1.5561,-1.541,-1.5179,-1.5098,-1.5026,-1.49,-1.4963,-1.5062,-1.4864,-1.4577,-1.4389,-1.4353,-1.4173,-1.3985,-1.3949,-1.3855,-1.3681,-1.3455,-1.3309,-1.3119,-1.2973,-1.2936,-1.301,-1.32,-1.3572,-1.3943,-1.426,-1.4899,-1.5345,-1.5425,-1.6207,-1.6916,-1.7461,-1.7771,-1.8185,-1.8796,-1.8494,-1.8617,-1.9321,-1.8608,-1.8473,-1.8947,-1.9044,-1.8955,-1.873,-1.8977,-1.9108,-1.9119,-1.8803,-1.8782,-1.9012,-1.8982,-1.9251,-1.9682,-1.9849,-2.0144,-2.051,-2.0835,-2.1277,-2.169,-1.892,-1.8751,-1.8666,-1.8666,-1.8465,-1.8373,-1.862,-1.8789,-1.9012,-1.9234,-1.9479,-1.9633,-1.9633,-1.9561,-1.9369,-1.8955,-1.8777,-1.8465,-1.7931,-1.8339,-1.8513,-1.833,-1.881,-1.8884,-1.8482,-1.8385,-1.7954,-1.7043,-1.7423,-1.7122,-1.6252,-1.6621,-1.6901,-1.7098,-1.6681,-1.6968,-1.77,-1.7375,-1.7456,-1.7821,-1.7991,-1.7951,-1.774,-1.7781,-1.7781,-1.774,-1.774,-1.787,-1.7951,-1.7781,-1.7251,-1.6627,-1.6888,-1.6062,-1.5037,-1.5205,-1.4922,-1.4596,-1.4649,-1.4605,-1.4533,-1.4605,-1.4677,-1.4641,-1.4505,-1.4389,-1.4274,-1.4165,-1.3848,-1.3528,-1.3346,-1.3455,-1.3419,-1.3046,-1.3083,-1.3193,-1.3156,-1.3156,-1.3156,-1.32,-1.3572,-1.3835,-1.3897,-1.4289,-1.468,-1.505,-1.571,-1.6379,-1.7045,-1.7906,-1.8541,-1.887,-1.9329,-1.9362,-1.8965,-1.9404,-1.919,-1.8312,-1.9306,-1.9442,-1.8881,-1.9037,-1.9197,-1.9345,-1.8994,-1.8934,-1.9079,-1.8907,-1.8946,-1.9146,-1.9512,-1.9759,-1.9978,-2.0459,-2.0995,-2.1458,-1.8411,-1.8326,-1.8288,-1.8288,-1.8179,-1.8133,-1.828,-1.8465,-1.8697,-1.8966,-1.9196,-1.9387,-1.9387,-1.9106,-1.8877,-1.8644,-1.8334,-1.7953,-1.7539,-1.7639,-1.7803,-1.7978,-1.8181,-1.8193,-1.8079,-1.8131,-1.7757,-1.6912,-1.6981,-1.6888,-1.6564,-1.666,-1.6771,-1.6894,-1.6935,-1.718,-1.7505,-1.7221,-1.7416,-1.787,-1.7708,-1.7668,-1.77,-1.77,-1.77,-1.77,-1.77,-1.7668,-1.7635,-1.7546,-1.7077,-1.6587,-1.6909,-1.6262,-1.5365,-1.5449,-1.5176,-1.4877,-1.4906,-1.4691,-1.4472,-1.4705,-1.4647,-1.4461,-1.4425,-1.4217,-1.4,-1.3928,-1.3601,-1.3309,-1.3229,-1.3273,-1.32,-1.2783,-1.29,-1.2973,-1.2863,-1.2856,-1.2973,-1.3346,-1.371,-1.4011,-1.4135,-1.4825,-1.5411,-1.5699,-1.6496,-1.7154,-1.7655,-1.8188,-1.8675,-1.9092,-1.9215,-1.9269,-1.9296,-1.9302,-1.9131,-1.8828,-1.9305,-1.948,-1.9348,-1.9502,-1.9605,-1.9632,-1.9009,-1.884,-1.8975,-1.8686,-1.8691,-1.8919,-1.933,-1.972,-2.0067,-2.0459,-2.0734,-2.0957]},{"header":{"parameterUnit":"m.s-1","parameterCategory":1,"la1":30.6,"la2":28.766,"lo1":-90.7593,"lo2":-88.6598,"dy":0.0162,"dx":0.0183,"nx":116,"ny":114,"refTime":"2024-04-19T00:00:00:Z","depth":0,"parameterNumber":3,"parameterNumberName":"V-component_of_WINDS"},"data":[0.0,0.0,0.0,0.0,0.0,0.0,0.0,0.0,0.0,0.0,0.0,0.0,0.0,0.0,0.0,0.0,0.0,0.0,0.0,0.0,0.0,0.0,0.0,0.0,0.0,0.0,0.0,0.0,0.0,0.0,0.0,0.0,0.0,0.0,0.0,0.0,0.0,0.0,0.0,0.0,0.0,0.0,0.0,0.0,0.0,0.0,0.0,0.0,0.0,0.0,0.0,0.0,0.0,0.0,0.0,0.0,0.0,0.0,0.0,0.0,0.0,0.0,0.0,0.0,0.0,0.0,0.0,0.0,0.0,0.0,0.0,0.0,0.0,0.0,0.0,0.0,0.0,0.0,0.0,0.0,0.0,0.0,0.0,0.0,0.0,0.0,0.0,0.0,0.0,0.0,0.0,0.0,0.0,0.0,0.0,0.0,0.0,0.0,0.0,0.0,0.0,0.0,0.0,0.0,0.0,0.0,0.0,0.0,0.0,0.0,0.0,0.0,0.0,0.0,0.0,0.0,0.0,0.0,0.0,0.0,0.0,0.0,0.0,0.0,0.0,0.0,0.0,0.0,0.0,0.0,0.0,0.0,0.0,0.0,0.0,0.0,0.0,0.0,0.0,0.0,0.0,0.0,0.0,0.0,0.0,0.0,0.0,0.0,0.0,0.0,0.0,0.0,0.0,0.0,0.0,0.0,0.0,0.0,0.0,0.0,0.0,0.0,0.0,0.0,0.0,0.0,0.0,0.0,0.0,0.0,0.0,0.0,0.0,0.0,0.0,0.0,0.0,0.0,0.0,0.0,0.0,0.0,0.0,0.0,0.0,0.0,0.0,0.0,0.0,0.0,0.0,0.0,0.0,0.0,0.0,0.0,0.0,0.0,0.0,0.0,0.0,0.0,0.0,0.0,0.0,0.0,0.0,0.0,0.0,0.0,0.0,0.0,0.0,0.0,0.0,0.0,0.0,0.0,0.0,0.0,0.0,0.0,0.0,0.0,0.0,0.0,0.0,0.0,0.0,0.0,0.0,0.0,0.0,0.0,0.0,0.0,0.0,0.0,0.0,0.0,0.0,0.0,0.0,0.0,0.0,0.0,0.0,0.0,0.0,0.0,0.0,0.0,0.0,0.0,0.0,0.0,0.0,0.0,0.0,0.0,0.0,0.0,0.0,0.0,0.0,0.0,0.0,0.0,0.0,0.0,0.0,0.0,0.0,0.0,0.0,0.0,0.0,0.0,0.0,0.0,0.0,0.0,0.0,0.0,0.0,0.0,0.0,0.0,0.0,0.0,0.0,0.0,0.0,0.0,0.0,0.0,0.0,0.0,0.0,0.0,0.0,0.0,0.0,0.0,0.0,0.0,0.0,0.0,0.0,0.0,0.0,0.0,0.0,0.0,0.0,0.0,0.0,0.0,0.0,0.0,0.0,0.0,0.0,0.0,0.0,0.0,0.0,0.0,0.0,0.0,0.0,0.0,0.0,0.0,0.0,0.0,0.0,0.0,0.0,0.0,0.0,0.0,0.0,0.0,0.0,0.0,0.0,0.0,0.0,0.0,0.0,0.0,0.0,0.0,0.0,0.0,0.0,0.0,0.0,0.0,0.0,0.0,0.0,0.0,0.0,0.0,0.0,0.0,0.0,0.0,0.0,0.0,0.0,0.0,0.0,0.0,0.0,0.0,0.0,0.0,0.0,0.0,0.0,0.0,0.0,0.0,0.0,0.0,0.0,0.0,0.0,0.0,0.0,0.0,0.0,0.0,0.0,0.0,0.0,0.0,0.0,0.0,0.0,0.0,0.0,0.0,0.0,0.0,0.0,0.0,0.0,0.0,0.0,0.0,0.0,0.0,0.0,0.0,0.0,0.0,0.0,0.0,0.0,0.0,0.0,0.0,0.0,0.0,0.0,0.0,0.0,0.0,0.0,0.0,0.0,0.0,0.0,0.0,0.0,0.0,0.0,0.0,0.0,0.0,0.0,0.0,0.0,0.0,0.0,0.0,0.0,0.0,0.0,0.0,0.0,0.0,0.0,0.0,0.0,0.0,0.0,0.0,0.0,0.0,0.0,0.0,0.0,0.0,0.0,0.0,0.0,0.0,0.0,0.0,0.0,0.0,0.0,0.0,0.0,0.0,0.0,0.0,0.0,0.0,0.0,0.0,0.0,0.0,0.0,0.0,0.0,0.0,0.0,0.0,0.0,0.0,0.0,0.0,0.0,0.0,0.0,0.0,0.0,0.0,0.0,0.0,0.0,0.0,0.0,0.0,0.0,0.0,0.0,0.0,0.0,0.0,0.0,0.0,0.0,0.0,0.0,0.0,0.0,0.0,0.0,0.0,0.0,0.0,0.0,0.0,0.0,0.0,0.0,0.0,0.0,0.0,0.0,0.0,0.0,0.0,0.0,0.0,0.0,0.0,0.0,0.0,0.0,0.0,0.0,0.0,0.0,0.0,0.0,0.0,0.0,0.0,0.0,0.0,0.0,0.0,0.0,0.0,0.0,0.0,0.0,0.0,0.0,0.0,0.0,0.0,0.0,0.0,0.0,0.0,0.0,0.0,0.0,0.0,0.0,0.0,0.0,0.0,0.0,0.0,0.0,0.0,0.0,0.0,0.0,0.0,0.0,0.0,0.0,0.0,0.0,0.0,0.0,0.0,0.0,0.0,0.0,0.0,0.0,0.0,0.0,0.0,0.0,0.0,0.0,0.0,0.0,0.0,0.0,0.0,0.0,0.0,0.0,0.0,0.0,0.0,0.0,0.0,0.0,0.0,0.0,0.0,0.0,0.0,0.0,0.0,0.0,0.0,0.0,0.0,0.0,0.0,0.0,0.0,0.0,0.0,0.0,0.0,0.0,0.0,0.0,0.0,0.0,0.0,0.0,0.0,0.0,0.0,0.0,0.0,0.0,0.0,0.0,0.0,0.0,0.0,0.0,0.0,0.0,0.0,0.0,0.0,0.0,0.0,0.0,0.0,0.0,0.0,0.0,0.0,0.0,0.0,0.0,0.0,0.0,0.0,0.0,0.0,0.0,0.0,0.0,0.0,0.0,0.0,0.0,0.0,0.0,0.0,0.0,0.0,0.0,0.0,0.0,0.0,0.0,0.0,0.0,0.0,0.0,0.0,0.0,0.0,0.0,0.0,0.0,0.0,0.0,0.0,0.0,0.0,0.0,0.0,0.0,0.0,0.0,0.0,0.0,0.0,0.0,0.0,0.0,0.0,0.0,0.0,0.0,0.0,0.0,0.0,0.0,0.0,0.0,0.0,0.0,0.0,0.0,0.0,0.0,0.0,0.0,0.0,0.0,0.0,0.0,0.0,0.0,0.0,0.0,0.0,0.0,0.0,0.0,0.0,0.0,0.0,0.0,0.0,0.0,0.0,0.0,0.0,0.0,0.0,0.0,0.0,0.0,0.0,0.0,0.0,0.0,0.0,0.0,0.0,0.0,0.0,0.0,0.0,0.0,0.0,0.0,0.0,0.0,0.0,0.0,0.0,0.0,0.0,0.0,0.0,0.0,0.0,0.0,0.0,0.0,0.0,0.0,0.0,0.0,0.0,0.0,0.0,0.0,0.0,0.0,0.0,0.0,0.0,0.0,0.0,0.0,0.0,0.0,0.0,0.0,0.0,0.0,0.0,0.0,0.0,0.0,0.0,0.0,0.0,0.0,0.0,0.0,0.0,0.0,0.0,0.0,0.0,0.0,0.0,0.0,0.0,0.0,0.0,0.0,0.0,0.0,0.0,0.0,0.0,0.0,0.0,0.0,0.0,0.0,0.0,0.0,0.0,0.0,0.0,0.0,0.0,0.0,0.0,0.0,0.0,0.0,0.0,0.0,0.0,0.0,0.0,0.0,0.0,0.0,0.0,0.0,0.0,0.0,0.0,0.0,0.0,0.0,0.0,0.0,0.0,0.0,0.0,0.0,0.0,0.0,0.0,0.0,0.0,0.0,0.0,0.0,0.0,0.0,0.0,0.0,0.0,0.0,0.0,0.0,0.0,0.0,0.0,0.0,0.0,0.0,0.0,0.0,0.0,0.0,0.0,0.0,0.0,0.0,0.0,0.0,0.0,0.0,0.0,0.0,0.0,0.0,0.0,0.0,0.0,0.0,0.0,0.0,0.0,0.0,0.0,0.0,0.0,0.0,0.0,0.0,0.0,0.0,0.0,0.0,0.0,0.0,0.0,0.0,0.0,0.0,0.0,0.0,0.0,0.0,0.0,0.0,0.0,0.0,0.0,0.0,0.0,0.0,0.0,0.0,0.0,0.0,0.0,0.0,0.0,0.0,0.0,0.0,0.0,0.0,0.0,0.0,0.0,0.0,0.0,0.0,0.0,0.0,0.0,0.0,0.0,0.0,0.0,0.0,0.0,0.0,0.0,0.0,0.0,0.0,0.0,0.0,0.0,0.0,0.0,0.0,0.0,0.0,0.0,0.0,0.0,0.0,0.0,0.0,0.0,0.0,0.0,0.0,0.0,0.0,0.0,0.0,0.0,0.0,0.0,0.0,0.0,0.0,0.0,0.0,0.0,0.0,0.0,0.0,0.0,0.0,0.0,0.0,0.0,0.0,0.0,0.0,0.0,0.0,0.0,0.0,0.0,0.0,0.0,0.0,0.0,0.0,0.0,0.0,0.0,0.0,0.0,0.0,0.0,0.0,0.0,0.0,0.0,0.0,0.0,0.0,0.0,0.0,0.0,0.0,0.0,0.0,0.0,0.0,0.0,0.0,0.0,0.0,0.0,0.0,0.0,0.0,0.0,0.0,0.0,0.0,0.0,0.0,0.0,0.0,0.0,0.0,0.0,0.0,0.0,0.0,0.0,0.0,0.0,0.0,0.0,0.0,0.0,0.0,0.0,0.0,0.0,0.0,0.0,0.0,0.0,0.0,0.0,0.0,0.0,0.0,0.0,0.0,0.0,0.0,0.0,0.0,0.0,0.0,0.0,0.0,0.0,0.0,0.0,0.0,0.0,0.0,0.0,0.0,0.0,0.0,0.0,0.0,0.0,0.0,0.0,0.0,0.0,0.0,0.0,0.0,0.0,0.0,0.0,0.0,0.0,0.0,0.0,0.0,0.0,0.0,0.0,0.0,0.0,0.0,0.0,0.0,0.0,0.0,0.0,0.0,0.0,0.0,0.0,0.0,0.0,0.0,0.0,0.0,0.0,0.0,0.0,0.0,0.0,0.0,0.0,0.0,0.0,0.0,0.0,0.0,0.0,0.0,0.0,0.0,0.0,0.0,0.0,0.0,0.0,0.0,0.0,0.0,0.0,0.0,0.0,0.0,0.0,0.0,0.0,0.0,0.0,0.0,0.0,0.0,0.0,0.0,0.0,0.0,0.0,0.0,0.0,0.0,0.0,0.0,0.0,0.0,0.0,0.0,0.0,0.0,0.0,0.0,0.0,0.0,0.0,0.0,0.0,0.0,0.0,0.0,0.0,0.0,0.0,0.0,0.0,0.0,0.0,0.0,0.0,0.0,0.0,0.0,0.0,0.0,0.0,0.0,0.0,0.0,0.0,0.0,0.0,0.0,0.0,0.0,0.0,0.0,0.0,0.0,0.0,0.0,0.0,0.0,0.0,0.0,0.0,0.0,0.0,0.0,0.0,0.0,0.0,0.0,0.0,0.0,0.0,0.0,0.0,0.0,0.0,0.0,0.0,0.0,0.0,0.0,0.0,0.0,0.0,0.0,0.0,0.0,0.0,0.0,0.0,0.0,0.0,0.0,0.0,0.0,0.0,0.0,0.0,0.0,0.0,0.0,0.0,0.0,0.0,0.0,0.0,0.0,0.0,0.0,0.0,0.0,0.0,0.0,0.0,0.0,0.0,0.0,0.0,0.0,0.0,0.0,0.0,0.0,0.0,0.0,0.0,0.0,0.0,0.0,0.0,0.0,0.0,0.0,0.0,0.0,0.0,0.0,0.0,0.0,0.0,0.0,0.0,0.0,0.0,0.0,0.0,0.0,0.0,0.0,0.0,0.0,0.0,0.0,0.0,0.0,0.0,0.0,0.0,0.0,0.0,0.0,0.0,0.0,0.0,0.0,0.0,0.0,0.0,0.0,0.0,0.0,0.0,0.0,0.0,0.0,0.0,0.0,0.0,0.0,0.0,-0.2042,0.0,0.0,0.0,0.0,0.0,0.0,0.0,0.0,0.0,0.0,0.0,0.0,0.0,0.0,0.0,0.0,0.0,0.0,0.0,0.0,0.0,0.0,0.0,0.0,1.1846,1.2525,1.3914,1.39,1.4089,1.4675,0.0,0.0,0.0,0.0,0.0,1.4959,1.5143,1.5417,1.5821,1.5714,1.5753,1.5918,1.5349,1.4288,1.2887,0.0,0.0,0.0,0.0,0.0,0.0,0.0,0.0,0.0,0.0,0.0,0.0,0.0,0.0,0.0,0.0,0.0,0.0,0.0,0.0,0.0,0.0,0.0,0.0,0.0,0.0,0.0,0.0,0.0,0.0,0.0,0.0,0.0,0.0,0.0,0.0,0.0,0.0,0.0,0.0,0.0,0.0,0.0,0.0,0.0,0.0,0.0,0.0,0.0,0.0,0.0,0.0,0.0,0.0,0.0,0.0,0.0,0.0,0.0,0.0,0.0,0.0,0.0,0.0,0.0,0.0,0.0,0.0,0.0,0.0,0.0,-0.1707,0.0,0.0,0.0,0.0,0.0,0.0,0.0,0.0,0.0,0.0,0.0,0.0,0.0,0.0,0.0,0.0,0.0,0.0,0.0,0.0,0.0,1.1946,1.252,1.2968,1.374,1.4993,1.4983,1.5141,1.5724,1.568,1.5702,1.5854,1.6167,1.637,1.6403,1.7082,1.7435,1.7446,1.7982,1.8216,1.8143,1.8425,1.7474,1.5483,0.0,0.0,0.0,0.0,0.0,0.0,0.0,0.0,0.0,0.0,0.0,0.0,0.0,0.0,0.0,0.0,0.0,0.0,0.0,0.0,0.0,0.0,0.0,0.0,0.0,0.0,0.0,0.0,0.0,0.0,0.0,0.0,0.0,0.0,0.0,0.0,0.0,0.0,0.0,0.0,0.0,0.0,0.0,0.0,0.0,0.0,0.0,0.0,0.0,0.0,0.0,0.0,0.0,0.0,0.0,0.0,0.0,0.0,0.0,0.0,0.0,0.0,0.0,0.0,-0.1493,-0.1699,-0.1824,-0.2073,-0.2227,-0.2249,-0.185,-0.1813,-0.2034,0.0,0.0,0.0,0.0,0.0,0.0,0.0,0.0,0.0,0.0,0.0,0.0,0.0,0.0,0.0,0.0,0.0,0.0,0.0,0.0,1.2893,1.3599,1.3952,1.4632,1.5833,1.6275,1.6587,1.6782,1.6959,1.7008,1.6899,1.7218,1.7464,1.7572,1.7625,1.8162,1.9164,1.9775,1.9998,1.9882,2.02,2.0353,2.0289,1.8504,0.0,0.0,0.0,0.0,0.0,0.0,0.0,0.0,0.0,0.0,0.0,0.0,0.0,0.0,0.0,0.0,0.0,0.0,0.0,0.0,0.0,0.0,0.0,0.0,0.0,0.0,0.0,0.0,0.0,0.0,0.0,0.0,0.0,0.0,0.0,0.0,0.0,0.0,0.0,0.0,0.0,0.0,0.0,0.6919,0.6006,0.0,0.0,0.0,0.0,0.0,0.0,0.0,0.0,0.0,0.0,0.0,0.0,0.0,0.0174,-0.0311,-0.0815,-0.1049,-0.1134,-0.1621,-0.1851,-0.1815,-0.208,-0.2285,-0.2428,-0.1803,0.0,-0.1926,-0.0882,0.0,0.0,0.0,0.0,0.0,0.0,0.0,0.0,0.0,0.0,0.0,0.0,0.0,0.0,0.0,0.0,0.0,0.0,0.0,0.0,0.0,1.5791,1.6478,1.7419,1.7978,1.8216,1.8087,1.8213,1.8167,1.7834,1.8299,1.8564,1.8593,1.9113,1.9883,2.0914,2.1173,2.1455,2.1779,2.2276,2.2538,2.264,2.2285,2.108,1.9252,1.7986,0.0,0.0,0.0,0.0,0.0,0.0,0.0,0.0,0.0,0.0,0.0,0.0,0.0,0.0,0.0,0.0,0.0,0.0,0.0,0.0,0.0,0.0,0.0,0.0,0.0,0.0,0.0,0.0,0.0,0.0,0.0,0.0,0.0,0.0,0.0,0.0,0.0,0.0,0.0,0.8261,0.758,0.6457,0.6041,0.5518,0.0,0.0,0.0,0.0,0.0,0.0,0.0,0.0,0.0,0.117,0.0902,0.0546,0.0093,-0.0281,-0.0564,-0.0706,-0.1235,-0.1424,-0.1412,-0.1785,-0.209,-0.2282,-0.1713,-0.1844,-0.2449,-0.1711,-0.1317,-0.1141,0.0,0.0,0.0,0.0,-0.0673,-0.0836,0.0,0.0,0.0,0.0,0.0,0.0,0.0,0.0,0.0,0.0,0.0,0.0,1.7025,1.7684,1.8372,1.905,1.945,1.9543,1.9231,1.9091,1.8899,1.864,1.9016,1.9378,1.9623,2.0982,2.201,2.2726,2.294,2.3293,2.3774,2.4192,2.4425,2.4467,2.509,2.4091,2.1834,2.0379,1.9474,0.0,0.0,0.0,0.0,0.0,0.0,0.0,0.0,0.0,0.0,0.0,0.0,0.0,0.0,0.0,0.0,0.0,0.0,0.0,0.0,0.0,0.0,0.0,0.0,0.0,0.0,0.0,0.0,0.0,0.0,0.0,0.0,0.0,0.0,0.0,0.0,0.0,0.0,0.8651,0.8295,0.6999,0.6867,0.6424,0.0,0.0,0.0,0.0,0.0,0.0,0.2734,0.2473,0.2072,0.1549,0.1316,0.0996,0.0484,0.0145,-0.0097,-0.029,-0.0774,-0.1011,-0.1049,-0.1369,-0.1724,-0.1974,-0.159,-0.1939,-0.2681,-0.2187,-0.1789,-0.1473,-0.1573,-0.1125,-0.047,-0.0425,-0.0655,-0.0997,0.0,0.0,0.0,0.0,0.0,0.0,0.0,0.0,0.0,0.0,0.0,1.8349,1.8465,1.926,1.9964,2.0457,2.0402,2.0265,2.0045,1.9225,1.8886,1.9236,1.9163,1.9645,2.079,2.3102,2.442,2.4649,2.5497,2.5868,2.586,2.5806,2.6037,2.6451,2.6161,2.5542,2.4627,2.3669,2.317,2.2714,0.0,0.0,0.0,0.0,0.0,0.0,0.0,0.0,0.0,0.0,0.0,0.0,0.0,0.0,0.0,0.0,0.0,0.0,0.0,0.0,0.0,0.0,0.0,0.0,0.0,0.0,0.0,0.0,0.0,0.0,0.0,0.0,0.0,0.0,0.0,0.0,0.0,0.0,0.0,0.7679,0.7661,0.0,0.0,0.0,0.0,0.4495,0.4144,0.3742,0.327,0.3088,0.2535,0.1614,0.1567,0.1334,0.0806,0.0252,0.0,-0.005,-0.0554,-0.0791,-0.0811,-0.0825,-0.1044,-0.1439,-0.1466,-0.1782,-0.2191,-0.1453,-0.1256,-0.1371,-0.0914,-0.0615,-0.0375,-0.0255,-0.0507,-0.0938,0.0,0.0,0.0,0.0,0.0,2.1493,2.1726,2.188,2.1778,2.13,2.126,2.1221,2.1009,2.152,2.1948,2.2125,2.2355,2.228,2.1863,2.1598,2.1291,2.0923,2.1521,2.2657,2.4338,2.5294,2.6138,2.6869,2.688,2.6723,2.6467,2.699,2.7072,2.6759,2.7434,2.7715,2.7593,2.5805,2.4831,2.4292,2.2426,2.1068,0.0,0.0,0.0,0.0,0.0,0.0,0.0,0.0,0.0,0.0,0.0,0.0,0.0,0.0,0.0,0.0,0.0,0.0,0.0,0.0,0.0,0.0,0.0,0.0,0.0,0.0,0.0,0.0,0.0,0.0,0.0,0.0,0.0,0.0,0.0,0.0,0.0,0.8502,0.8327,0.0,0.6681,0.6358,0.5868,0.5015,0.4608,0.4235,0.3982,0.3363,0.287,0.2397,0.2198,0.1755,0.1061,0.1061,0.0859,0.0505,-0.0051,-0.0299,-0.0291,-0.0628,-0.0946,-0.1189,-0.1227,-0.1491,-0.1927,-0.1853,-0.174,-0.1627,-0.1454,-0.1133,-0.075,-0.0379,-0.0411,-0.067,0.0,0.0,0.0,0.0,0.0,2.2312,2.2723,2.2937,2.3031,2.3008,2.2954,2.2904,2.2845,2.3244,2.3514,2.3514,2.3455,2.3164,2.2576,2.2379,2.2143,2.177,2.3426,2.517,2.6928,2.7363,2.794,2.8708,2.818,2.791,2.7803,2.8057,2.8081,2.7939,2.8379,2.8862,2.9205,2.7803,2.684,2.6086,2.4579,2.3334,2.2189,0.0,0.0,0.0,0.0,0.0,0.0,0.0,0.0,0.0,0.0,0.0,0.0,0.0,0.0,0.0,0.0,0.0,0.0,0.0,0.0,0.0,0.0,0.0,0.0,0.0,0.0,0.0,0.0,0.0,0.0,0.0,0.0,0.0,0.0,0.0,0.9747,0.9394,0.9138,0.8532,0.7398,0.702,0.6491,0.5514,0.504,0.4687,0.4352,0.3762,0.3238,0.2925,0.2674,0.222,0.1615,0.1616,0.1415,0.1061,0.0502,0.0198,0.0146,-0.0238,-0.056,-0.0869,-0.0857,-0.1121,-0.157,-0.1839,-0.1869,-0.1798,-0.1902,-0.1577,-0.1006,-0.0565,-0.0477,-0.0594,0.0,0.0,0.0,0.0,0.0,2.0393,2.1305,2.168,2.2022,2.2427,2.28,2.3288,2.3875,2.4295,2.4518,2.4498,2.3661,2.2842,2.212,2.1402,2.1301,2.1872,2.4721,2.6929,2.8358,2.9215,2.9825,3.0123,2.9518,2.9476,2.9926,2.8985,2.9083,3.0024,2.908,2.8912,2.9404,2.9685,2.9301,2.8291,2.5968,2.4914,2.4646,0.0,0.0,0.0,0.0,0.0,0.0,0.0,0.0,0.0,0.0,0.0,0.0,0.0,0.0,0.0,0.0,0.0,0.0,0.0,0.0,0.0,0.0,0.0,0.0,0.0,0.0,0.0,0.0,0.0,0.0,0.0,0.0,0.0,1.1138,1.0838,1.0551,1.0407,1.0156,0.9389,0.7813,0.7424,0.6886,0.5984,0.5483,0.4991,0.4489,0.4135,0.3783,0.323,0.2927,0.2674,0.2422,0.1868,0.1616,0.1615,0.109,0.068,0.0428,0.042,0.0137,-0.0359,-0.0359,-0.0628,-0.1076,-0.13,-0.1525,-0.1794,-0.2064,-0.1705,-0.1073,-0.0788,-0.0652,-0.0691,0.0,0.0,0.0,1.986,2.0891,2.1955,2.2341,2.3008,2.3685,2.4281,2.4251,2.4374,2.4929,2.4898,2.4806,2.4722,2.4271,2.383,2.3544,2.374,2.4627,2.6337,2.7535,2.8796,3.0159,3.06,3.0723,3.0531,3.0044,2.9534,2.9069,2.9433,2.9537,2.9457,2.9838,3.0313,3.0837,3.0208,3.0031,3.0012,2.8528,2.7501,2.664,0.0,0.0,0.0,0.0,0.0,0.0,0.0,0.0,0.0,0.0,0.0,0.0,0.0,0.0,0.0,0.0,0.0,0.0,0.0,0.0,0.0,0.0,0.0,0.0,0.0,0.0,0.0,0.0,0.0,0.0,0.0,0.0,1.3268,1.2703,1.192,1.1636,1.2265,1.113,0.9874,0.8841,0.8329,0.767,0.6644,0.6074,0.5641,0.5286,0.4485,0.3831,0.3479,0.3229,0.2876,0.2422,0.2423,0.2256,0.1881,0.1526,0.1206,0.0886,0.0696,0.0549,0.0403,0.0224,0.0,-0.0359,-0.0942,-0.13,-0.148,-0.1211,-0.1211,-0.1163,-0.0088,0.0086,-0.0253,0.0,0.0,0.0,1.9985,2.1022,2.1972,2.2179,2.2713,2.3338,2.405,2.4195,2.4461,2.5084,2.5122,2.5084,2.5021,2.4625,2.4348,2.4308,2.5303,2.6889,2.9076,2.9644,3.037,3.1394,3.1667,3.1464,3.074,3.0817,3.039,2.9548,3.012,3.0315,3.0211,3.0353,3.0748,3.1248,3.0614,3.0329,3.0345,2.9806,2.8862,2.7623,2.6232,2.5858,2.5972,2.5157,2.484,2.4775,2.434,0.0,0.0,0.0,0.0,0.0,0.0,0.0,0.0,0.0,0.0,0.0,0.0,0.0,0.0,0.0,0.0,0.0,0.0,0.0,0.0,0.0,0.0,0.0,0.0,1.4936,1.509,1.5352,1.4159,1.3339,1.3543,1.2154,1.0734,0.9509,0.8775,0.7935,0.6892,0.6392,0.5989,0.5636,0.4784,0.4234,0.3932,0.3682,0.3279,0.2725,0.2876,0.275,0.2306,0.1997,0.1671,0.1249,0.1054,0.0907,0.0,0.0583,0.0403,0.0134,-0.0403,-0.0807,0.0,0.0,0.0,0.0,0.0,0.0217,0.0085,0.0,0.0,0.0,1.9815,2.0622,2.1275,2.1478,2.1691,2.2077,2.2777,2.3407,2.4048,2.4768,2.5144,2.5336,2.5371,2.4926,2.4763,2.5019,2.6481,2.8307,3.0526,3.1128,3.1651,3.2177,3.2458,3.208,3.0998,3.1667,3.1578,3.0772,3.0923,3.1221,3.1577,3.085,3.0762,3.1146,3.097,3.0569,3.0023,3.0178,2.9421,2.8091,2.7079,2.687,2.7117,2.7453,2.7215,2.6805,2.7205,0.0,0.0,0.0,0.0,0.0,0.0,0.0,0.0,0.0,0.0,0.0,0.0,0.0,0.0,0.0,0.0,0.0,0.0,0.0,0.0,0.0,0.0,0.0,0.0,1.6562,1.6943,1.8242,1.6903,1.5431,1.4512,1.3188,1.1638,0.9903,0.8973,0.8035,0.6992,0.6639,0.6287,0.5787,0.0,0.0,0.0,0.0,0.3833,0.3331,0.3274,0.309,0.2785,0.2495,0.2117,0.1613,0.1489,0.1207,0.0804,0.076,0.0625,0.0447,0.0179,-0.0269,-0.0807,-0.1749,-0.1749,-0.1166,-0.0626,-0.0088,0.026,0.0,0.0,0.0,2.105,2.1529,2.1893,2.2108,2.2416,2.2819,2.3224,2.3892,2.454,2.5062,2.5422,2.568,2.577,2.5687,2.6203,2.7583,2.7979,2.9134,3.1285,3.184,3.2336,3.2812,3.3103,3.2917,3.2337,3.2105,3.1765,3.1261,3.1508,3.161,3.1604,3.1774,3.1866,3.1951,3.1697,3.1438,3.1102,3.0345,2.9782,2.9257,2.8317,2.8784,2.9788,2.8921,2.9027,2.9585,2.9346,2.8129,2.6561,2.5735,0.0,0.0,0.0,0.0,0.0,0.0,0.0,0.0,0.0,0.0,0.0,0.0,0.0,0.0,0.0,0.0,0.0,0.0,0.0,0.0,1.8455,1.8638,1.8823,1.8736,1.818,1.7316,1.5961,1.3903,1.2081,1.0699,0.9468,0.8478,0.7839,0.7338,0.6889,0.6592,0.5837,0.5436,0.5386,0.4686,0.4288,0.4187,0.3924,0.3613,0.3354,0.0,0.0,0.2301,0.1898,0.1661,0.1573,0.1138,0.0919,0.0833,0.049,-0.009,-0.0762,-0.1345,-0.1031,-0.0313,-0.0528,-0.0349,0.0,0.0,0.0,0.0,2.1308,2.1735,2.2013,2.2164,2.2456,2.2741,2.2963,2.3613,2.4143,2.4377,2.4663,2.4854,2.4905,2.5631,2.6716,2.8208,2.9145,3.0439,3.2177,3.2277,3.2319,3.2356,3.3002,3.2885,3.1951,3.2609,3.2528,3.1694,3.205,3.2095,3.1909,3.2053,3.2066,3.1968,3.1612,3.1336,3.1087,3.0418,3.0145,2.9974,2.8645,2.8892,2.9849,2.9159,2.9276,2.9801,2.9787,2.8929,2.7759,2.7122,2.5807,2.398,0.0,0.0,0.0,0.0,0.0,0.0,0.0,0.0,0.0,0.0,0.0,0.0,0.0,0.0,2.2756,2.1396,0.0,2.0666,2.0,2.0085,1.9962,1.9101,1.8758,1.7948,1.621,1.4292,1.2571,1.1145,0.9916,0.8878,0.8038,0.7739,0.7441,0.7042,0.6489,0.6137,0.5987,0.5338,0.4939,0.479,0.4346,0.4069,0.3857,0.3443,0.3049,0.269,0.2308,0.2076,0.1988,0.1724,0.1591,0.1547,0.0839,0.0132,-0.0619,-0.106,-0.0889,-0.0403,-0.0887,-0.0611,-0.0085,0.0,0.0,0.0,2.1196,2.1529,2.1745,2.2122,2.2265,2.2332,2.2384,2.2876,2.3233,2.3199,2.3474,2.3648,2.368,2.5183,2.6653,2.79,2.9815,3.143,3.2581,3.2542,3.237,3.2087,3.2985,3.2944,3.1847,3.321,3.332,3.2212,3.2439,3.2413,3.215,3.2025,3.1855,3.167,3.1249,3.094,3.0672,3.0387,3.0259,3.0117,2.8741,2.8764,2.9443,2.9091,2.9012,2.9153,2.9723,2.9118,2.8088,2.8017,2.7113,2.5589,2.3123,2.2083,0.0,0.0,0.0,0.0,0.0,0.0,0.0,0.0,0.0,2.5857,2.5884,2.5129,2.4234,2.3572,2.2777,2.2051,2.1416,2.1168,2.0628,1.9355,1.875,1.7762,1.59,1.4453,1.3011,1.1487,1.0364,0.9278,0.8386,0.8237,0.7985,0.7534,0.7191,0.6942,0.6736,0.6137,0.5689,0.5441,0.4854,0.4518,0.433,0.383,0.3427,0.3092,0.2725,0.2453,0.2319,0.222,0.2182,0.2151,0.1183,0.0436,-0.0219,-0.0744,-0.0882,-0.0803,-0.1254,-0.092,-0.0339,0.0,0.0,0.0,0.0,0.0,2.0981,2.2262,2.2213,2.1948,2.1655,2.1796,2.189,2.1828,2.217,2.2542,2.29,2.4502,2.5985,2.7148,2.953,3.1132,3.1633,3.2633,3.3283,3.3481,3.3823,3.4043,3.4136,3.3862,3.3471,3.296,3.2602,3.2274,3.2025,3.187,3.1655,3.1351,3.1102,3.0762,3.0357,3.019,2.9851,2.9408,2.9099,2.9608,3.0426,2.9495,2.8908,2.8749,2.994,2.8842,2.7152,2.8041,2.7104,2.5294,2.33,0.0,2.1687,2.0382,2.0765,2.1963,2.3834,2.4923,2.6093,0.0,0.0,2.9083,2.8443,2.8262,2.755,2.5447,2.4887,2.4299,2.2833,2.1872,2.0737,1.9322,1.7948,1.6608,1.5315,1.4424,1.3355,1.2024,1.0703,0.9826,0.943,0.8977,0.8676,0.8627,0.8134,0.7839,0.7839,0.7092,0.6539,0.6287,0.5601,0.5161,0.4896,0.4181,0.383,0.3765,0.3081,0.2749,0.2703,0.2222,0.2079,0.2151,0.149,0.0966,0.0492,-0.0223,-0.0664,-0.1007,-0.1292,-0.1325,-0.1252,0.0,0.0,0.0,0.0,0.0,1.9981,2.0867,2.1066,2.1054,2.0833,2.0883,2.0893,2.0796,2.1073,2.1509,2.2104,2.3584,2.5189,2.6918,2.8882,3.0394,3.1335,3.2333,3.2606,3.2124,3.331,3.3584,3.2862,3.3345,3.333,3.2807,3.2535,3.2176,3.1824,3.1783,3.1481,3.0999,3.0643,3.0176,2.9685,2.9341,2.898,2.8707,2.8527,2.8675,2.8973,2.8663,2.8635,0.0,0.0,2.7562,2.664,2.6708,2.6082,2.4955,2.3146,2.2601,0.0,2.1194,2.2079,0.0,0.0,2.589,2.7437,2.8837,2.9208,2.9238,2.9151,2.876,2.8016,2.6533,2.5679,2.4712,0.0,2.2173,2.0881,1.8964,1.7809,1.6655,1.5267,1.4397,1.3452,1.2355,1.1292,1.0462,0.9871,0.9327,0.8977,0.8825,0.8432,0.8137,0.7988,0.7391,0.6953,0.6825,0.6042,0.5596,0.533,0.4553,0.4172,0.4121,0.351,0.3254,0.3213,0.2968,0.2689,0.2415,0.2015,0.1482,0.0777,0.0216,-0.0347,-0.087,-0.1449,-0.138,-0.1044,0.0,0.0,0.0,0.0,0.0,1.8628,1.9602,1.9814,1.9817,1.9668,1.9688,1.9835,2.0127,2.0068,2.0449,2.1475,2.2704,2.4281,2.6226,2.8136,2.9667,3.0758,3.1584,3.1705,3.1016,3.2271,3.2476,3.1502,3.2314,3.2552,3.2269,3.1995,3.1769,3.1596,3.1538,3.1175,3.0569,3.0176,2.9654,2.9058,2.8403,2.8045,2.7848,2.7729,2.7558,2.7427,2.763,2.7756,0.0,0.0,2.6375,2.5775,2.5542,2.5156,2.446,2.281,2.2489,2.2506,2.187,0.0,0.0,2.5087,2.6513,2.8051,2.9063,2.9151,2.9112,2.9434,2.8855,2.8018,2.7208,2.6166,2.4978,2.3704,2.234,2.0872,1.9063,1.7816,1.6655,1.5458,1.4587,1.3743,1.2785,1.1836,1.1083,1.0507,0.9871,0.9426,0.9122,0.8878,0.8584,0.8233,0.7786,0.7418,0.7182,0.6421,0.5918,0.5677,0.4913,0.4499,0.4389,0.3876,0.3615,0.3514,0.343,0.3154,0.2707,0.2486,0.1935,0.1134,0.0673,0.0085,-0.0597,-0.1237,-0.1302,-0.1107,0.0,0.0,0.0,0.0,0.0,1.6831,1.8997,1.8776,1.8271,1.8019,1.8022,1.8562,1.987,1.9141,1.9277,2.1057,2.2032,2.3174,2.467,2.7374,2.9099,2.9539,3.0385,3.0892,3.099,3.0856,3.0871,3.1029,3.0791,3.0933,3.1413,3.0827,3.0824,3.1307,3.119,3.0762,3.0099,2.9901,2.9355,2.8554,2.7591,2.7056,2.6765,2.69,2.6688,2.6375,2.6654,0.0,0.0,0.0,2.5581,2.4244,2.5114,2.4753,0.0,2.2324,2.1883,2.1904,0.0,0.0,2.4179,2.6365,2.6907,2.7504,2.9605,2.9716,2.9445,2.974,2.9116,2.8259,2.7603,2.658,2.5549,2.4627,2.2488,2.0674,1.9977,1.801,1.6393,1.5825,1.5144,1.4366,0.0,1.232,1.1561,1.157,1.0806,1.0265,0.9969,0.9727,0.9327,0.8775,0.8528,0.8062,0.7382,0.6765,0.6304,0.5901,0.5288,0.4882,0.4656,0.4081,0.3694,0.3509,0.3281,0.3134,0.298,0.2709,0.2347,0.1892,0.1176,0.0498,-0.0082,-0.0571,-0.1238,-0.1926,0.0,0.0,0.0,0.0,0.0,0.0,1.6997,1.6808,1.6622,1.6567,1.7164,0.0,0.0,0.0,0.0,0.0,2.1987,2.2957,2.4346,2.5941,2.7033,2.7419,2.9128,2.9832,2.9291,3.0423,3.0783,3.0342,3.0491,3.0603,3.0604,3.0281,3.0051,2.9845,2.9789,2.9523,2.9078,2.8697,2.8057,2.7224,2.6535,2.5985,2.5566,2.5623,2.5791,2.5934,0.0,0.0,0.0,2.4975,2.4459,2.4001,2.3136,2.2913,2.2731,2.174,2.1239,2.1166,2.1924,0.0,2.4868,2.6103,2.7193,2.8035,2.8256,2.8458,2.8457,2.7912,2.7368,2.6783,2.6105,2.5166,2.4305,2.3737,2.1986,2.0503,1.9985,1.8164,1.6541,1.5629,1.5044,0.0,0.0,0.0,0.0,1.1657,1.1167,1.0659,1.0019,0.9723,0.9278,0.8577,0.8432,0.8014,0.7289,0.7048,0.6629,0.6009,0.5523,0.5021,0.4561,0.4355,0.4102,0.3778,0.3681,0.3441,0.3054,0.295,0.2536,0.1891,0.152,0.09,0.0203,-0.0244,-0.0769,-0.1285,0.0,0.0,0.0,0.0,0.0,0.0,0.0,0.0,0.0,0.0,0.0,0.0,0.0,0.0,0.0,0.0,0.0,2.2052,2.3621,2.445,2.503,2.538,2.6693,2.7218,2.6832,2.7945,2.842,2.8249,2.8721,2.8925,2.888,2.8919,2.8541,2.7853,2.7925,2.7567,2.6903,2.6892,2.6291,2.529,2.4914,2.433,2.3699,2.4106,2.4385,0.0,0.0,0.0,0.0,2.45,2.4117,2.3866,2.2658,2.2274,2.2114,2.1396,2.1307,2.1634,2.2301,2.3788,2.5318,2.6124,2.7183,2.7877,2.7321,2.7396,2.7371,2.6609,2.6034,2.5531,2.504,2.4319,2.3607,2.304,2.1692,2.052,1.9849,1.8295,1.6911,1.5961,1.5238,1.4761,0.0,0.0,0.0,1.2098,1.1631,1.1021,1.0212,0.9911,0.9384,0.8497,0.8448,0.8104,0.728,0.7187,0.6795,0.6083,0.568,0.5222,0.4724,0.4561,0.429,0.3978,0.3825,0.3501,0.3102,0.3023,0.2613,0.2006,0.1806,0.1205,0.0442,0.0201,-0.0199,-0.0746,0.0,0.0,0.0,0.0,0.0,0.0,0.0,0.0,0.0,0.0,0.0,0.0,0.0,0.0,0.0,0.0,0.0,0.0,2.2361,2.2833,2.3127,2.3359,2.3252,2.3408,2.3871,2.3737,2.4109,2.5033,2.5599,2.6021,2.634,2.6632,2.6262,2.5427,2.5564,2.4942,2.3745,2.4558,2.4132,2.2883,2.2798,2.2102,2.1263,2.2385,0.0,0.0,0.0,0.0,0.0,2.477,2.4409,2.3857,2.3607,2.2871,2.199,2.1365,2.2105,2.3158,2.3373,2.4288,2.544,2.6394,2.6846,2.7001,2.6706,2.65,2.6232,2.5754,2.5149,2.4602,0.0,0.0,2.3441,2.2611,2.1639,2.0673,1.9666,1.8535,1.7473,0.0,0.0,0.0,0.0,0.0,0.0,1.2894,0.0,1.138,1.0502,1.029,0.9713,0.8702,0.8598,0.82,0.7433,0.7142,0.6705,0.6127,0.5855,0.5528,0.5155,0.4662,0.4314,0.418,0.3722,0.3372,0.3102,0.2904,0.255,0.2157,0.2004,0.1415,0.0668,0.0864,0.0432,-0.0314,0.0,0.0,0.0,0.0,0.0,0.0,0.0,0.0,0.0,0.0,0.0,0.0,0.0,0.0,0.0,0.0,0.0,0.0,1.9477,2.0289,2.0586,2.0248,2.1148,2.1818,2.2133,2.2756,2.3417,2.406,2.4016,2.3991,2.396,2.3594,2.32,2.276,2.2451,2.2376,2.2446,2.2335,2.1917,2.1339,0.0,2.0643,2.026,0.0,0.0,0.0,0.0,0.0,0.0,0.0,2.3729,2.3723,2.4013,2.3738,2.3237,2.2788,2.3021,2.3482,2.3889,2.4686,2.548,2.5738,2.5768,2.5429,2.4323,2.4306,2.4357,2.3684,2.3314,2.3,0.0,0.0,0.0,2.2073,2.1646,0.0,2.015,1.9382,0.0,1.6501,0.0,1.5671,1.4791,1.4582,0.0,0.0,1.3145,1.2549,1.134,1.1049,1.0436,0.9363,0.8851,0.835,0.7866,0.718,0.6694,0.6299,0.608,0.5618,0.4988,0.4751,0.4396,0.3976,0.3803,0.3491,0.3102,0.3062,0.2591,0.2004,0.2238,0.1924,0.1335,0.1412,0.1216,0.0786,0.0,0.0,0.0,0.0,0.0,0.0,0.0,0.0,0.0,0.0,0.0,0.0,0.0,0.0,0.0,0.0,0.0,0.0,0.0,1.7616,1.7718,1.72,1.7921,1.8649,1.9318,1.9986,2.0671,2.1419,2.1773,2.1693,2.1175,2.1428,2.103,2.0108,1.9964,1.9837,1.9821,1.9908,0.0,0.0,0.0,0.0,0.0,0.0,0.0,0.0,0.0,0.0,0.0,0.0,0.0,2.4102,2.4361,2.4376,2.4162,2.3717,0.0,2.4002,2.4158,2.4788,2.5359,2.539,2.515,2.4624,2.3508,2.3228,2.2966,2.2361,2.2084,0.0,2.1791,0.0,0.0,0.0,0.0,0.0,1.9712,1.9203,1.8317,0.0,1.63,0.0,1.4946,1.479,1.4448,0.0,1.3527,1.2886,1.1824,1.1347,1.0572,0.9555,0.8929,0.8336,0.7731,0.7284,0.6853,0.6384,0.6302,0.5794,0.5031,0.4841,0.4548,0.4073,0.0,0.3445,0.3191,0.2929,0.2527,0.2072,0.2208,0.1924,0.1493,0.1649,0.1482,0.1083,0.0,0.0,0.0,0.0,0.0,0.0,0.0,0.0,0.0,0.0,1.2868,1.3308,0.0,0.0,0.0,0.0,0.0,0.0,0.0,0.0,0.0,1.4451,1.4529,1.5137,1.6339,1.6545,1.7194,1.8268,1.9129,1.9175,0.0,0.0,0.0,0.0,0.0,0.0,0.0,0.0,0.0,0.0,0.0,0.0,0.0,0.0,0.0,0.0,0.0,0.0,0.0,0.0,2.3588,2.454,2.462,2.4752,2.483,2.4304,2.4388,2.4583,2.4368,2.47,2.5158,2.502,2.4608,2.407,2.3306,2.2489,2.1802,2.1458,0.0,2.1058,2.1118,2.12,2.1093,2.0536,0.0,2.0232,1.9042,1.8767,1.8125,1.6777,1.6427,1.6008,1.5178,1.4885,1.464,1.4346,1.366,1.2967,1.2214,1.15,1.0571,0.9404,0.8856,0.8175,0.7419,0.7353,0.7046,0.6384,0.6384,0.5972,0.5178,0.4997,0.4682,0.4252,0.3624,0.0,0.3335,0.2766,0.2428,0.2261,0.2099,0.1768,0.1453,0.1847,0.1551,0.1027,0.0,0.0,0.0,0.0,0.0,0.0,0.0,0.0,0.0,0.0,1.1952,1.2691,0.0,0.0,0.0,0.0,0.0,0.0,0.0,0.0,0.0,0.0,1.325,1.3931,1.5086,1.4982,1.5616,0.0,0.0,0.0,0.0,0.0,0.0,0.0,0.0,0.0,0.0,0.0,0.0,0.0,0.0,0.0,0.0,0.0,0.0,0.0,0.0,0.0,0.0,0.0,2.3461,2.4116,2.4183,2.4892,2.5556,2.4671,2.4904,2.5306,2.4914,2.4861,2.4818,2.4198,2.3197,2.2172,2.1432,2.0749,0.0,0.0,2.0436,2.0261,2.0624,2.0429,2.0301,2.0657,0.0,0.0,0.0,0.0,1.8707,0.0,0.0,0.0,0.0,0.0,0.0,0.0,0.0,1.3542,1.2953,1.2431,1.1206,0.912,0.8646,0.8106,0.7419,0.7244,0.69,0.6384,0.6384,0.593,0.5024,0.4942,0.4638,0.4185,0.3796,0.0,0.3306,0.2958,0.2603,0.2248,0.2515,0.2393,0.2079,0.2315,0.1997,0.1441,0.0,0.0,0.0,0.0,0.0,0.0,0.0,1.0643,1.0872,1.0738,1.1294,1.1686,1.1619,1.1145,1.0877,0.0,0.0,0.0,0.0,0.0,0.0,0.0,0.0,0.0,0.0,0.0,0.0,0.0,0.0,0.0,0.0,0.0,0.0,0.0,0.0,0.0,0.0,0.0,0.0,0.0,0.0,0.0,0.0,0.0,0.0,0.0,0.0,0.0,0.0,0.0,2.2213,2.2776,2.406,2.4805,2.51,2.4798,2.47,2.4615,2.4391,2.4272,2.4039,2.3582,2.2619,2.1663,2.1318,0.0,0.0,0.0,2.0169,2.0091,2.006,1.9972,0.0,1.9841,0.0,0.0,0.0,0.0,0.0,0.0,0.0,0.0,0.0,0.0,0.0,0.0,0.0,1.3871,1.3346,1.2322,1.1098,0.9547,0.8844,0.8251,0.772,0.7249,0.6818,0.6384,0.6302,0.5811,0.5008,0.496,0.4676,0.4234,0.3798,0.0,0.3359,0.2914,0.2625,0.2394,0.2367,0.2199,0.2042,0.2042,0.1817,0.1473,0.0,0.0,0.0,0.0,0.0,0.0,0.9787,1.0129,1.0391,1.0541,1.0696,1.0737,1.0622,1.0423,1.0145,0.0,0.0,0.0,0.0,0.0,0.0,0.0,0.0,0.0,0.0,0.0,0.0,0.0,0.0,0.0,0.0,0.0,0.0,0.0,0.0,0.0,0.0,0.0,0.0,0.0,0.0,0.0,0.0,0.0,0.0,0.0,0.0,0.0,0.0,0.0,2.086,2.132,2.3292,2.4036,2.4262,2.4429,2.419,2.3884,2.3841,2.3624,2.3351,2.3043,2.2178,2.1326,2.1218,2.0339,0.0,1.9634,1.9743,1.9753,1.9526,0.0,1.9375,0.0,1.871,0.0,0.0,0.0,0.0,0.0,0.0,0.0,0.0,0.0,0.0,0.0,0.0,0.0,1.3443,1.2122,1.0998,1.0216,0.9224,0.8522,0.811,0.7417,0.686,0.6384,0.6257,0.5769,0.5099,0.501,0.4788,0.434,0.3769,0.0,0.0,0.2851,0.2594,0.2538,0.2176,0.1964,0.1887,0.1729,0.1495,0.1295,0.0,0.0,0.0,0.0,0.0,0.0,0.8759,0.912,0.9435,0.945,1.0034,1.0249,0.9781,0.959,0.9438,0.0,0.0,0.0,0.0,0.0,0.0,0.0,0.0,0.0,0.0,0.0,0.0,0.0,0.0,0.0,0.0,0.0,0.0,0.0,0.0,0.0,0.0,0.0,0.0,0.0,0.0,0.0,0.0,0.0,0.0,0.0,0.0,0.0,0.0,0.0,0.0,2.0357,2.0835,2.2057,2.3293,2.3123,0.0,0.0,2.3884,2.3493,2.2994,2.2427,2.1452,2.0453,1.9916,0.0,1.8583,1.8764,1.8561,1.8451,1.8955,1.858,1.8325,0.0,0.0,1.7747,0.0,0.0,0.0,0.0,0.0,0.0,0.0,0.0,0.0,0.0,0.0,0.0,1.3147,1.237,1.1536,1.0752,0.9629,0.8832,0.8387,0.7764,0.7115,0.6384,0.6387,0.6033,0.5371,0.5099,0.4879,0.461,0.3856,0.0,0.0,0.2832,0.2568,0.2518,0.2473,0.2238,0.1887,0.1887,0.1489,0.0969,0.0,0.0,0.0,0.0,0.0,0.0,0.8761,0.881,0.9127,0.9963,1.0105,1.0144,1.0201,0.9838,0.9335,0.8771,0.0,0.0,0.0,0.0,0.0,0.0,0.0,0.0,0.0,0.0,1.1598,1.1507,1.1358,0.0,0.0,0.0,0.0,0.0,0.0,0.0,0.0,0.0,0.0,0.0,0.0,0.0,0.0,0.0,0.0,0.0,0.0,0.0,0.0,0.0,0.0,0.0,1.9796,2.0703,0.0,0.0,2.2542,2.313,2.2916,2.2582,2.2227,2.189,2.0968,2.0094,1.9842,0.0,1.8731,1.8545,1.83,1.8034,1.7765,1.7504,1.7349,0.0,0.0,0.0,0.0,0.0,0.0,0.0,0.0,0.0,0.0,0.0,0.0,0.0,0.0,0.0,1.3593,1.2856,1.2065,1.1115,1.026,0.9456,0.8654,0.7875,0.7272,0.683,0.6432,0.5991,0.5544,0.5188,0.4879,0.4656,0.3856,0.0,0.0,0.283,0.2565,0.247,0.2353,0.2158,0.1887,0.1768,0.1466,0.1087,0.0,0.0,0.0,0.0,0.0,0.8338,0.8506,0.8383,0.8712,0.9852,0.9798,0.9817,1.0212,0.9855,0.933,0.8646,0.8409,0.0,0.0,0.0,0.0,0.0,0.0,0.0,0.0,0.0,1.1139,1.0706,1.0776,1.0776,0.0,0.0,0.0,0.0,0.0,0.0,0.0,0.0,0.0,0.0,0.0,0.0,0.0,0.0,0.0,0.0,0.0,0.0,0.0,0.0,0.0,0.0,0.0,0.0,0.0,0.0,2.1375,2.2103,2.2016,2.1764,2.1485,2.1277,2.0466,1.9721,0.0,0.0,1.8489,1.8226,1.7961,1.7576,1.7011,1.6816,1.6678,0.0,0.0,1.625,1.6646,0.0,0.0,0.0,0.0,0.0,0.0,0.0,0.0,0.0,0.0,0.0,1.3814,1.3208,1.2506,1.1657,1.0771,0.9912,0.9137,0.8278,0.7621,0.7228,0.6615,0.6124,0.5811,0.5233,0.4924,0.4743,0.3856,0.0,0.0,0.283,0.2565,0.247,0.2275,0.2071,0.183,0.1685,0.1447,0.1203,0.0,0.0,0.0,0.0,0.0,0.8152,0.7673,0.772,0.7994,0.8545,0.8896,0.918,0.9392,0.9396,0.9289,0.9015,0.8563,0.0,0.0,0.0,0.0,0.0,0.0,0.0,0.0,0.0,1.0218,1.0015,1.0555,1.0523,1.0021,1.1043,1.1152,1.0561,0.0,0.0,0.0,0.0,0.0,0.0,0.0,0.0,0.0,0.0,0.0,0.0,0.0,0.0,0.0,0.0,0.0,0.0,0.0,1.8851,1.9091,0.0,2.0255,2.1277,2.1437,2.1207,2.0866,2.0563,1.9907,1.924,0.0,1.8202,1.754,1.7693,1.7288,1.6918,1.6918,1.6578,1.6349,1.6481,0.0,0.0,0.0,0.0,0.0,0.0,0.0,0.0,0.0,0.0,0.0,0.0,0.0,0.0,1.3532,1.3245,1.2905,1.2409,1.1039,1.0178,0.9889,0.9032,0.8237,0.7489,0.7013,0.6529,0.6083,0.5322,0.501,0.0,0.0,0.0,0.0,0.283,0.2565,0.247,0.2275,0.2049,0.1787,0.1636,0.1447,0.1239,0.0,0.0,0.0,0.0,0.0,0.0,0.865,0.8042,0.7988,0.9251,0.9083,0.9051,0.9606,0.9964,1.0135,1.0047,0.9011,0.0,0.0,0.0,0.0,0.0,0.0,0.0,0.0,1.0354,1.0359,0.9945,1.0464,1.056,1.0214,1.077,1.0898,1.0714,1.0803,0.0,0.0,0.0,0.0,0.0,0.0,0.0,0.0,0.0,0.0,0.0,0.0,0.0,0.0,0.0,0.0,0.0,0.0,0.0,0.0,1.8855,1.9387,2.0085,2.0014,2.0334,2.0561,2.0017,1.9786,1.9554,1.8922,1.8302,1.7807,1.7415,1.6893,1.6342,1.5835,1.5513,1.5396,1.5521,1.5272,0.0,0.0,0.0,0.0,0.0,0.0,0.0,0.0,0.0,0.0,0.0,0.0,0.0,1.3509,1.2936,1.2434,1.1925,1.151,1.082,0.9962,0.9371,0.8815,0.8241,0.7404,0.6825,0.6433,0.5772,0.5285,0.0,0.0,0.0,0.0,0.2964,0.2647,0.247,0.2275,0.207,0.1825,0.1615,0.1539,0.1527,0.0,0.0,0.0,0.0,0.0,0.0,0.8438,0.7972,0.792,0.8797,0.8793,0.898,0.9574,0.9833,1.0093,1.0506,0.9465,0.0,0.0,0.0,0.0,0.0,0.0,0.0,0.9752,1.0247,1.0306,1.0001,1.0367,1.047,1.0298,1.0703,1.0801,1.0644,1.068,1.0864,0.0,0.0,0.0,0.0,0.0,0.0,1.5085,0.0,0.0,0.0,0.0,0.0,0.0,0.0,0.0,0.0,0.0,0.0,0.0,0.0,1.9173,1.9277,1.9388,1.9652,1.9854,1.9757,1.9415,1.9019,1.8778,0.0,1.7478,1.7259,1.6732,1.6085,1.5443,1.5077,1.4917,1.4927,1.4726,0.0,0.0,0.0,0.0,0.0,0.0,0.0,0.0,0.0,0.0,0.0,0.0,0.0,1.3509,1.2977,1.2441,1.1997,1.169,1.1177,1.0381,0.982,0.9297,0.8684,0.7889,0.7267,0.6787,0.6168,0.5578,0.0,0.0,0.0,0.0,0.3041,0.2691,0.247,0.2198,0.1953,0.1705,0.1501,0.1465,0.1491,0.0,0.0,0.0,0.0,0.0,0.0,0.0,0.7679,0.7846,0.7458,0.8228,0.8924,0.9292,0.9199,0.9499,1.0522,0.9935,0.0,0.0,0.0,0.0,0.0,0.0,0.0,0.9421,0.9909,1.0173,1.0229,1.0277,1.0334,1.0352,1.0777,1.0801,1.051,1.1068,1.1468,0.0,0.0,0.0,0.0,1.3046,1.3763,0.0,0.0,0.0,0.0,0.0,0.0,0.0,0.0,0.0,0.0,0.0,0.0,0.0,0.0,0.0,0.0,0.0,1.916,1.8901,1.9634,1.8831,1.8024,1.8508,0.0,0.0,1.7072,1.6715,1.6161,1.5598,1.5223,1.4869,1.4636,1.4505,0.0,0.0,0.0,0.0,0.0,0.0,0.0,0.0,0.0,0.0,0.0,0.0,0.0,1.353,1.3231,1.2881,1.2448,1.1757,1.1241,1.1025,1.0323,0.9628,0.8934,0.8436,0.7804,0.7088,0.6492,0.5869,0.0,0.0,0.0,0.0,0.3162,0.2842,0.2588,0.2159,0.186,0.1598,0.1475,0.1404,0.1348,0.0,0.0,0.0,0.0,0.0,0.0,0.0,0.0,0.0,0.0,0.817,0.863,0.8785,0.9412,1.0071,0.0,0.0,0.0,0.0,0.0,0.0,0.0,0.0,0.0,0.9773,1.0288,1.0491,1.0361,1.0385,1.0479,1.0673,1.0806,1.0948,1.115,1.1322,1.1574,0.0,0.0,0.0,0.0,1.2746,1.3302,0.0,0.0,0.0,0.0,1.7087,1.7509,0.0,0.0,0.0,0.0,0.0,0.0,0.0,0.0,1.9527,1.8798,1.9261,0.0,1.89,1.8789,1.8841,1.8745,0.0,1.7528,0.0,0.0,0.0,0.0,0.0,1.5586,1.5372,1.4835,1.4769,1.4732,0.0,0.0,0.0,0.0,0.0,0.0,0.0,0.0,0.0,0.0,0.0,1.4054,1.3463,1.3217,1.3052,1.2924,1.2406,1.1843,1.1241,1.0389,0.9804,0.9421,0.8501,0.7779,0.7323,0.6798,0.6258,0.0,0.0,0.0,0.4614,0.3872,0.3624,0.3679,0.3056,0.289,0.2903,0.2627,0.2685,0.2784,0.0,0.0,0.0,0.0,0.0,0.0,0.0,0.0,0.0,0.0,0.8517,0.8964,0.9037,0.9489,1.0014,0.0,0.0,0.0,0.0,0.0,0.0,0.0,0.0,1.0237,1.0268,1.0659,1.073,1.0395,1.0512,1.0668,1.0848,1.126,1.1557,1.1702,1.1801,1.1892,1.1966,1.1595,1.1558,1.1744,1.1966,0.0,0.0,0.0,0.0,0.0,1.6716,1.7208,0.0,1.8406,1.8928,1.924,0.0,0.0,0.0,0.0,2.002,1.9439,1.9529,1.9063,1.8523,1.8442,1.8501,1.8458,1.7808,0.0,0.0,0.0,0.0,0.0,0.0,0.0,0.0,1.4995,1.484,0.0,0.0,0.0,0.0,0.0,0.0,0.0,0.0,0.0,0.0,0.0,0.0,1.4087,1.358,1.344,1.3307,1.3222,1.279,1.2186,1.1499,1.0805,1.0191,0.9602,0.8931,0.8286,0.7668,0.7363,0.679,0.0,0.0,0.0,0.4693,0.4268,0.4034,0.3915,0.3565,0.3368,0.3237,0.3008,0.2927,0.2866,0.0,0.0,0.0,0.0,0.0,0.0,0.0,0.0,0.0,0.0,0.0,0.0,0.0,0.0,0.0,0.0,0.0,0.0,0.0,0.0,0.0,0.0,1.0718,1.0647,1.0611,1.0947,1.0859,1.0381,1.0677,1.0845,1.0874,1.1674,1.2093,1.2152,1.2366,1.2308,1.2003,1.1409,1.1223,1.1335,1.1186,0.0,0.0,0.0,0.0,0.0,0.0,0.0,0.0,1.7757,1.8364,1.8762,1.9039,0.0,0.0,0.0,0.0,0.0,1.9952,1.9094,1.8233,1.8322,1.8118,1.7865,1.7774,0.0,0.0,0.0,0.0,0.0,0.0,1.5526,0.0,0.0,0.0,0.0,0.0,0.0,0.0,0.0,0.0,0.0,0.0,0.0,0.0,0.0,0.0,1.4335,1.3835,1.3779,1.3652,1.3434,1.3008,1.2432,1.1792,1.1215,1.0538,0.9711,0.9409,0.8864,0.8089,0.7904,0.7279,0.6318,0.0,0.0,0.4771,0.4654,0.4462,0.4268,0.4114,0.3837,0.3474,0.3356,0.31,0.2739,0.0,0.0,0.0,0.0,0.0,0.0,0.0,0.0,0.0,0.0,0.0,0.0,0.0,0.0,0.0,0.0,0.0,0.0,0.0,0.0,0.0,0.9846,1.0242,1.0359,1.0184,1.0831,1.0871,1.0237,1.0656,1.0801,1.0645,1.1203,1.1778,1.2369,1.2927,1.2801,1.2224,1.1595,1.126,1.1149,1.1111,0.0,0.0,0.0,0.0,0.0,0.0,0.0,0.0,1.7684,1.8353,1.8808,1.9539,0.0,0.0,0.0,0.0,0.0,1.9981,1.9499,1.8944,1.8241,1.8198,1.8188,1.7661,0.0,0.0,0.0,0.0,0.0,0.0,1.6954,0.0,0.0,0.0,0.0,0.0,0.0,0.0,0.0,0.0,0.0,0.0,0.0,0.0,0.0,0.0,1.4579,1.4314,1.4117,1.3913,1.3652,1.3211,1.2711,1.2206,1.1221,1.0549,1.0177,0.9397,0.887,0.8562,0.8034,0.7521,0.7026,0.0,0.6331,0.6475,0.5738,0.5815,0.636,0.5622,0.5279,0.519,0.4871,0.464,0.4276,0.0,0.0,0.0,0.0,0.0,0.0,0.0,0.0,0.0,0.0,0.0,0.0,0.0,0.0,0.0,0.0,0.0,0.0,0.0,0.0,0.9544,0.9435,0.9782,1.002,1.0162,1.0631,1.0728,1.0429,1.0857,1.1047,1.0989,1.1531,1.2211,1.2979,1.3011,1.2703,1.2206,1.2107,1.1583,1.0877,0.0,0.0,0.0,0.0,0.0,0.0,0.0,0.0,0.0,0.0,1.7666,1.8441,1.8795,0.0,0.0,0.0,0.0,0.0,2.0059,1.9942,1.9736,1.8643,1.8491,1.8559,1.8483,1.8122,0.0,0.0,0.0,0.0,0.0,0.0,0.0,0.0,0.0,0.0,0.0,0.0,0.0,0.0,0.0,0.0,0.0,0.0,0.0,0.0,0.0,0.0,1.4566,1.4489,1.4253,1.3876,1.3502,1.3041,1.2414,1.1657,1.1015,1.0462,0.9795,0.9268,0.8851,0.847,0.794,0.7334,0.0,0.6834,0.6861,0.6475,0.6553,0.6853,0.6349,0.5904,0.5462,0.4705,0.4385,0.4183,0.0,0.0,0.0,0.0,0.0,0.0,0.0,0.0,0.0,0.0,0.0,0.0,0.0,0.0,0.0,0.0,0.0,0.0,0.0,0.917,0.9165,0.9165,0.9354,0.9646,1.0035,1.0423,1.0594,1.0532,1.1079,1.1388,1.1567,1.2039,1.2694,1.3353,1.2983,1.2587,1.2234,1.2439,1.1903,1.0987,0.0,0.0,0.0,0.0,0.0,0.0,0.0,0.0,0.0,0.0,0.0,0.0,0.0,0.0,0.0,2.0342,2.0701,2.0873,2.0226,2.0256,2.0207,1.9222,1.886,1.8812,1.9262,1.8749,0.0,0.0,0.0,0.0,0.0,0.0,0.0,0.0,0.0,0.0,0.0,0.0,0.0,0.0,0.0,0.0,0.0,0.0,0.0,0.0,0.0,0.0,1.4943,1.4943,1.4712,1.4275,1.3804,1.328,1.2679,1.2113,1.1464,1.0721,1.0307,0.9803,0.9193,0.9003,0.8513,0.7825,0.7484,0.7268,0.7186,0.7038,0.7038,0.7099,0.6824,0.6254,0.5482,0.4588,0.4169,0.3938,0.0,0.0,0.0,0.0,0.0,0.0,0.0,0.0,0.0,0.0,0.0,0.0,0.0,0.0,0.0,0.0,0.0,0.0,0.0,0.8861,0.8742,0.8742,0.8941,0.9226,0.9615,1.0282,1.053,1.0333,1.1203,1.1899,1.2302,1.2488,1.2741,1.3009,1.2882,1.2712,1.256,1.2305,1.2097,1.1893,1.1903,0.0,0.0,0.0,0.0,0.0,0.0,0.0,0.0,0.0,0.0,0.0,0.0,0.0,2.002,2.045,2.0561,2.0559,2.0536,2.0273,1.9945,1.9847,1.924,0.0,1.945,1.8957,0.0,1.9404,0.0,0.0,0.0,0.0,0.0,0.0,0.0,0.0,0.0,0.0,0.0,0.0,0.0,0.0,0.0,0.0,0.0,0.0,0.0,0.0,1.565,1.5609,1.5436,1.5012,1.4032,1.3391,1.3153,1.2378,1.1664,1.1067,1.0824,1.04,0.9846,0.962,0.9311,0.8846,0.8089,0.7874,0.7968,0.7426,0.7389,0.771,0.7302,0.6589,0.5762,0.5486,0.499,0.4365,0.0,0.0,0.0,0.0,0.0,0.0,0.0,0.0,0.0,0.0,0.0,0.0,0.0,0.0,0.0,0.0,0.0,0.0,0.0,0.8792,0.8768,0.8518,0.9106,0.9434,0.9486,0.9984,1.03,1.0481,1.1321,1.1832,1.2175,1.2445,1.2638,1.2717,1.312,1.3107,1.2783,1.3022,1.2613,1.1846,1.2107,1.186,0.0,0.0,0.0,0.0,0.0,0.0,0.0,0.0,1.7072,1.8161,1.8556,1.9083,1.9588,1.985,1.9844,1.9804,2.0077,2.0218,2.0189,1.9954,1.9784,0.0,0.0,1.9962,1.9766,2.0595,2.0391,0.0,0.0,0.0,0.0,0.0,0.0,0.0,0.0,0.0,0.0,0.0,0.0,0.0,0.0,0.0,0.0,0.0,0.0,0.0,1.636,1.6188,1.5849,1.5246,1.4511,1.3797,1.3144,1.2617,1.2077,1.1484,1.1149,1.0663,1.0062,0.9734,0.9297,0.8799,0.8466,0.8381,0.8456,0.8182,0.81,0.8014,0.707,0.6462,0.6054,0.5469,0.4972,0.4564,0.0,0.0,0.0,0.0,0.0,0.0,0.0,0.0,0.0,0.0,0.0,0.0,0.0,0.0,0.0,0.0,0.0,0.0,0.8387,0.8646,0.8681,0.8489,0.9179,0.9597,0.9572,0.9826,1.0218,1.072,1.1439,1.1871,1.1995,1.2397,1.2584,1.2578,1.3131,1.3291,1.3176,1.3518,1.3182,1.2465,1.2478,1.2074,0.0,0.0,0.0,0.0,0.0,0.0,0.0,0.0,1.6874,1.8005,1.8447,1.8997,1.9469,1.9578,1.9515,1.9525,2.0073,2.0299,2.0393,2.0497,0.0,0.0,2.1098,2.0673,2.0479,2.1492,2.1213,0.0,0.0,0.0,0.0,0.0,0.0,0.0,0.0,0.0,0.0,0.0,0.0,0.0,0.0,0.0,0.0,0.0,0.0,0.0,0.0,1.6853,1.6401,1.5688,1.4958,1.4212,1.3407,1.2868,1.2331,1.1763,1.1353,1.0885,1.0395,0.9937,0.9511,0.9078,0.8892,0.876,0.8648,0.8534,0.8334,0.802,0.7207,0.666,0.6253,0.5697,0.5224,0.4779,0.0,0.0,0.0,0.0,0.0,0.0,0.0,0.0,0.93,0.9296,0.9137,0.0,0.0,0.0,0.0,0.0,0.0,0.0,0.8379,0.8324,0.8426,0.868,0.9101,0.9518,0.9989,0.9948,1.0253,1.1008,1.165,1.1995,1.1995,1.2397,1.2649,1.2725,1.2866,1.3209,1.3669,1.3644,1.378,1.3986,1.3003,1.2737,1.2842,0.0,0.0,0.0,0.0,0.0,0.0,0.0,1.6971,1.7701,1.8818,1.947,1.9785,1.9785,1.9737,1.9864,2.0657,2.0502,2.0359,0.0,0.0,0.0,2.1721,2.0982,2.0586,2.1835,0.0,0.0,0.0,0.0,0.0,0.0,0.0,0.0,0.0,0.0,0.0,0.0,0.0,0.0,0.0,0.0,0.0,0.0,0.0,0.0,0.0,1.7635,1.713,1.6507,1.5381,1.4559,1.402,1.3084,1.2369,1.1899,1.1508,1.1106,1.0763,1.0329,1.0039,0.9868,0.9421,0.8973,0.8604,0.8368,0.8073,0.7723,0.792,0.7351,0.6402,0.6402,0.585,0.5084,0.0,0.0,0.0,0.0,0.0,0.0,0.0,0.0,0.9841,0.9539,0.9322,0.0,0.0,0.0,0.0,0.0,0.0,0.0,0.8212,0.8377,0.8502,0.8493,0.9004,0.9436,0.9791,1.019,1.0533,1.0776,1.1426,1.1818,1.1995,1.2612,1.2896,1.2956,1.3688,1.3869,1.367,1.391,1.3688,1.3093,1.2804,1.2097,1.1287,0.0,0.0,0.0,0.0,0.0,0.0,0.0,0.0,0.0,1.8164,1.8718,1.9103,1.9103,1.8992,1.9002,1.9726,2.0236,0.0,2.1176,0.0,0.0,0.0,2.1873,0.0,0.0,0.0,0.0,0.0,0.0,0.0,0.0,0.0,0.0,0.0,0.0,0.0,0.0,0.0,0.0,0.0,0.0,0.0,0.0,0.0,0.0,0.0,1.7677,1.7184,1.6528,1.5439,1.461,1.4027,1.311,1.2338,1.1688,1.1145,1.0817,1.0713,1.0102,0.9892,1.001,0.9348,0.9064,0.9064,0.8607,0.8384,0.8215,0.7754,0.7256,0.67,0.6318,0.5735,0.5057,0.0,0.0,0.0,0.0,0.0,0.0,0.0,0.0,1.0067,0.9771,0.9549,0.9334,0.0,0.0,0.0,0.0,0.0,0.0,0.0,0.8491,0.8539,0.8423,0.9066,0.9642,1.0065,1.0608,1.0864,1.0758,1.1244,1.1494,1.1598,1.2342,1.2731,1.275,1.3662,1.391,1.3707,1.4028,1.3802,1.3227,1.2864,1.2207,1.1408,0.0,0.0,0.0,0.0,0.0,0.0,0.0,0.0,0.0,1.7711,1.8452,1.8975,1.8942,1.8988,1.9158,1.96,2.0345,0.0,2.1583,2.231,2.2964,2.3001,0.0,0.0,0.0,0.0,0.0,0.0,0.0,0.0,0.0,0.0,0.0,0.0,0.0,0.0,0.0,0.0,0.0,0.0,0.0,0.0,0.0,0.0,0.0,0.0,1.7938,1.7362,1.6826,1.588,1.4964,1.4064,1.3481,1.2739,1.1746,1.1301,1.0968,1.0678,1.016,0.9869,0.9717,0.9163,0.8981,0.9041,0.8772,0.8407,0.7991,0.7696,0.7272,0.6828,0.6432,0.591,0.5347,0.0,0.0,1.1099,1.1035,0.0,0.0,0.0,0.0,1.0191,1.0024,0.9749,0.9527,0.0,0.0,0.0,0.0,0.0,0.8802,0.8603,0.8564,0.8526,0.8431,0.9206,0.9952,1.0589,1.0996,1.1103,1.0882,1.1192,1.1221,1.1032,1.1927,1.2384,1.248,1.3146,1.3613,1.3879,1.4091,1.4135,1.3977,1.315,1.2769,1.2521,1.122,0.0,0.0,0.0,0.0,0.0,0.0,0.0,0.0,1.7385,1.8432,1.9175,1.9108,1.9473,1.9932,1.9991,2.0661,0.0,2.232,2.2972,0.0,2.3897,2.3824,2.3629,2.3409,0.0,0.0,0.0,0.0,0.0,0.0,0.0,0.0,0.0,0.0,0.0,0.0,0.0,0.0,0.0,0.0,0.0,0.0,0.0,0.0,0.0,1.8275,1.7573,1.7265,1.6476,1.5455,1.4172,1.4021,1.3328,1.2089,1.1822,1.1367,1.0758,1.0418,0.9889,0.9214,0.906,0.8874,0.8751,0.8855,0.8321,0.7435,0.7717,0.7414,0.6821,0.6674,0.6263,0.5719,0.0,0.0,1.1401,1.1072,0.0,0.0,0.0,0.0,0.0,1.0666,0.0,0.0,0.0,0.0,0.0,0.0,0.9048,0.8768,0.8388,0.8378,0.84,0.8543,0.9392,1.0074,1.0569,1.0519,1.0655,1.0914,1.1346,1.1595,1.1782,1.2346,1.292,1.3497,1.387,1.4152,1.4355,1.4703,1.4422,1.3792,1.3827,1.3161,1.2125,1.1804,1.1181,0.0,0.0,0.0,0.0,0.0,0.0,0.0,1.6523,1.7599,1.8489,1.8798,1.9374,1.9823,1.9566,2.0484,0.0,0.0,2.3026,2.4116,2.449,2.4574,2.4381,0.0,0.0,0.0,0.0,0.0,0.0,0.0,0.0,0.0,0.0,0.0,0.0,0.0,0.0,0.0,0.0,0.0,0.0,0.0,0.0,0.0,1.8569,1.8049,1.7531,1.6998,1.6087,1.5274,1.4571,1.3884,1.3228,0.0,1.2056,1.1624,1.1308,1.0329,0.974,0.9473,1.0098,0.985,0.9003,0.9034,0.8765,0.8299,0.8045,0.7588,0.7007,0.6832,0.6179,0.543,0.0,0.0,0.0,0.0,0.0,0.0,0.0,0.0,0.0,0.0,0.0,0.0,0.0,0.0,0.0,0.0,0.9287,0.9,0.8802,0.8584,0.8596,0.8916,0.9498,1.0118,1.0726,1.0835,1.105,1.1366,1.1734,1.1806,1.1623,1.2367,1.2956,1.3478,1.383,1.408,1.4342,1.4492,1.4326,1.3884,1.3857,1.3277,1.2432,1.1974,1.1359,1.0669,1.0554,0.0,0.0,0.0,0.0,0.0,0.0,0.0,1.8307,1.8573,1.8986,1.9307,1.9288,0.0,0.0,2.191,0.0,2.4084,2.4049,2.4176,2.4211,0.0,0.0,0.0,0.0,0.0,0.0,0.0,0.0,0.0,0.0,0.0,0.0,0.0,0.0,0.0,0.0,0.0,0.0,0.0,0.0,1.9722,1.8863,1.8343,1.7843,1.743,1.6591,1.5854,1.5223,1.4579,1.3948,1.332,1.2677,1.2073,1.1452,1.0396,1.0053,1.0322,1.0219,0.9712,0.8945,0.8915,0.8528,0.7953,0.7818,0.7485,0.7071,0.673,0.6234,0.5726,0.0,0.0,0.0,0.0,0.0,0.0,0.0,0.0,0.0,0.0,0.0,0.0,0.0,0.0,0.9914,0.0,0.0,0.0,0.9213,0.8828,0.8828,0.9388,0.9666,1.0204,1.1036,1.1385,1.1721,1.196,1.2169,1.1979,1.1339,1.2306,1.295,1.3291,1.3587,1.3893,1.4235,1.4176,1.4171,1.413,1.3662,1.3271,1.2912,1.1988,1.1441,1.1078,1.0242,1.044,1.1043,1.1047,0.0,0.0,0.0,0.0,1.7919,1.8161,1.8489,1.8839,1.9058,0.0,2.0424,2.2083,2.319,0.0,2.3376,2.3561,0.0,0.0,0.0,0.0,0.0,0.0,0.0,0.0,0.0,0.0,0.0,0.0,0.0,0.0,0.0,0.0,0.0,0.0,0.0,0.0,0.0,1.9986,1.9462,1.8764,1.8291,1.804,1.7353,1.6638,1.5891,1.5441,1.4857,1.4061,1.3414,1.262,1.1732,1.0832,1.0655,1.1016,1.0091,0.9395,0.8863,0.8798,0.8258,0.7521,0.7625,0.7482,0.7176,0.6728,0.6444,0.6202,0.0,0.0,0.0,0.0,0.0,0.0,0.0,0.0,0.0,0.0,1.0869,1.0368,0.0,1.0281,0.9943,0.9986,0.9747,0.9382,0.8986,0.0,0.0,0.9864,1.0096,1.0639,1.1584,1.1807,1.2027,1.216,1.2481,1.2335,1.1804,1.2665,1.3408,1.4059,1.3805,1.4114,1.479,1.4569,1.4394,1.4334,1.3911,1.3442,1.2912,1.2144,1.1605,1.1095,1.0429,1.0466,1.0848,1.0835,1.1328,0.0,0.0,0.0,1.6263,1.6985,1.8123,1.9008,1.8477,0.0,2.0969,0.0,2.3093,2.3398,0.0,0.0,0.0,0.0,0.0,0.0,0.0,0.0,0.0,0.0,0.0,0.0,0.0,0.0,0.0,0.0,0.0,0.0,0.0,0.0,0.0,0.0,2.1012,2.0679,1.9644,1.9039,1.8603,1.8281,1.7651,1.6971,1.6251,1.5644,1.5159,1.4751,1.3852,1.3208,1.2797,1.2359,1.1544,1.0509,1.0529,1.001,0.9136,0.8997,0.8726,0.8352,0.8346,0.8084,0.7677,0.7364,0.6951,0.6497,0.0,0.0,0.0,0.0,0.0,0.0,0.0,0.0,0.0,0.0,0.0,1.0903,0.0,1.0479,1.0196,0.9959,0.9714,0.9385,0.891,0.8738,0.8857,0.9382,0.9852,1.0504,1.1284,1.1859,1.2258,1.2422,1.2438,1.2438,1.2522,1.304,1.3376,1.3619,1.3952,1.4233,1.4453,1.444,1.4358,1.4173,1.3739,1.3334,1.2931,1.2349,1.1678,1.0973,1.0695,1.0519,1.0435,1.065,1.1166,1.1985,1.3538,0.0,0.0,0.0,1.6974,1.7647,1.7985,1.9323,2.0802,0.0,2.2294,2.2742,2.2633,0.0,0.0,0.0,0.0,0.0,0.0,0.0,0.0,0.0,0.0,0.0,0.0,0.0,0.0,0.0,0.0,0.0,0.0,0.0,0.0,0.0,2.1219,2.0765,2.0096,1.9638,1.9308,1.9042,1.8303,1.7692,1.7199,1.6216,1.5314,1.4511,1.4241,1.3778,1.3155,1.2736,1.1875,1.0694,1.065,1.0075,0.9195,0.8938,0.8739,0.8593,0.8457,0.825,0.8032,0.7658,0.73,0.692,0.0,0.0,0.0,0.0,0.0,0.0,0.0,0.0,0.0,0.0,0.0,0.0,0.0,0.0,0.0,0.0,0.9797,0.9507,0.9094,0.8922,0.8885,0.9077,0.9672,1.0319,1.1063,1.1958,1.2473,1.266,1.2719,1.2806,1.2964,1.3435,1.3476,1.3228,1.4099,1.4486,1.4401,1.439,1.4411,1.4316,1.3721,1.3355,1.3121,1.2591,1.1942,1.1288,1.099,1.0648,1.0385,1.064,1.1018,0.0,0.0,0.0,0.0,0.0,0.0,0.0,0.0,0.0,1.9931,2.0401,2.1149,2.1694,0.0,0.0,0.0,0.0,0.0,0.0,0.0,0.0,0.0,0.0,0.0,0.0,0.0,0.0,0.0,0.0,0.0,0.0,0.0,0.0,0.0,0.0,2.167,2.1272,2.085,2.0356,1.9944,1.9619,1.8856,1.8284,1.796,1.6773,1.5607,1.4467,1.4486,1.4123,1.342,1.3003,1.2209,1.1137,1.0678,0.9989,0.9186,0.8878,0.8763,0.8745,0.8587,0.8467,0.8342,0.7922,0.7629,0.7375,0.0,0.0,0.0,0.0,0.0,0.0,0.0,0.0,0.0,0.0,0.0,0.0,1.0911,1.0552,1.0322,1.0298,1.0036,0.9806,0.9586,0.9332,0.9293,0.955,0.9855,0.0,1.1278,1.2217,1.2731,1.2783,1.3795,1.3782,1.2836,1.3877,1.4019,1.3447,1.4419,1.4979,1.5118,1.4606,0.0,0.0,0.0,0.0,0.0,0.0,0.0,0.0,0.0,0.0,0.0,0.0,0.0,0.0,0.0,0.0,0.0,0.0,0.0,0.0,0.0,1.7643,0.0,1.9212,1.9757,0.0,0.0,0.0,0.0,0.0,0.0,0.0,0.0,0.0,0.0,0.0,0.0,0.0,0.0,0.0,0.0,0.0,0.0,0.0,0.0,0.0,0.0,0.0,2.2775,2.2632,2.2037,2.1092,2.0263,1.9629,1.9114,1.8637,1.8102,1.7137,1.6146,1.5156,1.4515,1.4058,1.3769,1.3541,1.2865,1.1783,1.0697,0.9818,0.9202,0.9042,0.8974,0.8999,0.9041,0.8868,0.8569,0.8342,0.8097,0.7788,0.0,0.0,0.0,0.0,0.0,0.0,0.0,0.0,0.0,0.0,0.0,0.0,0.0,1.0939,1.0684,1.0258,0.9902,0.9723,0.9791,0.9473,0.9493,0.9948,1.0124,1.0516,1.1205,1.2076,1.2525,1.2531,1.3154,1.3194,1.2739,1.352,1.3753,1.3559,1.4271,1.4612,1.4676,1.4614,0.0,0.0,0.0,0.0,0.0,0.0,0.0,0.0,0.0,0.0,0.0,0.0,0.0,0.0,0.0,0.0,0.0,0.0,0.0,0.0,0.0,0.0,0.0,1.8896,1.9536,1.996,0.0,0.0,0.0,0.0,0.0,0.0,0.0,0.0,0.0,0.0,0.0,0.0,0.0,0.0,0.0,0.0,0.0,0.0,0.0,0.0,0.0,0.0,0.0,2.2696,2.2185,2.1796,2.1164,2.0266,1.9873,1.9018,1.7665,1.7134,1.6427,1.5508,1.5235,1.4735,1.404,1.3881,1.3177,1.2093,1.1839,1.1079,1.0024,0.9843,0.9708,0.9601,0.9242,0.8986,0.8842,0.8668,0.8402,0.8032,0.0,0.0,0.0,1.3296,0.0,1.3744,1.3835,1.3613,1.3236,1.2684,0.0,0.0,0.0,0.0,1.1012,1.0283,1.003,0.9872,0.9795,0.9741,0.9833,1.0172,1.0378,1.0734,1.1307,1.2054,1.2449,1.2484,1.3053,1.3209,1.3002,1.356,1.3763,1.3613,1.4143,1.4537,0.0,0.0,0.0,1.4627,0.0,0.0,1.3611,0.0,0.0,0.0,0.0,0.0,0.0,0.0,0.0,0.0,0.0,0.0,0.0,0.0,0.0,0.0,1.5633,0.0,0.0,0.0,0.0,1.9235,0.0,0.0,0.0,0.0,0.0,0.0,0.0,0.0,0.0,0.0,0.0,0.0,0.0,0.0,0.0,0.0,0.0,0.0,0.0,0.0,0.0,0.0,0.0,0.0,2.2558,2.2439,2.1813,2.0581,2.0155,1.9157,1.7438,1.7278,1.671,1.5749,1.5514,1.5046,1.4359,1.41,1.35,1.2623,1.2971,1.2192,1.0651,1.0588,1.0483,1.0325,0.9962,0.9618,0.9332,0.9177,0.8823,0.835,1.2562,1.3109,1.3613,1.3943,1.418,1.4368,1.4479,1.4184,1.3648,1.2914,0.0,0.0,0.0,0.0,0.0,1.0322,1.0423,1.0267,0.9668,1.0186,1.0432,1.0239,1.0606,1.1037,1.1496,1.2154,1.2576,1.2694,1.3617,1.392,1.3582,1.405,1.4062,1.3641,1.4171,1.4817,1.5569,0.0,1.5134,1.5161,0.0,1.4271,1.4072,0.0,0.0,0.0,1.2873,1.2308,0.0,1.1573,0.0,0.0,0.0,0.0,0.0,0.0,0.0,0.0,0.0,0.0,0.0,0.0,0.0,0.0,1.8563,0.0,0.0,0.0,0.0,0.0,0.0,0.0,0.0,0.0,0.0,0.0,0.0,0.0,0.0,0.0,0.0,0.0,0.0,0.0,0.0,0.0,2.4369,2.3931,2.3245,2.2989,2.2107,2.0478,1.9942,1.8982,1.7534,1.7521,1.6971,1.5931,1.5313,1.4931,1.4706,1.424,1.3818,1.3453,1.398,1.303,1.1096,1.1272,1.1249,1.1136,1.1267,1.078,0.999,0.9862,0.9402,0.877,1.301,1.3188,1.3354,1.3608,1.4088,1.4402,1.4223,1.4331,1.4207,0.0,0.0,0.0,1.2479,1.2118,1.1712,1.1242,1.0946,1.0765,1.0765,1.0886,1.0954,1.1063,1.1401,1.1707,1.1994,1.2384,1.2622,1.2784,1.3286,1.3358,1.3107,1.3425,1.3733,1.4057,1.4109,1.4538,1.5218,1.5125,0.0,1.512,1.4951,1.4593,0.0,0.0,0.0,0.0,0.0,1.2547,1.2024,0.0,1.1223,1.0857,0.0,0.0,0.0,0.0,0.0,0.0,1.4085,0.0,0.0,0.0,0.0,0.0,1.7148,1.7889,1.8573,0.0,0.0,0.0,0.0,0.0,0.0,0.0,0.0,0.0,0.0,0.0,0.0,0.0,0.0,0.0,0.0,0.0,0.0,0.0,2.4593,2.4308,2.388,2.2604,2.1628,2.1087,1.965,1.8662,1.815,1.7712,1.7179,1.6542,1.5941,1.5565,1.541,1.5029,1.4588,1.4138,1.4441,1.3909,1.2835,1.2505,1.2129,1.1702,1.1323,1.0818,1.032,0.9932,0.9588,0.9206,1.3273,1.3454,1.366,1.4029,1.4576,1.4939,1.4853,1.4966,1.4892,0.0,0.0,0.0,1.3225,1.2715,1.2289,1.1938,1.155,1.1335,1.1262,1.1262,1.1345,1.1527,1.1948,1.2203,1.2352,1.2705,1.2904,1.2979,1.3315,1.3446,1.328,1.3477,1.3715,1.4034,1.4105,1.4502,1.509,0.0,0.0,0.0,1.5041,0.0,0.0,1.4453,1.4035,0.0,0.0,0.0,1.2301,1.1942,1.1441,0.0,0.0,0.0,0.0,0.0,0.0,0.0,0.0,0.0,0.0,0.0,0.0,0.0,1.7032,1.772,1.8237,0.0,0.0,0.0,0.0,0.0,0.0,0.0,0.0,0.0,0.0,0.0,0.0,0.0,0.0,0.0,0.0,2.5439,2.5173,2.5103,2.4877,2.4528,2.3962,2.2566,2.1631,2.1226,1.9897,1.8973,1.8503,1.7826,1.7256,1.6779,1.6124,1.572,1.5575,1.5323,1.4917,1.4421,1.4752,1.4482,1.3797,1.3584,1.3147,1.2592,1.2092,1.1569,1.1045,1.0446,0.9996,0.9589,0.0,1.38,1.4224,1.4783,1.5273,1.5682,1.5849,1.5835,1.5614,0.0,1.51,1.4774,1.3906,1.3393,1.2934,1.2485,1.2234,1.1933,1.1459,1.154,1.1675,1.1756,1.2296,1.2639,1.2691,1.317,1.3372,1.3316,1.3659,1.3826,1.3834,1.3895,1.3906,1.3949,1.4179,1.4618,1.5166,0.0,0.0,1.4817,1.5082,1.4958,0.0,0.0,1.4372,1.3857,1.4077,1.3502,1.2644,1.2374,1.1575,0.0,0.0,0.0,0.0,0.0,1.1115,0.0,0.0,0.0,0.0,0.0,0.0,0.0,1.7283,1.7775,1.8017,1.8173,0.0,0.0,0.0,0.0,0.0,0.0,0.0,0.0,0.0,0.0,0.0,0.0,0.0,0.0,2.6004,2.5702,2.5522,2.5522,2.5216,2.4663,2.3806,2.2797,2.1885,2.1105,2.0362,1.9537,1.8625,1.7909,1.7312,1.6835,1.6095,1.5662,1.5439,1.5284,1.4926,1.444,1.4974,1.4792,1.4147,1.4401,1.4142,1.3511,1.3144,1.258,1.1897,1.1097,1.0488,0.9939,1.392,1.4154,1.4382,1.4636,1.5249,1.5707,1.5746,1.6037,1.6147,1.5759,1.5267,1.4823,1.4545,1.4114,1.3765,1.3448,1.3029,1.266,1.2382,1.2318,1.2291,1.2207,1.2818,1.3213,1.3414,1.3803,1.4021,1.4,1.4048,1.4029,1.4036,0.0,0.0,1.4808,1.4467,1.4693,1.536,0.0,0.0,1.5318,1.5748,0.0,1.5231,1.5249,1.4822,1.4193,1.4295,1.381,1.2995,1.2343,1.1372,1.0475,0.0,0.0,0.0,1.0568,0.0,0.0,0.0,0.0,0.0,0.0,0.0,0.0,1.4969,1.5581,1.6124,0.0,0.0,0.0,0.0,0.0,0.0,0.0,0.0,0.0,0.0,0.0,0.0,0.0,0.0,0.0,2.6206,2.5866,2.5661,2.5661,2.5342,2.4831,2.4068,2.3084,2.2086,2.1131,2.0174,1.9375,1.8771,1.8247,1.7689,1.7106,1.6495,1.6056,1.5787,1.5497,1.5032,1.4514,1.4994,1.4849,1.4289,1.4548,1.43,1.3704,1.3202,1.2575,1.1907,1.103,1.0576,1.0238,1.4317,1.4497,1.4721,1.4883,1.5519,1.5996,1.5996,1.6253,1.6428,1.6299,1.5616,1.5102,1.5047,1.4657,1.4266,0.0,1.3765,1.3356,1.2596,1.2752,1.2741,1.2472,1.2999,1.3466,1.3837,1.4171,1.4432,1.4566,1.4504,1.4497,0.0,0.0,0.0,0.0,1.4946,1.5149,1.5741,0.0,1.5526,1.5782,1.6004,0.0,1.5394,1.5519,1.5092,1.4531,1.4685,1.4138,1.3231,1.2565,1.1907,0.0,0.0,1.096,1.0804,0.0,1.1397,1.1903,0.0,0.0,0.0,1.34,0.0,0.0,0.0,1.5074,1.5715,1.6268,0.0,0.0,0.0,0.0,0.0,0.0,0.0,0.0,0.0,0.0,0.0,0.0,0.0,0.0,2.6392,2.6111,2.5839,2.5702,2.5536,2.497,2.3863,2.3125,2.2181,2.0901,2.0027,1.9382,1.8893,1.829,1.7717,1.719,1.6513,1.6066,1.5778,1.5459,1.5158,1.4955,1.4954,1.4724,1.4345,1.4535,1.4057,1.3194,1.3136,1.2728,1.2065,1.0989,1.0521,1.0243,1.4784,1.4935,1.515,1.5346,1.5941,1.643,1.643,1.6547,1.6635,1.6709,1.6047,0.0,0.0,0.0,0.0,0.0,0.0,0.0,0.0,1.3099,1.3151,1.2737,1.3131,1.3636,1.4137,1.45,1.4809,1.5078,1.5188,0.0,0.0,0.0,0.0,0.0,0.0,0.0,0.0,0.0,0.0,1.6211,0.0,1.5948,1.5477,1.5733,1.5443,1.4894,1.5094,1.4536,1.3609,1.3023,1.2576,1.221,1.1768,1.1607,0.0,0.0,0.0,0.0,0.0,0.0,0.0,0.0,0.0,1.37,0.0,0.0,0.0,0.0,0.0,0.0,0.0,0.0,0.0,0.0,0.0,0.0,0.0,0.0,0.0,0.0,0.0,0.0,0.0,2.5875,2.5665,2.5548,2.5534,2.4939,2.3595,2.3149,2.2259,2.0806,2.0041,1.9448,1.904,1.8317,1.7717,1.7284,1.6542,1.6028,1.573,1.542,1.5274,1.5177,1.4914,1.4628,1.4355,1.443,1.3784,1.2774,1.3032,1.2739,1.203,1.0908,1.0378,1.0066,1.5461,1.5541,1.5761,1.5956,1.6446,1.6835,1.6835,1.6937,1.6966,0.0,0.0,0.0,0.0,0.0,0.0,0.0,0.0,0.0,1.3692,0.0,1.3544,1.3148,1.3528,1.3937,1.4361,1.5039,1.5476,1.5699,1.6222,1.6486,0.0,0.0,0.0,0.0,1.6685,0.0,0.0,0.0,1.6435,0.0,1.6894,1.6476,0.0,1.6147,1.6023,1.5572,1.5371,1.4902,1.4307,0.0,1.2986,1.2231,0.0,1.1908,1.1392,1.1649,0.0,0.0,0.0,0.0,0.0,0.0,1.2178,0.0,0.0,0.0,1.3139,1.3823,0.0,0.0,0.0,0.0,0.0,0.0,0.0,0.0,0.0,0.0,0.0,0.0,0.0,0.0,0.0,2.4481,2.4502,2.4878,2.4893,2.4533,2.3644,2.3266,2.2577,2.1433,2.0335,1.9566,1.9186,1.8452,1.792,1.7629,1.6892,1.6314,1.5874,1.572,1.5206,1.4459,1.4926,1.4763,1.4138,1.4327,1.3942,1.3204,1.3008,1.2281,1.1266,1.0724,1.0197,0.9674,1.6026,1.6132,1.6342,1.6517,1.6848,1.7108,1.7243,1.7246,1.718,0.0,0.0,0.0,0.0,0.0,0.0,0.0,0.0,1.4923,0.0,0.0,0.0,1.368,1.3997,1.4353,1.4848,1.5284,1.5744,1.6272,1.6795,1.7099,0.0,0.0,0.0,0.0,1.7612,0.0,1.6853,0.0,1.6722,0.0,0.0,0.0,0.0,1.664,1.6607,1.6232,1.5932,1.5473,1.4941,0.0,1.3918,0.0,0.0,0.0,0.0,0.0,0.0,0.0,0.0,0.0,0.0,0.0,0.0,0.0,1.2225,0.0,1.255,0.0,0.0,0.0,0.0,0.0,0.0,0.0,1.7869,0.0,0.0,0.0,0.0,0.0,0.0,0.0,0.0,0.0,0.0,0.0,2.4474,2.4102,2.367,2.3385,2.2547,2.1141,2.0746,2.0163,1.933,1.8694,1.8166,1.7684,1.7106,1.6531,1.6028,1.5817,1.5486,1.509,1.4885,1.441,1.3811,1.382,1.3185,1.2261,1.2251,1.1934,1.1378,1.053,1.003,0.9633,1.6915,1.6811,1.6821,1.7047,1.7217,1.7401,1.7543,1.7469,1.7338,0.0,0.0,0.0,1.7204,1.673,0.0,0.0,1.6073,1.5647,0.0,0.0,1.4802,0.0,0.0,0.0,0.0,1.5603,1.6053,1.6742,1.7293,1.7603,0.0,0.0,0.0,0.0,0.0,1.8103,1.7343,0.0,1.7253,1.6779,1.7261,1.7294,1.7049,1.7139,1.7139,1.7025,1.6718,1.622,1.565,1.532,1.4822,0.0,1.4011,0.0,0.0,0.0,0.0,0.0,1.2561,0.0,0.0,0.0,0.0,0.0,0.0,0.0,0.0,0.0,0.0,0.0,0.0,0.0,0.0,0.0,0.0,0.0,0.0,0.0,0.0,0.0,0.0,0.0,0.0,0.0,0.0,0.0,0.0,2.3548,2.3395,2.3139,2.2397,2.1098,2.0888,2.0356,1.9473,1.8881,1.8344,1.7877,1.7329,1.6786,1.6285,1.5951,1.573,1.5575,1.4809,1.4184,1.3644,1.3303,1.258,1.1702,1.1755,1.1719,1.1519,1.0379,0.984,0.9581,1.8408,1.7774,0.0,1.747,1.7598,1.7691,1.7691,1.7539,0.0,0.0,0.0,0.0,0.0,0.0,0.0,0.0,0.0,1.6562,1.5879,0.0,1.5553,0.0,0.0,1.5177,0.0,0.0,1.6586,1.7166,1.7903,0.0,0.0,0.0,0.0,0.0,0.0,1.9152,1.8882,1.8233,1.8112,1.8313,1.8353,1.8482,1.8531,0.0,1.7635,1.791,1.7723,0.0,0.0,1.6095,1.5465,0.0,0.0,0.0,0.0,0.0,0.0,0.0,0.0,0.0,0.0,1.1936,0.0,0.0,0.0,0.0,1.1426,0.0,0.0,0.0,0.0,0.0,0.0,0.0,0.0,0.0,0.0,0.0,0.0,0.0,0.0,0.0,0.0,0.0,0.0,0.0,0.0,0.0,2.2558,2.2348,2.2054,2.168,2.0617,1.99,1.9617,1.8922,1.8545,1.8367,1.7629,1.7099,1.6751,1.6285,1.5855,1.5362,1.4687,1.4223,1.3828,1.2904,1.2385,1.2158,1.182,1.1628,1.1368,1.0226,0.964,0.9335,1.8977,1.8888,1.8697,0.0,0.0,0.0,0.0,1.7991,0.0,0.0,0.0,0.0,0.0,1.8331,1.7874,0.0,0.0,1.7193,1.6788,1.6723,0.0,0.0,0.0,1.6422,0.0,0.0,0.0,0.0,0.0,0.0,0.0,0.0,0.0,0.0,0.0,1.9932,0.0,0.0,0.0,0.0,0.0,1.8913,1.9033,0.0,0.0,1.8451,1.8411,1.7787,0.0,1.6826,1.6204,1.549,1.5451,1.5085,1.4572,1.4237,1.3773,0.0,0.0,0.0,1.2803,1.253,0.0,0.0,0.0,0.0,0.0,0.0,0.0,0.0,0.0,0.0,0.0,0.0,0.0,0.0,0.0,0.0,0.0,0.0,0.0,0.0,0.0,0.0,0.0,0.0,0.0,0.0,0.0,2.17,2.1439,2.1239,2.0991,2.0527,1.9888,1.9303,1.8842,1.8545,1.7963,1.744,1.6909,1.657,1.5979,1.5198,1.5089,1.4335,1.3102,1.2941,1.2501,1.1813,1.1344,1.1099,1.0922,1.0395,1.0028,0.9688,2.0083,2.0063,0.0,0.0,0.0,0.0,0.0,0.0,0.0,0.0,1.9351,0.0,1.9679,0.0,1.8772,0.0,1.8496,1.8171,1.797,1.7746,0.0,1.7218,1.7154,0.0,0.0,0.0,0.0,0.0,0.0,1.991,0.0,0.0,0.0,0.0,0.0,2.075,1.9981,0.0,1.9932,0.0,0.0,1.9587,0.0,0.0,1.921,1.9112,0.0,1.8323,1.7701,1.7418,1.6856,1.6263,1.6208,1.5829,1.5333,1.5079,1.4504,1.3884,1.3566,1.3386,0.0,1.3103,1.289,0.0,1.25,0.0,0.0,0.0,0.0,0.0,0.0,0.0,0.0,0.0,0.0,0.0,0.0,1.536,0.0,0.0,0.0,0.0,0.0,0.0,0.0,0.0,0.0,0.0,0.0,0.0,2.0799,2.0726,2.0846,2.0617,2.0016,1.9474,1.9028,1.8679,1.8209,1.7661,1.7067,1.6797,1.6094,1.5091,1.5025,1.4131,1.2776,1.2704,1.2295,1.1653,1.1276,1.1081,1.0975,1.0451,1.0035,0.9658,2.164,2.1157,0.0,0.0,1.9672,0.0,0.0,0.0,2.0256,0.0,2.0108,1.9972,1.9997,1.982,1.977,2.0025,1.9761,1.9506,1.935,1.8913,0.0,0.0,1.793,1.8239,1.8785,0.0,0.0,0.0,0.0,0.0,0.0,0.0,0.0,0.0,2.1484,0.0,2.1203,2.1021,2.0828,2.0644,2.045,2.0498,2.0644,2.0459,2.0225,1.9924,1.9267,1.8929,1.8625,1.7804,1.7406,1.7136,1.6566,1.6085,1.5721,1.5592,1.4934,1.427,1.4382,1.4132,1.3791,1.3601,0.0,0.0,0.0,0.0,1.2551,0.0,0.0,0.0,0.0,0.0,0.0,0.0,0.0,0.0,0.0,0.0,0.0,0.0,0.0,0.0,0.0,0.0,0.0,0.0,0.0,0.0,0.0,0.0,2.015,2.023,2.0148,2.008,2.0016,1.9449,1.9018,1.8762,1.8302,1.776,1.7157,1.6909,1.6168,1.5049,1.4481,1.3732,1.2814,1.22,1.1855,1.1729,1.1579,1.1559,1.1479,1.0405,0.9669,0.9227,2.2062,2.2008,2.1955,0.0,2.1025,2.017,0.0,0.0,0.0,0.0,2.132,2.1181,2.1383,2.1155,2.0929,2.0699,2.0555,0.0,0.0,0.0,0.0,1.9152,1.9171,1.9523,2.0339,2.0202,0.0,2.1074,0.0,0.0,2.1013,0.0,0.0,0.0,0.0,0.0,2.1697,2.1604,2.153,2.1492,2.1425,2.1464,0.0,0.0,2.1233,2.1163,2.0068,1.9453,1.9073,1.8495,1.8072,1.7774,1.76,1.7052,1.6414,1.6265,1.5645,1.4911,1.4687,1.4552,1.4389,1.41,1.3941,1.3851,0.0,0.0,0.0,0.0,0.0,0.0,0.0,0.0,0.0,0.0,0.0,0.0,0.0,0.0,0.0,1.4432,0.0,0.0,0.0,0.0,0.0,0.0,0.0,0.0,0.0,0.0,0.0,2.0684,1.9605,1.9388,2.0144,1.9219,1.8589,1.8267,1.8063,1.7487,1.6694,1.6574,1.5845,1.4737,1.4668,1.3854,1.2601,1.251,1.2388,1.219,1.1852,1.174,1.1633,1.0782,0.9913,0.9173,2.3266,2.2974,0.0,2.3054,0.0,0.0,2.1625,2.188,0.0,2.256,2.2519,0.0,2.2442,2.2375,2.2318,2.2203,2.1736,0.0,2.1128,0.0,0.0,2.0294,2.0284,2.0595,2.13,2.1161,0.0,2.212,0.0,0.0,2.164,0.0,0.0,0.0,0.0,2.2286,0.0,2.2461,2.2323,2.2115,2.2167,0.0,0.0,2.2101,2.2138,2.2167,2.1052,2.0286,1.9685,1.9053,1.8672,1.8442,1.8228,1.771,1.7098,1.6929,1.6384,1.5753,1.5456,1.5366,1.5209,1.4821,1.4686,1.4567,1.4369,1.4061,1.3737,0.0,0.0,0.0,0.0,0.0,0.0,0.0,0.0,0.0,0.0,0.0,0.0,0.0,1.4489,0.0,0.0,0.0,0.0,0.0,0.0,0.0,0.0,0.0,0.0,1.97,1.9451,1.935,1.9491,1.8896,1.8332,1.7847,1.763,1.7141,1.6403,1.6381,1.5802,1.4821,1.4745,1.4118,1.3148,1.2964,1.2808,1.2672,1.2178,1.1875,1.1684,1.1053,1.0319,0.9601,2.4832,2.4148,0.0,0.0,0.0,0.0,0.0,2.3544,0.0,2.346,0.0,2.3618,2.3269,2.3402,2.365,2.3908,0.0,2.2418,2.2575,2.1932,2.1522,2.1399,2.1341,2.1533,2.2043,2.2018,2.2402,0.0,0.0,0.0,0.0,0.0,0.0,0.0,0.0,0.0,0.0,2.3349,2.31,2.2648,2.2878,2.3038,2.315,2.2927,2.2964,2.3029,2.2138,2.1274,2.0427,1.9544,1.9231,1.9201,1.8782,1.8291,1.7811,1.7657,1.7215,1.6737,1.6447,1.6357,1.6168,1.5693,1.5526,1.5439,1.5205,1.4872,1.4457,1.3934,1.3048,1.2295,0.0,0.0,0.0,0.0,0.0,0.0,0.0,0.0,0.0,0.0,0.0,0.0,0.0,0.0,0.0,0.0,0.0,0.0,0.0,0.0,0.0,1.8289,1.9249,1.9389,1.8614,0.0,1.8036,1.7384,1.7123,1.6743,1.6175,1.6179,1.5782,1.5027,1.4673,1.4314,1.3927,1.3368,1.3159,1.3157,1.2617,1.2187,1.1825,1.1373,1.0811,1.0173,2.582,0.0,0.0,0.0,0.0,2.6142,2.6093,2.5157,2.4455,2.4464,2.4236,2.4018,2.3782,2.3863,2.3913,2.3993,2.3452,0.0,0.0,0.0,0.0,2.2509,2.2147,2.2393,2.3367,2.331,2.353,0.0,0.0,0.0,0.0,0.0,0.0,0.0,0.0,0.0,2.3781,2.3944,0.0,2.3465,2.3959,2.4093,2.397,2.3787,2.3824,2.3891,2.3193,2.2262,2.1255,2.0269,2.0042,2.0161,2.0073,1.9406,1.8684,1.8654,1.8208,1.7636,1.7038,1.7103,1.7217,1.6696,1.6257,1.597,1.5912,1.5555,1.5196,1.4963,1.4035,1.3177,1.2914,0.0,0.0,0.0,0.0,0.0,0.0,0.0,0.0,0.0,0.0,1.4197,0.0,0.0,0.0,0.0,0.0,0.0,0.0,0.0,0.0,0.0,1.7887,0.0,0.0,0.0,1.7012,1.6837,1.6674,1.6235,1.5563,1.556,1.5301,1.481,1.4267,1.3988,1.388,1.3458,1.3461,1.3733,1.3576,1.3194,1.2704,1.2126,1.1254,1.0302,0.0,0.0,0.0,0.0,0.0,0.0,0.0,2.671,0.0,2.5487,2.5444,2.5324,2.5087,2.5146,2.521,2.5144,2.4579,2.4174,2.4098,2.3616,2.3486,2.3772,2.3286,0.0,2.4092,2.3889,2.3995,2.4455,0.0,0.0,0.0,0.0,0.0,0.0,0.0,2.4319,0.0,0.0,0.0,2.4417,2.4779,2.485,2.4754,2.4671,2.4683,2.4648,2.378,2.3142,2.2513,2.1417,2.0988,2.0867,2.0617,2.0208,1.9738,1.9226,1.8904,1.8554,1.7684,1.7737,1.7904,1.7383,1.7039,1.6786,1.6673,1.6332,1.5839,1.5133,1.4387,1.3639,1.2926,1.2535,0.0,0.0,0.0,0.0,0.0,0.0,0.0,0.0,0.0,0.0,0.0,0.0,0.0,0.0,0.0,1.6738,0.0,0.0,0.0,0.0,0.0,0.0,0.0,0.0,0.0,1.6746,1.6396,1.5993,1.5554,1.5621,1.5548,1.5333,1.4981,1.4918,1.4972,1.4221,1.3939,1.3939,1.3369,1.2998,1.27,1.1922,1.1135,1.0403,0.0,2.6387,0.0,0.0,2.6894,0.0,2.7841,2.7941,2.753,2.6539,2.6582,2.6607,2.6321,2.6347,2.6366,2.6304,2.5664,2.5282,2.5282,2.4942,2.4802,2.498,2.4502,2.4465,2.4884,2.4549,2.4599,0.0,0.0,0.0,0.0,0.0,0.0,0.0,0.0,0.0,0.0,0.0,2.5298,2.5301,2.5514,2.5581,2.5511,2.5511,2.5451,2.5244,2.4408,2.3959,2.3594,2.2642,2.1999,2.1549,2.1193,2.0993,2.0776,2.001,1.9814,1.965,1.8635,1.8616,1.8731,1.8116,1.7843,1.7689,1.7496,1.7075,1.6484,1.5551,1.4863,1.4108,1.2993,1.2871,0.0,0.0,0.0,0.0,0.0,0.0,0.0,0.0,0.0,0.0,1.4685,0.0,0.0,0.0,0.0,1.6483,1.7222,1.7661,1.7743,0.0,0.0,1.8183,1.7597,0.0,1.6912,1.6864,1.6251,1.587,1.5701,1.5798,1.5864,1.5885,1.5697,1.5794,1.5997,1.5015,1.4495,1.4185,1.3139,1.2659,1.2461,1.1559,1.0923,1.0379,0.0,0.0,0.0,0.0,0.0,0.0,2.8541,2.8379,2.8026,2.7456,2.7248,2.7105,2.6948,2.6609,2.6461,2.6656,2.6169,2.583,2.583,2.5629,2.5599,2.5852,2.5599,2.5646,2.6142,2.6049,2.6013,0.0,0.0,2.5465,0.0,0.0,0.0,0.0,0.0,0.0,0.0,2.602,2.6094,2.5873,2.635,2.6474,2.6311,2.6311,2.599,2.5565,2.5465,2.4778,2.3873,2.3748,2.3096,2.2316,2.2267,2.1946,2.1623,2.1648,2.1531,2.1178,2.0164,2.0149,2.0165,1.9132,1.8694,1.8452,1.8251,1.7695,1.7228,1.717,1.6159,1.4946,1.3882,1.3702,1.3593,0.0,0.0,0.0,0.0,0.0,0.0,0.0,0.0,0.0,0.0,1.4937,0.0,0.0,1.6066,1.6616,1.8023,1.7974,1.8128,1.862,0.0,1.8165,1.8573,1.7099,1.6648,1.7153,1.6259,1.5779,1.5701,1.5701,1.5758,1.581,1.5533,1.5625,1.5886,1.5212,1.4934,1.483,1.3872,1.3101,1.243,1.1654,1.0894,1.0115,0.0,0.0,0.0,0.0,0.0,0.0,0.0,2.9279,2.9448,2.9304,2.8548,2.8106,2.8305,2.786,2.7517,2.7484,2.7217,2.7027,2.7027,2.6641,2.6537,2.6763,2.6436,2.6411,2.6694,2.67,2.6735,0.0,0.0,0.0,0.0,0.0,0.0,0.0,0.0,2.6171,2.6136,2.654,2.6824,2.7064,2.7131,2.7121,2.704,2.704,2.6693,2.6154,2.5833,2.5191,2.4445,2.4142,2.3568,2.3,2.3,2.294,2.2795,2.253,2.2387,2.2062,2.0899,2.068,2.0573,1.9685,1.9344,1.9186,1.9107,1.8462,1.7871,1.7836,1.688,1.5803,1.4969,1.4825,1.4695,0.0,0.0,0.0,0.0,0.0,0.0,0.0,0.0,0.0,0.0,0.0,0.0,0.0,0.0,1.6917,1.7685,1.8101,1.8296,1.827,0.0,1.8004,1.8747,1.7509,1.7327,1.8135,1.7481,1.6983,1.6606,1.6606,1.6557,1.6505,1.6102,1.6024,1.6063,1.5106,1.4602,1.4385,1.3653,1.295,1.2314,1.1874,1.1243,1.0557,3.0852,0.0,3.0398,0.0,2.9693,2.967,2.9848,3.0471,3.1001,3.1346,3.0437,2.9776,2.9792,2.9203,2.8752,2.8589,2.8358,2.816,2.7954,2.7597,2.7488,2.7683,2.738,0.0,2.7501,2.7421,2.7397,2.743,2.7584,0.0,0.0,0.0,0.0,0.0,2.6644,2.6769,2.6804,2.7269,2.7653,2.7941,2.7855,2.7822,2.7822,2.7822,2.7452,2.6844,2.6289,2.5708,2.5114,2.4548,2.4131,2.3835,2.3645,2.3704,2.3732,2.3391,2.3332,2.3152,2.2067,2.1652,2.134,2.0578,2.0156,1.9939,1.9837,1.9232,1.8585,1.8276,1.7567,1.6832,1.6312,1.5939,1.5661,1.5544,0.0,0.0,0.0,0.0,0.0,0.0,1.5647,1.5647,1.578,1.579,0.0,0.0,0.0,0.0,1.7814,1.8418,0.0,0.0,0.0,0.0,0.0,1.7909,1.776,1.8857,1.8212,1.7673,1.7257,1.7352,1.7251,1.6978,1.6743,1.6573,1.6347,1.5181,1.4528,1.4217,1.3569,1.2987,1.2461,1.2116,1.1644,1.115,3.2723,3.2754,3.2518,3.172,3.205,3.2191,3.1411,3.1844,3.2558,3.3354,3.2861,3.2119,3.1249,3.0455,2.9997,2.9997,2.9508,2.8939,2.8327,2.8287,2.8405,0.0,0.0,2.8418,2.866,2.8412,2.8189,2.8006,0.0,0.0,2.7668,0.0,2.6761,2.7664,2.7415,2.7349,2.744,2.837,2.8597,2.832,2.8509,2.8587,2.8587,2.8587,2.8207,2.7614,2.6986,2.6389,2.5805,2.5208,2.4977,2.4892,2.4276,2.4176,2.4321,2.4452,2.4637,2.463,2.4039,2.3447,2.2776,2.1968,2.1269,2.0734,2.0447,1.9982,1.9365,1.8659,1.8344,1.8118,1.7916,1.6946,1.6372,1.6886,0.0,0.0,0.0,0.0,0.0,0.0,1.629,1.6346,1.6466,1.65,0.0,0.0,0.0,0.0,0.0,0.0,0.0,1.9951,1.9384,0.0,2.0473,1.8166,1.7666,1.8987,1.7929,1.7387,1.7407,1.7733,1.7567,1.7006,1.7269,1.7157,1.6705,1.5559,1.4922,1.4613,1.3882,1.3348,1.2919,1.2393,1.2067,1.1819,3.3938,3.3845,3.3497,3.2706,3.2654,3.2633,3.2365,3.2972,3.3583,3.3918,3.3802,3.3639,3.358,3.246,3.1622,0.0,3.1087,3.0792,0.0,3.0149,2.9963,3.0066,2.999,2.9786,2.9449,2.9873,2.9652,2.8734,0.0,0.0,0.0,2.809,2.7939,2.7774,2.8116,2.8177,2.8126,2.8746,2.8926,2.8862,2.9008,2.9071,2.9103,2.9212,2.8931,2.8291,2.7649,2.6979,2.6283,2.5688,2.5481,2.5439,2.5244,2.5076,2.4907,2.4963,2.5188,2.526,2.4572,2.3941,2.3312,2.2658,2.192,2.1313,2.124,2.0946,2.0507,1.9913,1.9954,1.9954,1.9443,1.8962,1.8467,1.7852,1.7542,0.0,0.0,0.0,0.0,1.6934,1.7355,1.7454,1.6897,1.7748,0.0,0.0,0.0,0.0,0.0,0.0,0.0,0.0,1.9648,0.0,2.0435,1.9237,1.9042,1.9811,1.8995,1.8316,1.7742,1.7939,1.7881,1.76,1.7158,1.6808,1.6452,1.5491,1.486,1.4462,1.4251,1.3718,1.3112,1.2943,1.254,1.2082,3.5257,3.5101,3.4703,3.3995,3.3944,3.3877,3.3576,3.4159,3.4671,3.4752,3.4735,3.4785,3.4986,3.423,0.0,3.2419,3.2231,3.2018,3.1707,3.1382,3.1149,3.1062,3.1096,3.0896,3.0408,3.0679,0.0,2.9732,2.9999,2.9757,2.9106,2.9091,2.8906,2.857,2.8799,2.8862,2.8873,2.931,2.9432,2.9369,2.9557,2.9605,2.9577,2.9459,2.9181,2.8744,2.7866,2.7258,2.6779,2.6132,2.5921,2.5921,2.5921,2.5784,2.5591,2.5564,2.5729,2.5836,2.5442,2.488,2.4261,2.3631,2.2926,2.2309,2.2001,2.1793,2.1554,2.1217,2.108,2.0992,2.0796,2.0288,1.9704,1.9032,1.8593,1.8203,1.776,0.0,0.0,0.0,0.0,0.0,0.0,1.8906,1.951,0.0,0.0,0.0,0.0,0.0,0.0,1.99,1.9774,0.0,2.0345,1.9512,1.9417,2.0012,1.9547,1.8917,1.8118,1.8285,1.8111,1.7639,1.7078,1.6677,1.6372,1.5491,1.4919,1.4577,1.4449,1.4059,1.3552,1.3457,1.3156,1.2793,3.6554,3.6383,3.6075,0.0,3.5736,0.0,3.4921,3.5327,3.5737,3.5659,3.5606,3.5522,3.5477,3.5606,3.4981,3.3212,0.0,0.0,0.0,3.2198,3.2054,3.1843,3.1876,3.1768,3.1406,3.1079,3.0892,3.0849,3.0506,3.0357,3.0312,2.9781,2.9661,2.9842,2.9453,2.9448,2.9696,3.0019,3.0036,2.987,3.0066,3.0142,3.007,2.947,2.9227,2.9099,2.791,2.748,2.7351,2.6666,2.6395,2.6367,2.634,2.6367,2.634,2.6165,2.6233,2.6353,2.6498,2.6101,2.5492,2.4807,2.4168,2.3481,2.2732,2.2503,2.2463,2.2463,2.1812,2.1428,2.1979,2.1108,2.0312,2.0358,1.9733,1.9064,1.8618,0.0,0.0,0.0,0.0,0.0,0.0,2.002,2.0154,0.0,0.0,0.0,0.0,0.0,2.0023,1.9714,1.9866,2.0057,2.0341,1.9324,1.911,1.9725,1.9649,1.9214,1.8504,1.8682,1.8232,1.7329,1.7062,1.6813,1.6501,1.5653,1.5195,1.4996,1.4613,1.437,1.423,1.3939,1.3844,1.3773,0.0,0.0,3.6723,3.6415,3.6368,3.6274,3.5903,3.5978,3.5887,3.5384,3.5734,3.5808,3.5181,3.5368,3.5335,3.4866,3.472,3.4545,3.4233,3.3968,3.3584,3.3013,3.3031,3.2551,3.1507,3.1809,3.1784,3.1339,3.0993,3.0732,3.0538,3.0749,3.069,3.0403,3.0422,3.0407,3.0371,3.0462,3.0447,3.0417,3.0582,3.0612,3.0628,3.0631,3.0676,3.0675,2.988,2.9261,2.8731,2.7991,2.7395,2.6974,2.6858,2.6896,2.6907,2.6525,2.6539,2.67,2.6858,2.6491,2.5903,2.5344,2.4336,2.3422,2.3238,2.3135,2.3098,2.3098,2.2922,2.2819,2.2979,2.2657,2.2091,2.1141,2.0748,2.0183,1.9113,1.9546,0.0,0.0,2.1032,2.146,2.074,2.1636,2.1967,0.0,0.0,0.0,0.0,2.1578,2.1318,2.0846,2.1153,2.1167,2.0841,2.0877,2.0563,1.9943,1.98,1.9303,1.8425,1.8304,1.8084,1.7744,1.7577,1.7389,1.7138,1.6573,1.6324,1.6194,1.5335,1.4967,1.4838,1.4421,1.4127,1.3949,3.7419,3.7375,3.7301,3.718,3.6968,3.6769,3.6662,3.6523,3.6291,3.5922,3.6075,3.6073,3.5722,3.5839,3.5957,3.5911,3.5557,3.5329,3.5282,3.5034,3.4456,3.3485,3.3671,3.3152,3.1848,3.2232,3.2147,3.1499,3.1605,3.1457,3.1029,3.1219,3.119,3.0999,3.1014,3.1014,3.0999,3.0955,3.0925,3.0925,3.0925,3.0955,3.0911,3.0807,3.0789,3.0786,3.0242,2.9639,2.8999,2.8614,2.8036,2.7463,2.731,2.7335,2.7346,2.7152,2.7089,2.7144,2.7386,2.723,2.6831,2.6012,2.5017,2.4215,2.397,2.3824,2.3775,2.3775,2.3696,2.3674,2.3674,2.3588,2.3216,2.2309,2.1789,2.1178,2.0236,2.0715,0.0,2.1124,2.2269,2.2802,2.2138,2.2863,2.3067,2.231,2.2676,0.0,2.2353,2.2287,2.2032,2.1488,2.1747,2.1693,2.1288,2.1342,2.0881,1.9919,2.0206,1.994,1.9195,1.879,1.8425,1.8073,1.7744,1.7527,1.7313,1.6864,1.662,1.6424,1.565,1.5275,1.5123,1.4664,1.4407,1.4255,3.7831,3.7788,3.7788,3.7788,3.7537,3.7314,3.7314,3.7043,3.6799,3.666,3.6492,3.6399,3.6492,3.643,3.643,3.6492,3.584,3.5554,3.58,3.5701,3.4986,3.3651,3.3976,3.3554,3.2199,3.2452,3.2345,3.1802,3.2403,3.2357,3.1709,3.1552,3.1581,3.1709,3.1495,3.1495,3.1638,3.1509,3.1452,3.1452,3.1336,3.1278,3.1248,3.0783,3.0615,3.0625,3.0352,2.9776,2.9128,2.9097,2.8571,2.7915,2.7775,2.7725,2.776,2.7915,2.779,2.769,2.7949,2.7981,2.7727,2.6833,2.6004,2.5335,2.501,2.4777,2.4632,2.4746,2.4585,2.4425,2.4425,2.4286,2.403,2.3541,2.2875,2.2235,2.168,0.0,2.2558,2.2527,2.3502,2.4015,2.3526,2.384,2.3823,2.3147,2.3193,2.3153,2.2983,2.2911,2.2652,2.2163,2.2178,2.2069,2.1814,2.1312,2.0748,2.0177,2.0664,2.0655,2.0232,1.9527,1.8922,1.8414,1.7881,1.759,1.7484,1.6948,1.6686,1.6493,1.5772,1.549,1.5404,1.4873,1.4673,1.4616,3.8444,3.823,3.8103,3.8278,3.8017,3.7799,3.7799,3.7639,3.7273,3.654,3.6787,3.6869,3.6465,3.6168,3.6094,3.6375,3.5607,3.5468,3.6306,3.6195,3.5429,3.3985,3.4106,3.3529,3.2049,3.2737,3.3125,3.3176,3.3524,3.3311,3.2598,3.2449,3.2477,3.2571,3.2231,3.212,3.2244,3.2135,3.2135,3.2231,3.2079,3.2107,3.2188,3.2109,3.2146,3.2252,3.2292,3.1617,3.0625,3.0534,2.9645,2.8534,2.8332,2.8317,2.8383,2.8518,2.8614,2.8574,2.8268,2.7973,2.7805,2.7946,2.6919,2.6083,2.6791,2.6416,2.6095,2.6775,2.6404,2.5966,2.5966,2.5433,2.4853,2.4319,2.4021,2.3683,2.3155,0.0,2.3846,2.3885,2.437,2.4728,2.4812,2.4612,2.4502,2.4478,2.4398,2.4312,2.4241,2.4205,2.4066,2.3743,2.3331,2.2981,2.27,2.1456,2.1189,2.182,2.0822,2.0417,2.0521,1.9605,1.916,1.9016,1.8479,1.8394,1.8483,1.7402,1.7288,1.7659,1.6045,1.5742,1.6135,1.5441,1.5051,1.4846,3.8805,3.8678,3.8595,3.8711,3.8528,3.8371,3.8371,3.8205,3.7921,3.7527,3.7607,3.7584,3.7336,3.716,3.7147,3.7291,3.6552,3.6267,3.6758,3.6002,3.5114,3.411,3.4076,3.364,3.2718,3.3426,3.3652,3.3377,3.4022,3.3968,3.3272,3.3251,3.3266,3.3272,3.2991,3.2873,3.2877,3.2699,3.2672,3.2711,3.2574,3.2574,3.2614,3.2683,3.2765,3.2846,3.3087,3.2325,3.1223,3.1158,3.0251,2.9106,2.8936,2.8912,2.8928,2.9013,2.9059,2.9059,2.885,2.8723,2.8643,2.8591,2.8035,2.7563,2.7774,2.7534,2.7384,2.7753,2.7574,2.7192,2.6763,2.6403,2.5948,2.5306,2.4904,0.0,0.0,2.443,2.4642,2.464,2.5021,2.5362,2.5511,2.5285,2.513,2.5111,2.5068,2.497,2.4831,2.4811,2.4751,2.4589,2.3931,2.3116,2.2172,2.1796,2.1541,2.1439,2.1103,2.1093,2.1334,2.0608,2.0029,1.9618,1.9054,1.8667,1.8371,1.774,1.772,1.7997,1.6971,1.6857,1.7175,1.6501,1.601,1.5637,3.9158,3.9158,3.9158,3.9158,3.905,3.8942,3.8942,3.8794,3.8644,3.86,3.8427,3.8327,3.8355,3.8165,3.8068,3.8112,3.7447,3.7026,3.7026,3.5874,3.4897,3.4265,3.401,3.3813,3.3636,3.4132,3.4175,3.3715,3.4478,3.4539,3.3924,3.391,3.3951,3.3975,3.3697,3.3543,3.3529,3.3288,3.3219,3.3245,3.3097,3.3071,3.3108,3.3219,3.3245,3.3298,3.3591,3.2869,3.1782,3.1646,3.0836,2.9814,2.9496,2.9425,2.9464,2.9464,2.9509,2.9538,2.9486,2.957,2.9597,2.9269,2.9088,2.8943,2.8857,2.8685,2.8638,2.8823,2.8594,2.816,2.7559,2.716,2.6763,2.6234,0.0,0.0,0.0,2.5395,2.5463,2.5411,2.57,2.5941,2.6064,2.5901,2.5738,2.5642,2.5624,2.5495,2.5301,2.5301,2.5224,2.5064,2.4349,2.3383,2.2078,2.2319,2.2111,2.1417,2.1629,2.1873,2.2147,2.1455,2.0766,2.0065,1.9438,1.8737,1.8034,1.8005,1.8013,1.8062,1.7808,1.7857,1.8033,1.7494,1.7003,1.6539,3.9677,3.9651,3.9651,3.9651,3.9537,3.9432,3.9432,3.9432,3.9335,3.9169,3.9007,3.898,3.9098,3.8391,3.7985,3.8193,3.7514,3.7084,3.7084,3.6239,3.5433,3.4697,3.3942,3.3863,3.4595,3.4659,3.4765,3.4985,3.5163,3.5051,3.4618,3.4374,3.4472,3.4804,3.4275,3.4126,3.4201,3.3949,3.3899,3.4,3.3857,3.3882,3.4025,3.4025,3.4025,3.405,3.4201,3.3746,3.2958,3.2364,3.1622,3.0841,3.0004,2.9848,2.9951,2.9951,3.0124,3.0253,3.0017,3.0038,3.0172,3.0335,2.9922,2.9672,3.051,3.0168,2.9886,3.0633,2.9755,2.8835,2.8766,2.7637,2.6725,2.6809,0.0,0.0,2.6824,2.669,2.6607,2.6657,2.6539,2.6488,2.6624,2.647,2.6349,2.6331,2.6261,2.6118,2.586,2.5844,2.5659,2.5294,2.4791,2.4318,2.383,2.3238,2.3073,2.3281,2.246,2.228,2.2603,2.1513,2.0786,2.0318,1.9406,1.8562,1.7836,1.8075,1.8115,1.8003,1.8056,1.8191,1.8348,1.8031,1.7677,1.7327,4.0087,4.0062,4.0062,4.0062,3.9961,3.9858,3.9858,3.9729,3.9625,3.9635,3.9504,3.9478,3.9609,3.9263,3.9061,3.913,3.8462,3.8045,3.8045,3.7295,3.6166,3.4639,3.4297,3.4264,3.4574,3.459,3.4616,3.4732,3.5103,3.5212,3.5065,3.5281,3.5356,3.5327,3.5125,3.4937,3.4804,3.4691,3.4618,3.4594,3.4546,3.4546,3.4594,3.4594,3.4594,3.4594,3.4643,3.4206,3.3531,3.3268,3.244,3.1483,3.1143,3.0747,3.0443,3.0443,3.0506,3.0568,3.0568,3.0464,3.0443,3.0692,3.0593,3.056,3.103,3.0992,3.0951,3.13,3.0948,3.0439,2.998,2.9503,2.9007,2.8528,0.0,2.7806,2.7808,2.7806,2.7585,2.6992,2.7266,2.7334,2.6926,2.6708,2.6607,2.6641,2.6555,2.6399,2.6225,2.6046,2.5828,2.5567,2.5336,2.4744,2.3756,2.3449,2.3264,2.3173,2.2688,2.2684,2.3038,2.2249,2.1679,2.127,2.0467,1.985,1.9407,1.9334,1.9358,1.937,1.9309,1.9434,1.9598,1.9258,1.8821,1.8363,4.0412,4.0429,4.0429,4.0362,4.0288,4.0238,4.0238,4.007,3.9969,4.0062,4.0011,3.9986,4.0062,4.0011,3.9944,3.9944,3.9455,3.9143,3.9143,3.8362,3.7068,3.5111,3.4774,3.4667,3.4756,3.4667,3.4691,3.4771,3.5462,3.5671,3.5475,3.606,3.6154,3.5822,3.5711,3.5554,3.5373,3.5251,3.5142,3.5048,3.5048,3.5048,3.5071,3.5095,3.5118,3.5118,3.5118,3.4785,3.4318,3.4084,3.3417,3.2612,3.2378,3.1792,3.1156,3.0945,3.0878,3.0915,3.1052,3.0955,3.0834,3.0972,3.1095,3.1215,3.1353,3.1504,3.1653,3.1746,3.1576,3.1284,3.0802,3.0612,3.0317,2.9711,2.9274,2.8889,2.8567,2.8788,2.8546,2.7368,2.787,2.8009,2.7238,2.7023,2.6924,2.694,2.6825,2.6691,2.6504,2.6261,2.6046,2.5864,2.5749,2.5209,2.4242,2.4061,2.3805,2.3488,2.3258,2.3191,2.326,2.2549,2.2021,2.1616,2.1059,2.0547,2.0193,2.0415,2.0406,2.0263,2.0382,2.051,2.0548,2.0182,1.9762,1.9346,4.0721,4.0697,4.0673,4.0534,4.051,4.0493,4.0493,4.0493,4.0493,4.0493,4.0493,4.0493,4.0493,4.051,4.051,4.051,4.0387,4.0305,4.0305,3.9369,3.8026,3.6285,3.5376,3.5018,3.5291,3.5041,3.5071,3.5402,3.6326,3.6463,3.5812,3.6683,3.6813,3.628,3.5954,3.5883,3.5975,3.5583,3.5402,3.5402,3.5402,3.5402,3.5424,3.5538,3.56,3.56,3.56,3.56,3.5481,3.4759,3.451,3.4375,3.3634,3.2889,3.2161,3.1497,3.1295,3.1332,3.1462,3.1498,3.1443,3.1249,3.1406,3.1598,3.1598,3.1765,3.1948,3.2073,3.1568,3.1129,3.1195,3.0596,3.012,3.012,3.012,2.9871,2.9122,2.9658,2.9523,2.7909,2.836,2.8458,2.7598,2.7436,2.7343,2.7213,2.7133,2.6972,2.6708,2.6504,2.633,2.622,2.6007,2.5805,2.5597,2.5217,2.4866,2.4609,2.4266,2.3788,2.3172,2.23,2.163,2.1122,2.0909,2.0408,1.9814,2.1096,2.1152,2.0485,2.1155,2.1229,2.0959,2.0684,2.0422,2.0182,4.1065,4.1065,4.1041,4.1001,4.0965,4.0888,4.0817,4.0776,4.0776,4.0776,4.0776,4.0776,4.0776,4.0697,4.0583,4.051,4.0461,4.0436,4.0436,3.9664,3.8979,3.8472,3.6929,3.5834,3.5308,3.5441,3.5538,3.5554,3.6137,3.6311,3.6006,3.6478,3.6546,3.6301,3.6195,3.6148,3.6122,3.6014,3.591,3.5822,3.5822,3.5888,3.5971,3.5888,3.5932,3.6014,3.591,3.5932,3.598,3.5654,3.4891,3.3844,3.2542,3.1978,3.1775,3.1572,3.1579,3.1634,3.1578,3.1673,3.171,3.1462,3.1576,3.1727,3.1727,3.1929,3.2144,3.2267,3.2195,3.2121,3.2287,3.2143,3.2016,3.2062,3.16,3.114,3.0863,3.1009,3.0731,2.9596,2.9609,2.9388,2.857,2.7873,2.7465,2.7478,2.7293,2.707,2.6842,2.6657,2.6452,2.6277,2.6081,2.5864,2.568,2.5375,2.5103,2.4886,2.4544,2.424,2.3952,2.3172,2.2892,2.2951,2.2366,2.2055,2.1969,2.22,2.1988,2.1531,2.1629,2.152,2.1253,2.0983,2.0772,2.0585,4.1295,4.1232,4.1209,4.1209,4.1157,4.1105,4.1018,4.1018,4.1018,4.1018,4.1018,4.1018,4.1018,4.0965,4.075,4.0369,3.9989,3.989,4.0103,3.9686,3.947,3.947,3.8417,3.7307,3.6203,3.5975,3.5893,3.5954,3.693,3.704,3.6406,3.7276,3.7303,3.6571,3.6509,3.6423,3.6331,3.6272,3.6191,3.6127,3.6084,3.6187,3.6314,3.6229,3.6272,3.6395,3.6314,3.6314,3.6395,3.6293,3.5504,3.4323,3.3097,3.2474,3.2181,3.187,3.1856,3.1893,3.1819,3.1875,3.1965,3.1818,3.191,3.2036,3.2036,3.2197,3.2404,3.2542,3.2574,3.2674,3.2821,3.2854,3.2902,3.2932,3.2552,3.2141,3.1806,3.1992,3.1716,3.0536,3.057,3.0386,2.9576,2.8618,2.7919,2.7592,2.7388,2.72,2.699,2.6842,2.664,2.6382,2.6207,2.5956,2.5589,2.5492,2.5336,2.5119,2.4826,2.4523,2.4183,2.3623,2.3486,2.3696,2.3143,2.3009,2.3157,2.3031,2.2737,2.2356,2.217,2.1949,2.1688,2.135,2.1142,2.0981,4.1448,4.1363,4.1277,4.1277,4.1277,4.1277,4.1255,4.1255,4.1255,4.1232,4.1232,4.1232,4.1232,4.1232,4.0948,4.0264,3.9376,3.899,3.9422,3.9501,3.9576,3.964,3.9692,3.9105,3.7802,3.6724,3.6281,3.6523,3.8129,3.8198,3.6866,3.8506,3.8458,3.6987,3.6869,3.6708,3.6523,3.6385,3.6343,3.6322,3.6272,3.6356,3.6523,3.6523,3.6602,3.6702,3.6702,3.6702,3.6705,3.6635,3.6058,3.5292,3.4634,3.3833,3.3014,3.2422,3.2196,3.2144,3.2144,3.2144,3.2161,3.2214,3.2336,3.2422,3.2405,3.2524,3.2639,3.2773,3.2823,3.2838,3.29,3.2979,3.3044,3.3026,3.3088,3.2898,3.2211,3.2639,3.2506,3.1088,3.1332,3.1313,3.0581,2.9538,2.8533,2.7594,2.7506,2.7381,2.7119,2.7127,2.6962,2.6568,2.6461,2.6122,2.5512,2.5751,2.5662,2.5259,2.5084,2.471,2.4162,2.3831,2.3696,2.3659,2.3406,2.3428,2.3616,2.356,2.3282,2.2912,2.2715,2.2486,2.2184,2.1793,2.1568,2.1385,4.1858,4.1858,4.1837,4.1837,4.1837,4.1797,4.1692,4.167,4.1631,4.152,4.1498,4.1475,4.1363,4.1358,4.1248,4.0983,4.0242,3.9572,3.9054,3.9631,3.9978,3.9995,4.0006,3.9943,3.9769,3.8318,3.73,3.6731,3.7224,3.7306,3.7031,3.738,3.7284,3.6849,3.6911,3.6849,3.6643,3.6687,3.6667,3.6623,3.6599,3.6643,3.6728,3.6684,3.6705,3.6768,3.6705,3.6725,3.6681,3.6107,3.5353,3.4634,3.4629,3.3686,3.2687,3.3196,3.2948,3.2489,3.2422,3.2456,3.2506,3.2506,3.2607,3.2658,3.2507,3.254,3.2639,3.2773,3.2886,3.2981,3.3039,3.3152,3.3247,3.3304,3.3319,3.3265,3.3043,3.3139,3.3072,3.2637,3.2051,3.162,3.1441,2.9948,2.8604,2.7709,2.8082,2.7979,2.7136,2.7825,2.7838,2.6924,2.7104,2.6956,2.6351,2.696,2.651,2.4997,2.5052,2.4989,2.4806,2.4513,2.4343,2.4297,2.4135,2.4009,2.3903,2.3775,2.3523,2.3194,2.3038,2.2806,2.2486,2.2184,2.1996,2.1793,4.2005,4.2005,4.2005,4.2005,4.2005,4.1984,4.1902,4.1902,4.1841,4.1714,4.1692,4.167,4.1604,4.1538,4.1151,4.0271,3.9233,3.8548,3.8386,3.8829,3.9386,4.0073,4.0189,4.0324,4.0475,3.9722,3.8772,3.7611,3.7709,3.7575,3.7242,3.7611,3.7517,3.7087,3.7143,3.7027,3.6846,3.6888,3.6849,3.6745,3.6705,3.6786,3.6871,3.6786,3.6809,3.6888,3.6866,3.6869,3.6838,3.6453,3.5542,3.4685,3.5164,3.4287,3.3159,3.3599,3.3474,3.3084,3.2662,3.2573,3.2622,3.269,3.2706,3.269,3.2658,3.2722,3.282,3.2886,3.2981,3.3073,3.3086,3.3214,3.3322,3.3396,3.3422,3.3452,3.3437,3.3437,3.3408,3.3301,3.2805,3.2258,3.1711,3.0616,2.9569,2.8673,2.8661,2.8408,2.7756,2.8174,2.805,2.732,2.7599,2.751,2.6896,2.7591,2.7316,2.6097,2.623,2.605,2.5552,2.5329,2.517,2.5093,2.4627,2.4323,2.4151,2.4073,2.3803,2.3436,2.3341,2.3061,2.27,2.2486,2.2184,2.1837,4.2051,4.2069,4.209,4.209,4.2094,4.2111,4.209,4.2069,4.2009,4.1866,4.1823,4.1841,4.1841,4.1591,4.081,3.9304,3.8091,3.7492,3.7672,3.8052,3.8737,3.9765,4.0223,4.0539,4.0679,4.0804,4.0104,3.8562,3.8583,3.8212,3.7503,3.8125,3.8051,3.7411,3.7391,3.7239,3.7009,3.7048,3.6989,3.6849,3.6786,3.6866,3.7009,3.6891,3.6911,3.7009,3.7009,3.7009,3.6989,3.7009,3.6029,3.494,3.5769,3.4924,3.3666,3.3807,3.3754,3.3522,3.2833,3.2655,3.2688,3.2789,3.2739,3.2672,3.2805,3.2934,3.2995,3.3011,3.3088,3.3147,3.3162,3.3244,3.3337,3.3408,3.3466,3.352,3.3577,3.3591,3.3563,3.3509,3.3382,3.2847,3.1749,3.1325,3.0694,2.9711,2.9314,2.8933,2.8493,2.8578,2.8408,2.7867,2.8208,2.8127,2.7529,2.818,2.8176,2.7504,2.784,2.7451,2.6441,2.624,2.612,2.6015,2.518,2.4756,2.4555,2.4405,2.4094,2.3717,2.3603,2.3326,2.2979,2.2737,2.2324,2.1785,4.2246,4.2364,4.2422,4.2422,4.2468,4.2508,4.2443,4.2325,4.2205,4.2082,4.2012,4.1984,4.1984,4.1241,4.038,3.9517,3.9256,3.8604,3.7279,3.8556,3.9143,3.8647,3.9997,4.0846,4.1029,4.1052,4.0324,3.8848,3.8679,3.8343,3.7828,3.7774,3.7629,3.7411,3.7577,3.7449,3.7108,3.7261,3.7223,3.705,3.6989,3.7009,3.7089,3.7069,3.7069,3.7089,3.7089,3.7048,3.7009,3.7069,3.6067,3.4958,3.5807,3.4641,3.3091,3.3851,3.3614,3.3075,3.2902,3.29,3.2932,3.29,3.2868,3.2884,3.2965,3.2995,3.3024,3.307,3.3226,3.3378,3.3452,3.3408,3.3422,3.3549,3.3534,3.3491,3.3506,3.3506,3.3506,3.3509,3.3382,3.2892,3.1867,3.1629,3.1039,2.9859,3.0179,2.9933,2.8721,2.98,2.9962,2.885,2.9412,2.9461,2.8857,2.9456,2.913,2.7931,2.91,2.8892,2.7407,2.7251,2.7163,2.7058,2.6203,2.5763,2.5608,2.4808,2.4359,2.4177,2.3882,2.3653,2.3443,2.3024,2.2563,2.2123,4.247,4.2528,4.2566,4.2566,4.257,4.2589,4.2548,4.2468,4.2366,4.2225,4.2121,4.2055,4.2055,4.1324,4.0483,3.9643,3.9206,3.85,3.7293,3.7935,3.8398,3.8445,3.9665,4.0624,4.1209,4.1697,4.1455,4.0455,3.9407,3.8724,3.8438,3.7864,3.7558,3.7503,3.7485,3.7373,3.7222,3.7354,3.7242,3.7048,3.7126,3.7145,3.7108,3.7108,3.7108,3.7108,3.7108,3.7145,3.7182,3.7203,3.6517,3.5775,3.6573,3.5581,3.4208,3.4598,3.4185,3.3612,3.3578,3.3289,3.3086,3.3518,3.3287,3.2963,3.2979,3.3091,3.3183,3.3214,3.3349,3.3466,3.3477,3.3481,3.3509,3.3629,3.3605,3.3577,3.3619,3.3601,3.3577,3.3452,3.3304,3.3009,3.2509,3.2157,3.1685,3.1063,3.1024,3.0709,2.9972,3.0496,3.0475,2.9753,3.0161,3.0173,2.9714,3.0152,3.0029,2.9342,2.9941,2.95,2.8152,2.8046,2.7998,2.7908,2.6649,2.605,2.5879,2.5023,2.458,2.438,2.403,2.3711,2.3392,2.3024,2.2777,2.2572]}]]